<?xml version="1.0" encoding="UTF-8" standalone="no" ?>
<gpx xmlns="http://www.topografix.com/GPX/1/1" xmlns:xsi="http://www.w3.org/2001/XMLSchema-instance" xsi:schemaLocation="http://www.topografix.com/GPX/1/1 http://www.topografix.com/GPX/1/1/gpx.xsd" version="1.1" creator="VisuGPX - https://www.visugpx.com">
  <metadata>
    <name>Bessines La tranchée</name>
  </metadata>
  <trk>
    <name><![CDATA[Bessines La tranchée_1]]></name>
    <trkseg>
      <trkpt lat="46.30033" lon="-0.51214">
        <ele>79</ele>
        <time>2012-01-10T13:36:07Z</time>
      </trkpt>
      <trkpt lat="46.30035" lon="-0.51215">
        <ele>78</ele>
        <time>2012-01-10T13:36:12Z</time>
      </trkpt>
      <trkpt lat="46.30035" lon="-0.51214">
        <ele>77</ele>
        <time>2012-01-10T13:36:17Z</time>
      </trkpt>
      <trkpt lat="46.30035" lon="-0.51214">
        <ele>77</ele>
        <time>2012-01-10T13:36:22Z</time>
      </trkpt>
      <trkpt lat="46.30035" lon="-0.51214">
        <ele>76</ele>
        <time>2012-01-10T13:36:27Z</time>
      </trkpt>
      <trkpt lat="46.30035" lon="-0.51214">
        <ele>76</ele>
        <time>2012-01-10T13:36:32Z</time>
      </trkpt>
      <trkpt lat="46.30036" lon="-0.51214">
        <ele>76</ele>
        <time>2012-01-10T13:36:42Z</time>
      </trkpt>
      <trkpt lat="46.30036" lon="-0.51214">
        <ele>75</ele>
        <time>2012-01-10T13:36:47Z</time>
      </trkpt>
      <trkpt lat="46.30036" lon="-0.51212">
        <ele>74</ele>
        <time>2012-01-10T13:36:52Z</time>
      </trkpt>
      <trkpt lat="46.30036" lon="-0.51209">
        <ele>74</ele>
        <time>2012-01-10T13:37:07Z</time>
      </trkpt>
      <trkpt lat="46.30036" lon="-0.51207">
        <ele>75</ele>
        <time>2012-01-10T13:37:12Z</time>
      </trkpt>
      <trkpt lat="46.30037" lon="-0.51206">
        <ele>74</ele>
        <time>2012-01-10T13:37:17Z</time>
      </trkpt>
      <trkpt lat="46.30036" lon="-0.51205">
        <ele>74</ele>
        <time>2012-01-10T13:37:22Z</time>
      </trkpt>
      <trkpt lat="46.30036" lon="-0.51202">
        <ele>73</ele>
        <time>2012-01-10T13:37:32Z</time>
      </trkpt>
      <trkpt lat="46.30036" lon="-0.51201">
        <ele>73</ele>
        <time>2012-01-10T13:37:37Z</time>
      </trkpt>
      <trkpt lat="46.30035" lon="-0.51201">
        <ele>72</ele>
        <time>2012-01-10T13:37:42Z</time>
      </trkpt>
      <trkpt lat="46.30035" lon="-0.512">
        <ele>72</ele>
        <time>2012-01-10T13:37:47Z</time>
      </trkpt>
      <trkpt lat="46.30035" lon="-0.51199">
        <ele>72</ele>
        <time>2012-01-10T13:37:52Z</time>
      </trkpt>
      <trkpt lat="46.30035" lon="-0.51196">
        <ele>71</ele>
        <time>2012-01-10T13:37:57Z</time>
      </trkpt>
      <trkpt lat="46.30035" lon="-0.51195">
        <ele>71</ele>
        <time>2012-01-10T13:38:02Z</time>
      </trkpt>
      <trkpt lat="46.30035" lon="-0.51194">
        <ele>72</ele>
        <time>2012-01-10T13:38:52Z</time>
      </trkpt>
      <trkpt lat="46.30033" lon="-0.51194">
        <ele>72</ele>
        <time>2012-01-10T13:38:57Z</time>
      </trkpt>
      <trkpt lat="46.30033" lon="-0.51194">
        <ele>72</ele>
        <time>2012-01-10T13:39:02Z</time>
      </trkpt>
      <trkpt lat="46.30033" lon="-0.51192">
        <ele>72</ele>
        <time>2012-01-10T13:39:07Z</time>
      </trkpt>
      <trkpt lat="46.30032" lon="-0.51191">
        <ele>72</ele>
        <time>2012-01-10T13:39:12Z</time>
      </trkpt>
      <trkpt lat="46.30032" lon="-0.51186">
        <ele>73</ele>
        <time>2012-01-10T13:39:17Z</time>
      </trkpt>
      <trkpt lat="46.30032" lon="-0.51182">
        <ele>73</ele>
        <time>2012-01-10T13:39:22Z</time>
      </trkpt>
      <trkpt lat="46.30031" lon="-0.51179">
        <ele>73</ele>
        <time>2012-01-10T13:39:27Z</time>
      </trkpt>
      <trkpt lat="46.30031" lon="-0.51174">
        <ele>74</ele>
        <time>2012-01-10T13:39:32Z</time>
      </trkpt>
      <trkpt lat="46.30027" lon="-0.51172">
        <ele>77</ele>
        <time>2012-01-10T13:39:37Z</time>
      </trkpt>
      <trkpt lat="46.30023" lon="-0.51168">
        <ele>77</ele>
        <time>2012-01-10T13:39:42Z</time>
      </trkpt>
      <trkpt lat="46.30018" lon="-0.51166">
        <ele>78</ele>
        <time>2012-01-10T13:39:47Z</time>
      </trkpt>
      <trkpt lat="46.30014" lon="-0.51164">
        <ele>77</ele>
        <time>2012-01-10T13:39:52Z</time>
      </trkpt>
      <trkpt lat="46.30013" lon="-0.51158">
        <ele>78</ele>
        <time>2012-01-10T13:39:57Z</time>
      </trkpt>
      <trkpt lat="46.30011" lon="-0.51154">
        <ele>78</ele>
        <time>2012-01-10T13:40:02Z</time>
      </trkpt>
      <trkpt lat="46.30011" lon="-0.51151">
        <ele>76</ele>
        <time>2012-01-10T13:40:07Z</time>
      </trkpt>
      <trkpt lat="46.30008" lon="-0.51147">
        <ele>80</ele>
        <time>2012-01-10T13:40:12Z</time>
      </trkpt>
      <trkpt lat="46.30007" lon="-0.51143">
        <ele>81</ele>
        <time>2012-01-10T13:40:17Z</time>
      </trkpt>
      <trkpt lat="46.30006" lon="-0.51135">
        <ele>78</ele>
        <time>2012-01-10T13:40:22Z</time>
      </trkpt>
      <trkpt lat="46.30005" lon="-0.51125">
        <ele>78</ele>
        <time>2012-01-10T13:40:27Z</time>
      </trkpt>
      <trkpt lat="46.30001" lon="-0.51116">
        <ele>80</ele>
        <time>2012-01-10T13:40:32Z</time>
      </trkpt>
      <trkpt lat="46.3" lon="-0.51112">
        <ele>80</ele>
        <time>2012-01-10T13:40:37Z</time>
      </trkpt>
      <trkpt lat="46.29999" lon="-0.51102">
        <ele>79</ele>
        <time>2012-01-10T13:40:42Z</time>
      </trkpt>
      <trkpt lat="46.29997" lon="-0.51086">
        <ele>74</ele>
        <time>2012-01-10T13:40:47Z</time>
      </trkpt>
      <trkpt lat="46.29993" lon="-0.51076">
        <ele>75</ele>
        <time>2012-01-10T13:40:52Z</time>
      </trkpt>
      <trkpt lat="46.2999" lon="-0.51068">
        <ele>75</ele>
        <time>2012-01-10T13:40:57Z</time>
      </trkpt>
      <trkpt lat="46.29988" lon="-0.51062">
        <ele>74</ele>
        <time>2012-01-10T13:41:02Z</time>
      </trkpt>
      <trkpt lat="46.29985" lon="-0.51055">
        <ele>72</ele>
        <time>2012-01-10T13:41:07Z</time>
      </trkpt>
      <trkpt lat="46.29981" lon="-0.51048">
        <ele>74</ele>
        <time>2012-01-10T13:41:12Z</time>
      </trkpt>
      <trkpt lat="46.29977" lon="-0.51045">
        <ele>73</ele>
        <time>2012-01-10T13:41:17Z</time>
      </trkpt>
      <trkpt lat="46.29973" lon="-0.51037">
        <ele>73</ele>
        <time>2012-01-10T13:41:22Z</time>
      </trkpt>
      <trkpt lat="46.29969" lon="-0.5103">
        <ele>72</ele>
        <time>2012-01-10T13:41:27Z</time>
      </trkpt>
      <trkpt lat="46.29963" lon="-0.51023">
        <ele>72</ele>
        <time>2012-01-10T13:41:32Z</time>
      </trkpt>
      <trkpt lat="46.29959" lon="-0.51013">
        <ele>72</ele>
        <time>2012-01-10T13:41:37Z</time>
      </trkpt>
      <trkpt lat="46.29957" lon="-0.51004">
        <ele>73</ele>
        <time>2012-01-10T13:41:42Z</time>
      </trkpt>
      <trkpt lat="46.29952" lon="-0.50998">
        <ele>73</ele>
        <time>2012-01-10T13:41:47Z</time>
      </trkpt>
      <trkpt lat="46.29949" lon="-0.50993">
        <ele>71</ele>
        <time>2012-01-10T13:41:52Z</time>
      </trkpt>
      <trkpt lat="46.29947" lon="-0.50988">
        <ele>72</ele>
        <time>2012-01-10T13:41:57Z</time>
      </trkpt>
      <trkpt lat="46.29942" lon="-0.50981">
        <ele>72</ele>
        <time>2012-01-10T13:42:02Z</time>
      </trkpt>
      <trkpt lat="46.29938" lon="-0.50972">
        <ele>72</ele>
        <time>2012-01-10T13:42:07Z</time>
      </trkpt>
      <trkpt lat="46.29936" lon="-0.50965">
        <ele>73</ele>
        <time>2012-01-10T13:42:12Z</time>
      </trkpt>
      <trkpt lat="46.29933" lon="-0.50957">
        <ele>73</ele>
        <time>2012-01-10T13:42:17Z</time>
      </trkpt>
      <trkpt lat="46.2993" lon="-0.50951">
        <ele>73</ele>
        <time>2012-01-10T13:42:22Z</time>
      </trkpt>
      <trkpt lat="46.29926" lon="-0.50946">
        <ele>75</ele>
        <time>2012-01-10T13:42:27Z</time>
      </trkpt>
      <trkpt lat="46.29922" lon="-0.50937">
        <ele>75</ele>
        <time>2012-01-10T13:42:32Z</time>
      </trkpt>
      <trkpt lat="46.29918" lon="-0.50929">
        <ele>75</ele>
        <time>2012-01-10T13:42:37Z</time>
      </trkpt>
      <trkpt lat="46.29916" lon="-0.50922">
        <ele>77</ele>
        <time>2012-01-10T13:42:42Z</time>
      </trkpt>
      <trkpt lat="46.29912" lon="-0.50915">
        <ele>77</ele>
        <time>2012-01-10T13:42:47Z</time>
      </trkpt>
      <trkpt lat="46.29908" lon="-0.50911">
        <ele>78</ele>
        <time>2012-01-10T13:42:52Z</time>
      </trkpt>
      <trkpt lat="46.29906" lon="-0.50903">
        <ele>77</ele>
        <time>2012-01-10T13:42:57Z</time>
      </trkpt>
      <trkpt lat="46.29902" lon="-0.50894">
        <ele>77</ele>
        <time>2012-01-10T13:43:02Z</time>
      </trkpt>
      <trkpt lat="46.299" lon="-0.50884">
        <ele>77</ele>
        <time>2012-01-10T13:43:07Z</time>
      </trkpt>
      <trkpt lat="46.29898" lon="-0.50879">
        <ele>78</ele>
        <time>2012-01-10T13:43:12Z</time>
      </trkpt>
      <trkpt lat="46.29897" lon="-0.50874">
        <ele>79</ele>
        <time>2012-01-10T13:43:17Z</time>
      </trkpt>
      <trkpt lat="46.29897" lon="-0.50863">
        <ele>77</ele>
        <time>2012-01-10T13:43:22Z</time>
      </trkpt>
      <trkpt lat="46.29896" lon="-0.50854">
        <ele>78</ele>
        <time>2012-01-10T13:43:27Z</time>
      </trkpt>
      <trkpt lat="46.29895" lon="-0.50846">
        <ele>76</ele>
        <time>2012-01-10T13:43:32Z</time>
      </trkpt>
      <trkpt lat="46.29894" lon="-0.50836">
        <ele>75</ele>
        <time>2012-01-10T13:43:37Z</time>
      </trkpt>
      <trkpt lat="46.29895" lon="-0.50825">
        <ele>73</ele>
        <time>2012-01-10T13:43:42Z</time>
      </trkpt>
      <trkpt lat="46.29897" lon="-0.50818">
        <ele>71</ele>
        <time>2012-01-10T13:43:47Z</time>
      </trkpt>
      <trkpt lat="46.29897" lon="-0.50817">
        <ele>71</ele>
        <time>2012-01-10T13:43:52Z</time>
      </trkpt>
      <trkpt lat="46.29899" lon="-0.50812">
        <ele>70</ele>
        <time>2012-01-10T13:43:57Z</time>
      </trkpt>
      <trkpt lat="46.29903" lon="-0.50799">
        <ele>68</ele>
        <time>2012-01-10T13:44:02Z</time>
      </trkpt>
      <trkpt lat="46.29906" lon="-0.50791">
        <ele>68</ele>
        <time>2012-01-10T13:44:07Z</time>
      </trkpt>
      <trkpt lat="46.2991" lon="-0.50782">
        <ele>68</ele>
        <time>2012-01-10T13:44:12Z</time>
      </trkpt>
      <trkpt lat="46.29913" lon="-0.50774">
        <ele>70</ele>
        <time>2012-01-10T13:44:17Z</time>
      </trkpt>
      <trkpt lat="46.29917" lon="-0.50766">
        <ele>71</ele>
        <time>2012-01-10T13:44:22Z</time>
      </trkpt>
      <trkpt lat="46.2992" lon="-0.50758">
        <ele>70</ele>
        <time>2012-01-10T13:44:27Z</time>
      </trkpt>
      <trkpt lat="46.29921" lon="-0.50751">
        <ele>71</ele>
        <time>2012-01-10T13:44:32Z</time>
      </trkpt>
      <trkpt lat="46.29922" lon="-0.50741">
        <ele>70</ele>
        <time>2012-01-10T13:44:37Z</time>
      </trkpt>
      <trkpt lat="46.29923" lon="-0.50734">
        <ele>69</ele>
        <time>2012-01-10T13:44:42Z</time>
      </trkpt>
      <trkpt lat="46.29923" lon="-0.50725">
        <ele>70</ele>
        <time>2012-01-10T13:44:47Z</time>
      </trkpt>
      <trkpt lat="46.29921" lon="-0.50715">
        <ele>69</ele>
        <time>2012-01-10T13:44:52Z</time>
      </trkpt>
      <trkpt lat="46.29921" lon="-0.50707">
        <ele>68</ele>
        <time>2012-01-10T13:44:57Z</time>
      </trkpt>
      <trkpt lat="46.2992" lon="-0.50696">
        <ele>67</ele>
        <time>2012-01-10T13:45:02Z</time>
      </trkpt>
      <trkpt lat="46.29919" lon="-0.50682">
        <ele>71</ele>
        <time>2012-01-10T13:45:07Z</time>
      </trkpt>
      <trkpt lat="46.29917" lon="-0.50674">
        <ele>73</ele>
        <time>2012-01-10T13:45:12Z</time>
      </trkpt>
      <trkpt lat="46.29913" lon="-0.50669">
        <ele>73</ele>
        <time>2012-01-10T13:45:17Z</time>
      </trkpt>
      <trkpt lat="46.29913" lon="-0.50672">
        <ele>73</ele>
        <time>2012-01-10T13:45:22Z</time>
      </trkpt>
      <trkpt lat="46.29913" lon="-0.50669">
        <ele>73</ele>
        <time>2012-01-10T13:45:27Z</time>
      </trkpt>
      <trkpt lat="46.29911" lon="-0.50658">
        <ele>71</ele>
        <time>2012-01-10T13:45:32Z</time>
      </trkpt>
      <trkpt lat="46.29907" lon="-0.50652">
        <ele>71</ele>
        <time>2012-01-10T13:45:37Z</time>
      </trkpt>
      <trkpt lat="46.29904" lon="-0.50643">
        <ele>72</ele>
        <time>2012-01-10T13:45:42Z</time>
      </trkpt>
      <trkpt lat="46.299" lon="-0.50635">
        <ele>73</ele>
        <time>2012-01-10T13:45:47Z</time>
      </trkpt>
      <trkpt lat="46.29897" lon="-0.50628">
        <ele>74</ele>
        <time>2012-01-10T13:45:52Z</time>
      </trkpt>
      <trkpt lat="46.29893" lon="-0.50615">
        <ele>73</ele>
        <time>2012-01-10T13:45:57Z</time>
      </trkpt>
      <trkpt lat="46.29891" lon="-0.50607">
        <ele>72</ele>
        <time>2012-01-10T13:46:02Z</time>
      </trkpt>
      <trkpt lat="46.2989" lon="-0.50597">
        <ele>72</ele>
        <time>2012-01-10T13:46:07Z</time>
      </trkpt>
      <trkpt lat="46.29887" lon="-0.50589">
        <ele>73</ele>
        <time>2012-01-10T13:46:12Z</time>
      </trkpt>
      <trkpt lat="46.29884" lon="-0.50582">
        <ele>73</ele>
        <time>2012-01-10T13:46:17Z</time>
      </trkpt>
      <trkpt lat="46.29881" lon="-0.50571">
        <ele>73</ele>
        <time>2012-01-10T13:46:22Z</time>
      </trkpt>
      <trkpt lat="46.29877" lon="-0.50561">
        <ele>73</ele>
        <time>2012-01-10T13:46:27Z</time>
      </trkpt>
      <trkpt lat="46.29873" lon="-0.50553">
        <ele>72</ele>
        <time>2012-01-10T13:46:32Z</time>
      </trkpt>
      <trkpt lat="46.2987" lon="-0.50546">
        <ele>73</ele>
        <time>2012-01-10T13:46:37Z</time>
      </trkpt>
      <trkpt lat="46.29866" lon="-0.50538">
        <ele>72</ele>
        <time>2012-01-10T13:46:42Z</time>
      </trkpt>
      <trkpt lat="46.29863" lon="-0.50534">
        <ele>71</ele>
        <time>2012-01-10T13:46:47Z</time>
      </trkpt>
      <trkpt lat="46.2986" lon="-0.50528">
        <ele>71</ele>
        <time>2012-01-10T13:46:52Z</time>
      </trkpt>
      <trkpt lat="46.29856" lon="-0.50525">
        <ele>71</ele>
        <time>2012-01-10T13:46:57Z</time>
      </trkpt>
      <trkpt lat="46.29852" lon="-0.50514">
        <ele>71</ele>
        <time>2012-01-10T13:47:02Z</time>
      </trkpt>
      <trkpt lat="46.29847" lon="-0.50505">
        <ele>73</ele>
        <time>2012-01-10T13:47:07Z</time>
      </trkpt>
      <trkpt lat="46.29844" lon="-0.505">
        <ele>72</ele>
        <time>2012-01-10T13:47:12Z</time>
      </trkpt>
      <trkpt lat="46.29839" lon="-0.50489">
        <ele>73</ele>
        <time>2012-01-10T13:47:17Z</time>
      </trkpt>
      <trkpt lat="46.29836" lon="-0.50484">
        <ele>73</ele>
        <time>2012-01-10T13:47:22Z</time>
      </trkpt>
      <trkpt lat="46.29833" lon="-0.5047">
        <ele>73</ele>
        <time>2012-01-10T13:47:27Z</time>
      </trkpt>
      <trkpt lat="46.2983" lon="-0.50463">
        <ele>72</ele>
        <time>2012-01-10T13:47:32Z</time>
      </trkpt>
      <trkpt lat="46.29828" lon="-0.50457">
        <ele>72</ele>
        <time>2012-01-10T13:47:37Z</time>
      </trkpt>
      <trkpt lat="46.29826" lon="-0.50451">
        <ele>72</ele>
        <time>2012-01-10T13:47:42Z</time>
      </trkpt>
      <trkpt lat="46.29823" lon="-0.50448">
        <ele>71</ele>
        <time>2012-01-10T13:47:47Z</time>
      </trkpt>
      <trkpt lat="46.29819" lon="-0.50435">
        <ele>74</ele>
        <time>2012-01-10T13:47:52Z</time>
      </trkpt>
      <trkpt lat="46.29814" lon="-0.50428">
        <ele>74</ele>
        <time>2012-01-10T13:47:57Z</time>
      </trkpt>
      <trkpt lat="46.29811" lon="-0.50423">
        <ele>74</ele>
        <time>2012-01-10T13:48:02Z</time>
      </trkpt>
      <trkpt lat="46.2981" lon="-0.50414">
        <ele>74</ele>
        <time>2012-01-10T13:48:07Z</time>
      </trkpt>
      <trkpt lat="46.29808" lon="-0.50412">
        <ele>75</ele>
        <time>2012-01-10T13:48:12Z</time>
      </trkpt>
      <trkpt lat="46.29803" lon="-0.50401">
        <ele>76</ele>
        <time>2012-01-10T13:48:17Z</time>
      </trkpt>
      <trkpt lat="46.29802" lon="-0.50398">
        <ele>73</ele>
        <time>2012-01-10T13:48:22Z</time>
      </trkpt>
      <trkpt lat="46.29799" lon="-0.50392">
        <ele>74</ele>
        <time>2012-01-10T13:48:27Z</time>
      </trkpt>
      <trkpt lat="46.29797" lon="-0.50379">
        <ele>73</ele>
        <time>2012-01-10T13:48:32Z</time>
      </trkpt>
      <trkpt lat="46.29795" lon="-0.50368">
        <ele>72</ele>
        <time>2012-01-10T13:48:37Z</time>
      </trkpt>
      <trkpt lat="46.29793" lon="-0.5036">
        <ele>72</ele>
        <time>2012-01-10T13:48:42Z</time>
      </trkpt>
      <trkpt lat="46.29792" lon="-0.50355">
        <ele>72</ele>
        <time>2012-01-10T13:48:47Z</time>
      </trkpt>
      <trkpt lat="46.29788" lon="-0.50347">
        <ele>72</ele>
        <time>2012-01-10T13:48:52Z</time>
      </trkpt>
      <trkpt lat="46.29787" lon="-0.50338">
        <ele>69</ele>
        <time>2012-01-10T13:48:57Z</time>
      </trkpt>
      <trkpt lat="46.29786" lon="-0.5033">
        <ele>69</ele>
        <time>2012-01-10T13:49:02Z</time>
      </trkpt>
      <trkpt lat="46.29785" lon="-0.50319">
        <ele>69</ele>
        <time>2012-01-10T13:49:07Z</time>
      </trkpt>
      <trkpt lat="46.29785" lon="-0.5031">
        <ele>68</ele>
        <time>2012-01-10T13:49:12Z</time>
      </trkpt>
      <trkpt lat="46.29783" lon="-0.50301">
        <ele>69</ele>
        <time>2012-01-10T13:49:17Z</time>
      </trkpt>
      <trkpt lat="46.29782" lon="-0.50292">
        <ele>69</ele>
        <time>2012-01-10T13:49:22Z</time>
      </trkpt>
      <trkpt lat="46.29781" lon="-0.50287">
        <ele>69</ele>
        <time>2012-01-10T13:49:27Z</time>
      </trkpt>
      <trkpt lat="46.2978" lon="-0.5028">
        <ele>69</ele>
        <time>2012-01-10T13:49:32Z</time>
      </trkpt>
      <trkpt lat="46.29779" lon="-0.5027">
        <ele>68</ele>
        <time>2012-01-10T13:49:37Z</time>
      </trkpt>
      <trkpt lat="46.29778" lon="-0.50262">
        <ele>67</ele>
        <time>2012-01-10T13:49:42Z</time>
      </trkpt>
      <trkpt lat="46.29778" lon="-0.50255">
        <ele>65</ele>
        <time>2012-01-10T13:49:47Z</time>
      </trkpt>
      <trkpt lat="46.29778" lon="-0.50243">
        <ele>67</ele>
        <time>2012-01-10T13:49:52Z</time>
      </trkpt>
      <trkpt lat="46.29775" lon="-0.50233">
        <ele>69</ele>
        <time>2012-01-10T13:49:57Z</time>
      </trkpt>
      <trkpt lat="46.29775" lon="-0.50226">
        <ele>68</ele>
        <time>2012-01-10T13:50:02Z</time>
      </trkpt>
      <trkpt lat="46.29773" lon="-0.5022">
        <ele>68</ele>
        <time>2012-01-10T13:50:07Z</time>
      </trkpt>
      <trkpt lat="46.29772" lon="-0.50215">
        <ele>68</ele>
        <time>2012-01-10T13:50:12Z</time>
      </trkpt>
      <trkpt lat="46.29769" lon="-0.50203">
        <ele>68</ele>
        <time>2012-01-10T13:50:17Z</time>
      </trkpt>
      <trkpt lat="46.29768" lon="-0.50196">
        <ele>68</ele>
        <time>2012-01-10T13:50:22Z</time>
      </trkpt>
      <trkpt lat="46.29766" lon="-0.50186">
        <ele>71</ele>
        <time>2012-01-10T13:50:27Z</time>
      </trkpt>
      <trkpt lat="46.29766" lon="-0.50183">
        <ele>71</ele>
        <time>2012-01-10T13:50:32Z</time>
      </trkpt>
      <trkpt lat="46.29764" lon="-0.50174">
        <ele>69</ele>
        <time>2012-01-10T13:50:37Z</time>
      </trkpt>
      <trkpt lat="46.29763" lon="-0.50164">
        <ele>69</ele>
        <time>2012-01-10T13:50:42Z</time>
      </trkpt>
      <trkpt lat="46.2976" lon="-0.5015">
        <ele>70</ele>
        <time>2012-01-10T13:50:47Z</time>
      </trkpt>
      <trkpt lat="46.29759" lon="-0.50146">
        <ele>69</ele>
        <time>2012-01-10T13:50:52Z</time>
      </trkpt>
      <trkpt lat="46.29758" lon="-0.50137">
        <ele>69</ele>
        <time>2012-01-10T13:50:57Z</time>
      </trkpt>
      <trkpt lat="46.29756" lon="-0.50129">
        <ele>69</ele>
        <time>2012-01-10T13:51:02Z</time>
      </trkpt>
      <trkpt lat="46.29753" lon="-0.50121">
        <ele>69</ele>
        <time>2012-01-10T13:51:07Z</time>
      </trkpt>
      <trkpt lat="46.29751" lon="-0.50113">
        <ele>71</ele>
        <time>2012-01-10T13:51:12Z</time>
      </trkpt>
      <trkpt lat="46.29749" lon="-0.50104">
        <ele>71</ele>
        <time>2012-01-10T13:51:17Z</time>
      </trkpt>
      <trkpt lat="46.29745" lon="-0.50098">
        <ele>71</ele>
        <time>2012-01-10T13:51:22Z</time>
      </trkpt>
      <trkpt lat="46.29742" lon="-0.50091">
        <ele>71</ele>
        <time>2012-01-10T13:51:27Z</time>
      </trkpt>
      <trkpt lat="46.29741" lon="-0.50087">
        <ele>71</ele>
        <time>2012-01-10T13:51:32Z</time>
      </trkpt>
      <trkpt lat="46.2974" lon="-0.50076">
        <ele>70</ele>
        <time>2012-01-10T13:51:37Z</time>
      </trkpt>
      <trkpt lat="46.29736" lon="-0.50063">
        <ele>71</ele>
        <time>2012-01-10T13:51:42Z</time>
      </trkpt>
      <trkpt lat="46.29734" lon="-0.50054">
        <ele>71</ele>
        <time>2012-01-10T13:51:47Z</time>
      </trkpt>
      <trkpt lat="46.29732" lon="-0.50052">
        <ele>71</ele>
        <time>2012-01-10T13:51:52Z</time>
      </trkpt>
      <trkpt lat="46.29728" lon="-0.5004">
        <ele>71</ele>
        <time>2012-01-10T13:51:57Z</time>
      </trkpt>
      <trkpt lat="46.29727" lon="-0.50033">
        <ele>70</ele>
        <time>2012-01-10T13:52:02Z</time>
      </trkpt>
      <trkpt lat="46.29727" lon="-0.50023">
        <ele>71</ele>
        <time>2012-01-10T13:52:07Z</time>
      </trkpt>
      <trkpt lat="46.29725" lon="-0.50016">
        <ele>72</ele>
        <time>2012-01-10T13:52:12Z</time>
      </trkpt>
      <trkpt lat="46.29722" lon="-0.5001">
        <ele>71</ele>
        <time>2012-01-10T13:52:17Z</time>
      </trkpt>
      <trkpt lat="46.29719" lon="-0.50001">
        <ele>71</ele>
        <time>2012-01-10T13:52:22Z</time>
      </trkpt>
      <trkpt lat="46.29713" lon="-0.49997">
        <ele>69</ele>
        <time>2012-01-10T13:52:27Z</time>
      </trkpt>
      <trkpt lat="46.29707" lon="-0.49999">
        <ele>67</ele>
        <time>2012-01-10T13:52:32Z</time>
      </trkpt>
      <trkpt lat="46.29704" lon="-0.50005">
        <ele>67</ele>
        <time>2012-01-10T13:52:37Z</time>
      </trkpt>
      <trkpt lat="46.29698" lon="-0.50005">
        <ele>68</ele>
        <time>2012-01-10T13:52:42Z</time>
      </trkpt>
      <trkpt lat="46.29693" lon="-0.50001">
        <ele>70</ele>
        <time>2012-01-10T13:52:47Z</time>
      </trkpt>
      <trkpt lat="46.29686" lon="-0.49996">
        <ele>69</ele>
        <time>2012-01-10T13:52:52Z</time>
      </trkpt>
      <trkpt lat="46.2968" lon="-0.49991">
        <ele>71</ele>
        <time>2012-01-10T13:52:57Z</time>
      </trkpt>
      <trkpt lat="46.29677" lon="-0.49987">
        <ele>72</ele>
        <time>2012-01-10T13:53:02Z</time>
      </trkpt>
      <trkpt lat="46.29676" lon="-0.4998">
        <ele>72</ele>
        <time>2012-01-10T13:53:07Z</time>
      </trkpt>
      <trkpt lat="46.29678" lon="-0.49972">
        <ele>72</ele>
        <time>2012-01-10T13:53:12Z</time>
      </trkpt>
      <trkpt lat="46.29676" lon="-0.49962">
        <ele>71</ele>
        <time>2012-01-10T13:53:17Z</time>
      </trkpt>
      <trkpt lat="46.29673" lon="-0.49957">
        <ele>71</ele>
        <time>2012-01-10T13:53:22Z</time>
      </trkpt>
      <trkpt lat="46.29675" lon="-0.49956">
        <ele>71</ele>
        <time>2012-01-10T13:53:27Z</time>
      </trkpt>
      <trkpt lat="46.29677" lon="-0.49953">
        <ele>71</ele>
        <time>2012-01-10T13:53:32Z</time>
      </trkpt>
      <trkpt lat="46.29682" lon="-0.49954">
        <ele>73</ele>
        <time>2012-01-10T13:53:37Z</time>
      </trkpt>
      <trkpt lat="46.2969" lon="-0.49952">
        <ele>73</ele>
        <time>2012-01-10T13:53:42Z</time>
      </trkpt>
      <trkpt lat="46.29696" lon="-0.49951">
        <ele>71</ele>
        <time>2012-01-10T13:53:47Z</time>
      </trkpt>
      <trkpt lat="46.29705" lon="-0.49952">
        <ele>72</ele>
        <time>2012-01-10T13:53:52Z</time>
      </trkpt>
      <trkpt lat="46.29711" lon="-0.49951">
        <ele>74</ele>
        <time>2012-01-10T13:53:57Z</time>
      </trkpt>
      <trkpt lat="46.29716" lon="-0.49948">
        <ele>76</ele>
        <time>2012-01-10T13:54:02Z</time>
      </trkpt>
      <trkpt lat="46.29719" lon="-0.49942">
        <ele>76</ele>
        <time>2012-01-10T13:54:07Z</time>
      </trkpt>
      <trkpt lat="46.2972" lon="-0.49935">
        <ele>71</ele>
        <time>2012-01-10T13:54:12Z</time>
      </trkpt>
      <trkpt lat="46.29722" lon="-0.49923">
        <ele>71</ele>
        <time>2012-01-10T13:54:17Z</time>
      </trkpt>
      <trkpt lat="46.29723" lon="-0.49921">
        <ele>71</ele>
        <time>2012-01-10T13:54:22Z</time>
      </trkpt>
      <trkpt lat="46.29723" lon="-0.49914">
        <ele>70</ele>
        <time>2012-01-10T13:54:27Z</time>
      </trkpt>
      <trkpt lat="46.29723" lon="-0.49904">
        <ele>70</ele>
        <time>2012-01-10T13:54:32Z</time>
      </trkpt>
      <trkpt lat="46.29724" lon="-0.49894">
        <ele>70</ele>
        <time>2012-01-10T13:54:37Z</time>
      </trkpt>
      <trkpt lat="46.29726" lon="-0.49885">
        <ele>71</ele>
        <time>2012-01-10T13:54:42Z</time>
      </trkpt>
      <trkpt lat="46.29727" lon="-0.49876">
        <ele>72</ele>
        <time>2012-01-10T13:54:47Z</time>
      </trkpt>
      <trkpt lat="46.29727" lon="-0.49868">
        <ele>70</ele>
        <time>2012-01-10T13:54:52Z</time>
      </trkpt>
      <trkpt lat="46.29729" lon="-0.49861">
        <ele>69</ele>
        <time>2012-01-10T13:54:57Z</time>
      </trkpt>
      <trkpt lat="46.29729" lon="-0.49854">
        <ele>68</ele>
        <time>2012-01-10T13:55:02Z</time>
      </trkpt>
      <trkpt lat="46.2973" lon="-0.4985">
        <ele>65</ele>
        <time>2012-01-10T13:55:07Z</time>
      </trkpt>
      <trkpt lat="46.29729" lon="-0.49842">
        <ele>65</ele>
        <time>2012-01-10T13:55:12Z</time>
      </trkpt>
      <trkpt lat="46.29727" lon="-0.49835">
        <ele>65</ele>
        <time>2012-01-10T13:55:17Z</time>
      </trkpt>
      <trkpt lat="46.29725" lon="-0.49826">
        <ele>65</ele>
        <time>2012-01-10T13:55:22Z</time>
      </trkpt>
      <trkpt lat="46.29722" lon="-0.49818">
        <ele>65</ele>
        <time>2012-01-10T13:55:27Z</time>
      </trkpt>
      <trkpt lat="46.2972" lon="-0.49807">
        <ele>66</ele>
        <time>2012-01-10T13:55:32Z</time>
      </trkpt>
      <trkpt lat="46.29718" lon="-0.498">
        <ele>66</ele>
        <time>2012-01-10T13:55:37Z</time>
      </trkpt>
      <trkpt lat="46.29716" lon="-0.49791">
        <ele>67</ele>
        <time>2012-01-10T13:55:42Z</time>
      </trkpt>
      <trkpt lat="46.29713" lon="-0.49779">
        <ele>69</ele>
        <time>2012-01-10T13:55:47Z</time>
      </trkpt>
      <trkpt lat="46.29711" lon="-0.49776">
        <ele>69</ele>
        <time>2012-01-10T13:55:52Z</time>
      </trkpt>
      <trkpt lat="46.29711" lon="-0.49769">
        <ele>68</ele>
        <time>2012-01-10T13:55:57Z</time>
      </trkpt>
      <trkpt lat="46.29709" lon="-0.49768">
        <ele>68</ele>
        <time>2012-01-10T13:56:02Z</time>
      </trkpt>
      <trkpt lat="46.29706" lon="-0.49758">
        <ele>67</ele>
        <time>2012-01-10T13:56:07Z</time>
      </trkpt>
      <trkpt lat="46.29705" lon="-0.49745">
        <ele>67</ele>
        <time>2012-01-10T13:56:12Z</time>
      </trkpt>
      <trkpt lat="46.29703" lon="-0.49735">
        <ele>68</ele>
        <time>2012-01-10T13:56:17Z</time>
      </trkpt>
      <trkpt lat="46.29701" lon="-0.49724">
        <ele>68</ele>
        <time>2012-01-10T13:56:22Z</time>
      </trkpt>
      <trkpt lat="46.29701" lon="-0.49717">
        <ele>66</ele>
        <time>2012-01-10T13:56:27Z</time>
      </trkpt>
      <trkpt lat="46.29701" lon="-0.49711">
        <ele>68</ele>
        <time>2012-01-10T13:56:32Z</time>
      </trkpt>
      <trkpt lat="46.29706" lon="-0.49705">
        <ele>70</ele>
        <time>2012-01-10T13:56:37Z</time>
      </trkpt>
      <trkpt lat="46.29711" lon="-0.49702">
        <ele>69</ele>
        <time>2012-01-10T13:56:42Z</time>
      </trkpt>
      <trkpt lat="46.29715" lon="-0.49697">
        <ele>68</ele>
        <time>2012-01-10T13:56:47Z</time>
      </trkpt>
      <trkpt lat="46.29717" lon="-0.49691">
        <ele>67</ele>
        <time>2012-01-10T13:56:52Z</time>
      </trkpt>
      <trkpt lat="46.2972" lon="-0.49684">
        <ele>66</ele>
        <time>2012-01-10T13:56:57Z</time>
      </trkpt>
      <trkpt lat="46.29721" lon="-0.49677">
        <ele>64</ele>
        <time>2012-01-10T13:57:02Z</time>
      </trkpt>
      <trkpt lat="46.29724" lon="-0.49669">
        <ele>63</ele>
        <time>2012-01-10T13:57:07Z</time>
      </trkpt>
      <trkpt lat="46.29726" lon="-0.49659">
        <ele>63</ele>
        <time>2012-01-10T13:57:12Z</time>
      </trkpt>
      <trkpt lat="46.29729" lon="-0.49653">
        <ele>63</ele>
        <time>2012-01-10T13:57:17Z</time>
      </trkpt>
      <trkpt lat="46.29729" lon="-0.49644">
        <ele>63</ele>
        <time>2012-01-10T13:57:22Z</time>
      </trkpt>
      <trkpt lat="46.2973" lon="-0.49633">
        <ele>63</ele>
        <time>2012-01-10T13:57:27Z</time>
      </trkpt>
      <trkpt lat="46.29732" lon="-0.49627">
        <ele>63</ele>
        <time>2012-01-10T13:57:32Z</time>
      </trkpt>
      <trkpt lat="46.29735" lon="-0.49618">
        <ele>63</ele>
        <time>2012-01-10T13:57:37Z</time>
      </trkpt>
      <trkpt lat="46.29734" lon="-0.49603">
        <ele>67</ele>
        <time>2012-01-10T13:57:42Z</time>
      </trkpt>
      <trkpt lat="46.29737" lon="-0.49595">
        <ele>68</ele>
        <time>2012-01-10T13:57:47Z</time>
      </trkpt>
      <trkpt lat="46.29739" lon="-0.49585">
        <ele>68</ele>
        <time>2012-01-10T13:57:52Z</time>
      </trkpt>
      <trkpt lat="46.29742" lon="-0.49581">
        <ele>67</ele>
        <time>2012-01-10T13:57:57Z</time>
      </trkpt>
      <trkpt lat="46.29745" lon="-0.49576">
        <ele>67</ele>
        <time>2012-01-10T13:58:02Z</time>
      </trkpt>
      <trkpt lat="46.29748" lon="-0.49573">
        <ele>62</ele>
        <time>2012-01-10T13:58:07Z</time>
      </trkpt>
      <trkpt lat="46.29752" lon="-0.49572">
        <ele>62</ele>
        <time>2012-01-10T13:58:12Z</time>
      </trkpt>
      <trkpt lat="46.29755" lon="-0.49573">
        <ele>63</ele>
        <time>2012-01-10T13:58:17Z</time>
      </trkpt>
      <trkpt lat="46.29757" lon="-0.49573">
        <ele>63</ele>
        <time>2012-01-10T13:58:22Z</time>
      </trkpt>
      <trkpt lat="46.29759" lon="-0.49576">
        <ele>64</ele>
        <time>2012-01-10T13:58:27Z</time>
      </trkpt>
      <trkpt lat="46.29767" lon="-0.49577">
        <ele>64</ele>
        <time>2012-01-10T13:58:32Z</time>
      </trkpt>
      <trkpt lat="46.29774" lon="-0.49582">
        <ele>66</ele>
        <time>2012-01-10T13:58:37Z</time>
      </trkpt>
      <trkpt lat="46.29781" lon="-0.49579">
        <ele>66</ele>
        <time>2012-01-10T13:58:42Z</time>
      </trkpt>
      <trkpt lat="46.29786" lon="-0.49572">
        <ele>63</ele>
        <time>2012-01-10T13:58:47Z</time>
      </trkpt>
      <trkpt lat="46.29789" lon="-0.49565">
        <ele>62</ele>
        <time>2012-01-10T13:58:52Z</time>
      </trkpt>
      <trkpt lat="46.29791" lon="-0.49561">
        <ele>61</ele>
        <time>2012-01-10T13:58:57Z</time>
      </trkpt>
      <trkpt lat="46.29795" lon="-0.49553">
        <ele>62</ele>
        <time>2012-01-10T13:59:02Z</time>
      </trkpt>
      <trkpt lat="46.29797" lon="-0.49548">
        <ele>62</ele>
        <time>2012-01-10T13:59:07Z</time>
      </trkpt>
      <trkpt lat="46.29801" lon="-0.49543">
        <ele>64</ele>
        <time>2012-01-10T13:59:12Z</time>
      </trkpt>
      <trkpt lat="46.29808" lon="-0.49542">
        <ele>65</ele>
        <time>2012-01-10T13:59:17Z</time>
      </trkpt>
      <trkpt lat="46.29812" lon="-0.49538">
        <ele>63</ele>
        <time>2012-01-10T13:59:22Z</time>
      </trkpt>
      <trkpt lat="46.29819" lon="-0.49536">
        <ele>61</ele>
        <time>2012-01-10T13:59:27Z</time>
      </trkpt>
      <trkpt lat="46.29824" lon="-0.49534">
        <ele>61</ele>
        <time>2012-01-10T13:59:32Z</time>
      </trkpt>
      <trkpt lat="46.2983" lon="-0.49533">
        <ele>61</ele>
        <time>2012-01-10T13:59:37Z</time>
      </trkpt>
      <trkpt lat="46.29833" lon="-0.4953">
        <ele>60</ele>
        <time>2012-01-10T13:59:42Z</time>
      </trkpt>
      <trkpt lat="46.29833" lon="-0.49529">
        <ele>60</ele>
        <time>2012-01-10T13:59:47Z</time>
      </trkpt>
      <trkpt lat="46.29833" lon="-0.49529">
        <ele>60</ele>
        <time>2012-01-10T13:59:52Z</time>
      </trkpt>
      <trkpt lat="46.29834" lon="-0.4953">
        <ele>59</ele>
        <time>2012-01-10T13:59:57Z</time>
      </trkpt>
      <trkpt lat="46.2984" lon="-0.49529">
        <ele>60</ele>
        <time>2012-01-10T14:00:02Z</time>
      </trkpt>
      <trkpt lat="46.29844" lon="-0.49527">
        <ele>62</ele>
        <time>2012-01-10T14:00:07Z</time>
      </trkpt>
      <trkpt lat="46.29851" lon="-0.49517">
        <ele>62</ele>
        <time>2012-01-10T14:00:12Z</time>
      </trkpt>
      <trkpt lat="46.2985" lon="-0.4951">
        <ele>63</ele>
        <time>2012-01-10T14:00:17Z</time>
      </trkpt>
      <trkpt lat="46.29848" lon="-0.49504">
        <ele>62</ele>
        <time>2012-01-10T14:00:22Z</time>
      </trkpt>
      <trkpt lat="46.29847" lon="-0.49497">
        <ele>61</ele>
        <time>2012-01-10T14:00:27Z</time>
      </trkpt>
      <trkpt lat="46.29846" lon="-0.49488">
        <ele>55</ele>
        <time>2012-01-10T14:00:32Z</time>
      </trkpt>
      <trkpt lat="46.29845" lon="-0.49478">
        <ele>54</ele>
        <time>2012-01-10T14:00:37Z</time>
      </trkpt>
      <trkpt lat="46.29843" lon="-0.49467">
        <ele>53</ele>
        <time>2012-01-10T14:00:42Z</time>
      </trkpt>
      <trkpt lat="46.2984" lon="-0.49458">
        <ele>53</ele>
        <time>2012-01-10T14:00:47Z</time>
      </trkpt>
      <trkpt lat="46.29842" lon="-0.4945">
        <ele>55</ele>
        <time>2012-01-10T14:00:52Z</time>
      </trkpt>
      <trkpt lat="46.29849" lon="-0.49449">
        <ele>55</ele>
        <time>2012-01-10T14:00:57Z</time>
      </trkpt>
      <trkpt lat="46.29854" lon="-0.49447">
        <ele>55</ele>
        <time>2012-01-10T14:01:02Z</time>
      </trkpt>
      <trkpt lat="46.29859" lon="-0.49441">
        <ele>57</ele>
        <time>2012-01-10T14:01:07Z</time>
      </trkpt>
      <trkpt lat="46.2986" lon="-0.49432">
        <ele>57</ele>
        <time>2012-01-10T14:01:12Z</time>
      </trkpt>
      <trkpt lat="46.29861" lon="-0.49421">
        <ele>58</ele>
        <time>2012-01-10T14:01:17Z</time>
      </trkpt>
      <trkpt lat="46.29863" lon="-0.49414">
        <ele>57</ele>
        <time>2012-01-10T14:01:22Z</time>
      </trkpt>
      <trkpt lat="46.29867" lon="-0.4941">
        <ele>59</ele>
        <time>2012-01-10T14:01:27Z</time>
      </trkpt>
      <trkpt lat="46.29871" lon="-0.49408">
        <ele>60</ele>
        <time>2012-01-10T14:01:32Z</time>
      </trkpt>
      <trkpt lat="46.29876" lon="-0.49404">
        <ele>61</ele>
        <time>2012-01-10T14:01:37Z</time>
      </trkpt>
      <trkpt lat="46.29877" lon="-0.494">
        <ele>59</ele>
        <time>2012-01-10T14:01:42Z</time>
      </trkpt>
      <trkpt lat="46.2988" lon="-0.49397">
        <ele>58</ele>
        <time>2012-01-10T14:01:47Z</time>
      </trkpt>
      <trkpt lat="46.29882" lon="-0.49393">
        <ele>57</ele>
        <time>2012-01-10T14:01:52Z</time>
      </trkpt>
      <trkpt lat="46.29884" lon="-0.49385">
        <ele>57</ele>
        <time>2012-01-10T14:01:57Z</time>
      </trkpt>
      <trkpt lat="46.29887" lon="-0.49381">
        <ele>56</ele>
        <time>2012-01-10T14:02:02Z</time>
      </trkpt>
      <trkpt lat="46.2989" lon="-0.49373">
        <ele>55</ele>
        <time>2012-01-10T14:02:07Z</time>
      </trkpt>
      <trkpt lat="46.29893" lon="-0.49364">
        <ele>55</ele>
        <time>2012-01-10T14:02:12Z</time>
      </trkpt>
      <trkpt lat="46.29897" lon="-0.49356">
        <ele>58</ele>
        <time>2012-01-10T14:02:17Z</time>
      </trkpt>
      <trkpt lat="46.29902" lon="-0.49352">
        <ele>58</ele>
        <time>2012-01-10T14:02:22Z</time>
      </trkpt>
      <trkpt lat="46.29905" lon="-0.49347">
        <ele>60</ele>
        <time>2012-01-10T14:02:27Z</time>
      </trkpt>
      <trkpt lat="46.29911" lon="-0.49345">
        <ele>61</ele>
        <time>2012-01-10T14:02:32Z</time>
      </trkpt>
      <trkpt lat="46.29917" lon="-0.49341">
        <ele>63</ele>
        <time>2012-01-10T14:02:37Z</time>
      </trkpt>
      <trkpt lat="46.2992" lon="-0.49339">
        <ele>66</ele>
        <time>2012-01-10T14:02:42Z</time>
      </trkpt>
      <trkpt lat="46.29927" lon="-0.49333">
        <ele>67</ele>
        <time>2012-01-10T14:02:47Z</time>
      </trkpt>
      <trkpt lat="46.29931" lon="-0.49331">
        <ele>68</ele>
        <time>2012-01-10T14:02:52Z</time>
      </trkpt>
      <trkpt lat="46.29934" lon="-0.49329">
        <ele>66</ele>
        <time>2012-01-10T14:02:57Z</time>
      </trkpt>
      <trkpt lat="46.2994" lon="-0.49325">
        <ele>65</ele>
        <time>2012-01-10T14:03:02Z</time>
      </trkpt>
      <trkpt lat="46.29943" lon="-0.49324">
        <ele>66</ele>
        <time>2012-01-10T14:03:07Z</time>
      </trkpt>
      <trkpt lat="46.29947" lon="-0.49323">
        <ele>67</ele>
        <time>2012-01-10T14:03:12Z</time>
      </trkpt>
      <trkpt lat="46.29951" lon="-0.49323">
        <ele>67</ele>
        <time>2012-01-10T14:03:17Z</time>
      </trkpt>
      <trkpt lat="46.29959" lon="-0.49319">
        <ele>67</ele>
        <time>2012-01-10T14:03:22Z</time>
      </trkpt>
      <trkpt lat="46.29967" lon="-0.49317">
        <ele>68</ele>
        <time>2012-01-10T14:03:27Z</time>
      </trkpt>
      <trkpt lat="46.29973" lon="-0.49313">
        <ele>67</ele>
        <time>2012-01-10T14:03:32Z</time>
      </trkpt>
      <trkpt lat="46.29979" lon="-0.4931">
        <ele>63</ele>
        <time>2012-01-10T14:03:37Z</time>
      </trkpt>
      <trkpt lat="46.29984" lon="-0.49307">
        <ele>61</ele>
        <time>2012-01-10T14:03:42Z</time>
      </trkpt>
      <trkpt lat="46.29988" lon="-0.49304">
        <ele>61</ele>
        <time>2012-01-10T14:03:47Z</time>
      </trkpt>
      <trkpt lat="46.29993" lon="-0.49304">
        <ele>63</ele>
        <time>2012-01-10T14:03:52Z</time>
      </trkpt>
      <trkpt lat="46.3" lon="-0.493">
        <ele>63</ele>
        <time>2012-01-10T14:03:57Z</time>
      </trkpt>
      <trkpt lat="46.30006" lon="-0.49295">
        <ele>62</ele>
        <time>2012-01-10T14:04:02Z</time>
      </trkpt>
      <trkpt lat="46.30011" lon="-0.49293">
        <ele>60</ele>
        <time>2012-01-10T14:04:07Z</time>
      </trkpt>
      <trkpt lat="46.30015" lon="-0.49292">
        <ele>59</ele>
        <time>2012-01-10T14:04:12Z</time>
      </trkpt>
      <trkpt lat="46.30021" lon="-0.49291">
        <ele>56</ele>
        <time>2012-01-10T14:04:17Z</time>
      </trkpt>
      <trkpt lat="46.30024" lon="-0.49291">
        <ele>56</ele>
        <time>2012-01-10T14:04:22Z</time>
      </trkpt>
      <trkpt lat="46.30032" lon="-0.49291">
        <ele>59</ele>
        <time>2012-01-10T14:04:27Z</time>
      </trkpt>
      <trkpt lat="46.3004" lon="-0.4929">
        <ele>59</ele>
        <time>2012-01-10T14:04:32Z</time>
      </trkpt>
      <trkpt lat="46.30047" lon="-0.49289">
        <ele>57</ele>
        <time>2012-01-10T14:04:37Z</time>
      </trkpt>
      <trkpt lat="46.30053" lon="-0.49287">
        <ele>56</ele>
        <time>2012-01-10T14:04:42Z</time>
      </trkpt>
      <trkpt lat="46.3006" lon="-0.49283">
        <ele>56</ele>
        <time>2012-01-10T14:04:47Z</time>
      </trkpt>
      <trkpt lat="46.30064" lon="-0.49282">
        <ele>64</ele>
        <time>2012-01-10T14:04:52Z</time>
      </trkpt>
      <trkpt lat="46.30068" lon="-0.49278">
        <ele>64</ele>
        <time>2012-01-10T14:04:57Z</time>
      </trkpt>
      <trkpt lat="46.30075" lon="-0.49269">
        <ele>59</ele>
        <time>2012-01-10T14:05:02Z</time>
      </trkpt>
      <trkpt lat="46.30079" lon="-0.49259">
        <ele>53</ele>
        <time>2012-01-10T14:05:07Z</time>
      </trkpt>
      <trkpt lat="46.30081" lon="-0.49251">
        <ele>48</ele>
        <time>2012-01-10T14:05:12Z</time>
      </trkpt>
      <trkpt lat="46.30084" lon="-0.49239">
        <ele>47</ele>
        <time>2012-01-10T14:05:17Z</time>
      </trkpt>
      <trkpt lat="46.30087" lon="-0.4923">
        <ele>47</ele>
        <time>2012-01-10T14:05:22Z</time>
      </trkpt>
      <trkpt lat="46.30088" lon="-0.4922">
        <ele>48</ele>
        <time>2012-01-10T14:05:27Z</time>
      </trkpt>
      <trkpt lat="46.30089" lon="-0.49212">
        <ele>49</ele>
        <time>2012-01-10T14:05:32Z</time>
      </trkpt>
      <trkpt lat="46.30092" lon="-0.492">
        <ele>49</ele>
        <time>2012-01-10T14:05:37Z</time>
      </trkpt>
      <trkpt lat="46.30092" lon="-0.49198">
        <ele>49</ele>
        <time>2012-01-10T14:05:42Z</time>
      </trkpt>
      <trkpt lat="46.30094" lon="-0.49186">
        <ele>48</ele>
        <time>2012-01-10T14:05:47Z</time>
      </trkpt>
      <trkpt lat="46.30095" lon="-0.49176">
        <ele>49</ele>
        <time>2012-01-10T14:05:52Z</time>
      </trkpt>
      <trkpt lat="46.30097" lon="-0.49169">
        <ele>48</ele>
        <time>2012-01-10T14:05:57Z</time>
      </trkpt>
      <trkpt lat="46.30099" lon="-0.49156">
        <ele>50</ele>
        <time>2012-01-10T14:06:02Z</time>
      </trkpt>
      <trkpt lat="46.30103" lon="-0.49151">
        <ele>49</ele>
        <time>2012-01-10T14:06:07Z</time>
      </trkpt>
      <trkpt lat="46.30107" lon="-0.49151">
        <ele>47</ele>
        <time>2012-01-10T14:06:12Z</time>
      </trkpt>
      <trkpt lat="46.30111" lon="-0.4915">
        <ele>47</ele>
        <time>2012-01-10T14:06:17Z</time>
      </trkpt>
      <trkpt lat="46.30113" lon="-0.49149">
        <ele>47</ele>
        <time>2012-01-10T14:06:22Z</time>
      </trkpt>
      <trkpt lat="46.30118" lon="-0.49145">
        <ele>48</ele>
        <time>2012-01-10T14:06:27Z</time>
      </trkpt>
      <trkpt lat="46.30124" lon="-0.49138">
        <ele>48</ele>
        <time>2012-01-10T14:06:32Z</time>
      </trkpt>
      <trkpt lat="46.30128" lon="-0.49128">
        <ele>46</ele>
        <time>2012-01-10T14:06:37Z</time>
      </trkpt>
      <trkpt lat="46.30132" lon="-0.49127">
        <ele>47</ele>
        <time>2012-01-10T14:06:42Z</time>
      </trkpt>
      <trkpt lat="46.30138" lon="-0.49129">
        <ele>47</ele>
        <time>2012-01-10T14:06:47Z</time>
      </trkpt>
      <trkpt lat="46.30141" lon="-0.49135">
        <ele>47</ele>
        <time>2012-01-10T14:06:52Z</time>
      </trkpt>
      <trkpt lat="46.30148" lon="-0.49135">
        <ele>47</ele>
        <time>2012-01-10T14:06:57Z</time>
      </trkpt>
      <trkpt lat="46.30152" lon="-0.49138">
        <ele>46</ele>
        <time>2012-01-10T14:07:02Z</time>
      </trkpt>
      <trkpt lat="46.30156" lon="-0.49144">
        <ele>50</ele>
        <time>2012-01-10T14:07:07Z</time>
      </trkpt>
      <trkpt lat="46.30162" lon="-0.49148">
        <ele>52</ele>
        <time>2012-01-10T14:07:12Z</time>
      </trkpt>
      <trkpt lat="46.30168" lon="-0.49156">
        <ele>55</ele>
        <time>2012-01-10T14:07:17Z</time>
      </trkpt>
      <trkpt lat="46.30173" lon="-0.49164">
        <ele>57</ele>
        <time>2012-01-10T14:07:22Z</time>
      </trkpt>
      <trkpt lat="46.30179" lon="-0.49168">
        <ele>59</ele>
        <time>2012-01-10T14:07:27Z</time>
      </trkpt>
      <trkpt lat="46.30189" lon="-0.49169">
        <ele>61</ele>
        <time>2012-01-10T14:07:32Z</time>
      </trkpt>
      <trkpt lat="46.30189" lon="-0.4917">
        <ele>59</ele>
        <time>2012-01-10T14:07:37Z</time>
      </trkpt>
      <trkpt lat="46.30197" lon="-0.49164">
        <ele>56</ele>
        <time>2012-01-10T14:07:42Z</time>
      </trkpt>
      <trkpt lat="46.30204" lon="-0.49156">
        <ele>55</ele>
        <time>2012-01-10T14:07:47Z</time>
      </trkpt>
      <trkpt lat="46.3021" lon="-0.49148">
        <ele>54</ele>
        <time>2012-01-10T14:07:52Z</time>
      </trkpt>
      <trkpt lat="46.30214" lon="-0.49138">
        <ele>50</ele>
        <time>2012-01-10T14:07:57Z</time>
      </trkpt>
      <trkpt lat="46.30208" lon="-0.49135">
        <ele>47</ele>
        <time>2012-01-10T14:08:02Z</time>
      </trkpt>
      <trkpt lat="46.30201" lon="-0.49134">
        <ele>47</ele>
        <time>2012-01-10T14:08:07Z</time>
      </trkpt>
      <trkpt lat="46.30193" lon="-0.49129">
        <ele>46</ele>
        <time>2012-01-10T14:08:12Z</time>
      </trkpt>
      <trkpt lat="46.30192" lon="-0.49126">
        <ele>43</ele>
        <time>2012-01-10T14:08:17Z</time>
      </trkpt>
      <trkpt lat="46.30192" lon="-0.49118">
        <ele>43</ele>
        <time>2012-01-10T14:08:22Z</time>
      </trkpt>
      <trkpt lat="46.30191" lon="-0.49114">
        <ele>42</ele>
        <time>2012-01-10T14:08:27Z</time>
      </trkpt>
      <trkpt lat="46.30189" lon="-0.49103">
        <ele>43</ele>
        <time>2012-01-10T14:08:32Z</time>
      </trkpt>
      <trkpt lat="46.30187" lon="-0.49095">
        <ele>45</ele>
        <time>2012-01-10T14:08:37Z</time>
      </trkpt>
      <trkpt lat="46.30184" lon="-0.49088">
        <ele>44</ele>
        <time>2012-01-10T14:08:42Z</time>
      </trkpt>
      <trkpt lat="46.30181" lon="-0.49079">
        <ele>46</ele>
        <time>2012-01-10T14:08:47Z</time>
      </trkpt>
      <trkpt lat="46.30178" lon="-0.4907">
        <ele>45</ele>
        <time>2012-01-10T14:08:52Z</time>
      </trkpt>
      <trkpt lat="46.30175" lon="-0.49064">
        <ele>45</ele>
        <time>2012-01-10T14:08:57Z</time>
      </trkpt>
      <trkpt lat="46.30171" lon="-0.49057">
        <ele>44</ele>
        <time>2012-01-10T14:09:02Z</time>
      </trkpt>
      <trkpt lat="46.30169" lon="-0.4905">
        <ele>45</ele>
        <time>2012-01-10T14:09:07Z</time>
      </trkpt>
      <trkpt lat="46.30166" lon="-0.49045">
        <ele>44</ele>
        <time>2012-01-10T14:09:12Z</time>
      </trkpt>
      <trkpt lat="46.30164" lon="-0.49036">
        <ele>45</ele>
        <time>2012-01-10T14:09:17Z</time>
      </trkpt>
      <trkpt lat="46.30161" lon="-0.49027">
        <ele>45</ele>
        <time>2012-01-10T14:09:22Z</time>
      </trkpt>
      <trkpt lat="46.30157" lon="-0.49018">
        <ele>46</ele>
        <time>2012-01-10T14:09:27Z</time>
      </trkpt>
      <trkpt lat="46.30155" lon="-0.49011">
        <ele>46</ele>
        <time>2012-01-10T14:09:32Z</time>
      </trkpt>
      <trkpt lat="46.30153" lon="-0.49006">
        <ele>44</ele>
        <time>2012-01-10T14:09:37Z</time>
      </trkpt>
      <trkpt lat="46.3015" lon="-0.48997">
        <ele>43</ele>
        <time>2012-01-10T14:09:42Z</time>
      </trkpt>
      <trkpt lat="46.30149" lon="-0.48991">
        <ele>43</ele>
        <time>2012-01-10T14:09:47Z</time>
      </trkpt>
      <trkpt lat="46.30147" lon="-0.48984">
        <ele>41</ele>
        <time>2012-01-10T14:09:52Z</time>
      </trkpt>
      <trkpt lat="46.30143" lon="-0.48975">
        <ele>41</ele>
        <time>2012-01-10T14:09:57Z</time>
      </trkpt>
      <trkpt lat="46.30142" lon="-0.48967">
        <ele>41</ele>
        <time>2012-01-10T14:10:02Z</time>
      </trkpt>
      <trkpt lat="46.3014" lon="-0.48957">
        <ele>42</ele>
        <time>2012-01-10T14:10:07Z</time>
      </trkpt>
      <trkpt lat="46.30136" lon="-0.48949">
        <ele>42</ele>
        <time>2012-01-10T14:10:12Z</time>
      </trkpt>
      <trkpt lat="46.30134" lon="-0.48939">
        <ele>43</ele>
        <time>2012-01-10T14:10:17Z</time>
      </trkpt>
      <trkpt lat="46.30132" lon="-0.48932">
        <ele>43</ele>
        <time>2012-01-10T14:10:22Z</time>
      </trkpt>
      <trkpt lat="46.30131" lon="-0.48926">
        <ele>43</ele>
        <time>2012-01-10T14:10:27Z</time>
      </trkpt>
      <trkpt lat="46.30129" lon="-0.48919">
        <ele>44</ele>
        <time>2012-01-10T14:10:32Z</time>
      </trkpt>
      <trkpt lat="46.30126" lon="-0.4891">
        <ele>45</ele>
        <time>2012-01-10T14:10:37Z</time>
      </trkpt>
      <trkpt lat="46.30122" lon="-0.48901">
        <ele>45</ele>
        <time>2012-01-10T14:10:42Z</time>
      </trkpt>
      <trkpt lat="46.3012" lon="-0.48893">
        <ele>45</ele>
        <time>2012-01-10T14:10:47Z</time>
      </trkpt>
      <trkpt lat="46.30116" lon="-0.48888">
        <ele>45</ele>
        <time>2012-01-10T14:10:52Z</time>
      </trkpt>
      <trkpt lat="46.30112" lon="-0.48882">
        <ele>45</ele>
        <time>2012-01-10T14:10:57Z</time>
      </trkpt>
      <trkpt lat="46.30111" lon="-0.48877">
        <ele>45</ele>
        <time>2012-01-10T14:11:02Z</time>
      </trkpt>
      <trkpt lat="46.30111" lon="-0.48868">
        <ele>44</ele>
        <time>2012-01-10T14:11:07Z</time>
      </trkpt>
      <trkpt lat="46.3011" lon="-0.48859">
        <ele>44</ele>
        <time>2012-01-10T14:11:12Z</time>
      </trkpt>
      <trkpt lat="46.3011" lon="-0.48859">
        <ele>42</ele>
        <time>2012-01-10T14:11:17Z</time>
      </trkpt>
      <trkpt lat="46.30109" lon="-0.48851">
        <ele>42</ele>
        <time>2012-01-10T14:11:22Z</time>
      </trkpt>
      <trkpt lat="46.30106" lon="-0.48841">
        <ele>43</ele>
        <time>2012-01-10T14:11:27Z</time>
      </trkpt>
      <trkpt lat="46.30104" lon="-0.48834">
        <ele>42</ele>
        <time>2012-01-10T14:11:32Z</time>
      </trkpt>
      <trkpt lat="46.30103" lon="-0.4883">
        <ele>42</ele>
        <time>2012-01-10T14:11:37Z</time>
      </trkpt>
      <trkpt lat="46.30101" lon="-0.48819">
        <ele>42</ele>
        <time>2012-01-10T14:11:42Z</time>
      </trkpt>
      <trkpt lat="46.30098" lon="-0.48807">
        <ele>43</ele>
        <time>2012-01-10T14:11:47Z</time>
      </trkpt>
      <trkpt lat="46.30097" lon="-0.48798">
        <ele>44</ele>
        <time>2012-01-10T14:11:52Z</time>
      </trkpt>
      <trkpt lat="46.30095" lon="-0.48794">
        <ele>43</ele>
        <time>2012-01-10T14:11:57Z</time>
      </trkpt>
      <trkpt lat="46.30093" lon="-0.48785">
        <ele>43</ele>
        <time>2012-01-10T14:12:02Z</time>
      </trkpt>
      <trkpt lat="46.30091" lon="-0.48777">
        <ele>43</ele>
        <time>2012-01-10T14:12:07Z</time>
      </trkpt>
      <trkpt lat="46.30087" lon="-0.48774">
        <ele>42</ele>
        <time>2012-01-10T14:12:12Z</time>
      </trkpt>
      <trkpt lat="46.30083" lon="-0.48773">
        <ele>42</ele>
        <time>2012-01-10T14:12:17Z</time>
      </trkpt>
      <trkpt lat="46.30078" lon="-0.48773">
        <ele>41</ele>
        <time>2012-01-10T14:12:22Z</time>
      </trkpt>
      <trkpt lat="46.30072" lon="-0.48773">
        <ele>40</ele>
        <time>2012-01-10T14:12:27Z</time>
      </trkpt>
      <trkpt lat="46.30067" lon="-0.48773">
        <ele>39</ele>
        <time>2012-01-10T14:12:32Z</time>
      </trkpt>
      <trkpt lat="46.30062" lon="-0.48774">
        <ele>38</ele>
        <time>2012-01-10T14:12:37Z</time>
      </trkpt>
      <trkpt lat="46.30055" lon="-0.48776">
        <ele>38</ele>
        <time>2012-01-10T14:12:42Z</time>
      </trkpt>
      <trkpt lat="46.30048" lon="-0.48777">
        <ele>37</ele>
        <time>2012-01-10T14:12:47Z</time>
      </trkpt>
      <trkpt lat="46.30043" lon="-0.48779">
        <ele>38</ele>
        <time>2012-01-10T14:12:52Z</time>
      </trkpt>
      <trkpt lat="46.30037" lon="-0.48782">
        <ele>40</ele>
        <time>2012-01-10T14:12:57Z</time>
      </trkpt>
      <trkpt lat="46.30031" lon="-0.48783">
        <ele>41</ele>
        <time>2012-01-10T14:13:02Z</time>
      </trkpt>
      <trkpt lat="46.30027" lon="-0.48783">
        <ele>41</ele>
        <time>2012-01-10T14:13:07Z</time>
      </trkpt>
      <trkpt lat="46.30022" lon="-0.48783">
        <ele>43</ele>
        <time>2012-01-10T14:13:12Z</time>
      </trkpt>
      <trkpt lat="46.30016" lon="-0.48783">
        <ele>45</ele>
        <time>2012-01-10T14:13:17Z</time>
      </trkpt>
      <trkpt lat="46.3001" lon="-0.48783">
        <ele>48</ele>
        <time>2012-01-10T14:13:22Z</time>
      </trkpt>
      <trkpt lat="46.30006" lon="-0.48783">
        <ele>51</ele>
        <time>2012-01-10T14:13:27Z</time>
      </trkpt>
      <trkpt lat="46.3" lon="-0.48783">
        <ele>52</ele>
        <time>2012-01-10T14:13:32Z</time>
      </trkpt>
      <trkpt lat="46.29996" lon="-0.48784">
        <ele>55</ele>
        <time>2012-01-10T14:13:37Z</time>
      </trkpt>
      <trkpt lat="46.29989" lon="-0.48783">
        <ele>56</ele>
        <time>2012-01-10T14:13:42Z</time>
      </trkpt>
      <trkpt lat="46.29983" lon="-0.48779">
        <ele>56</ele>
        <time>2012-01-10T14:13:47Z</time>
      </trkpt>
      <trkpt lat="46.29977" lon="-0.48778">
        <ele>56</ele>
        <time>2012-01-10T14:13:52Z</time>
      </trkpt>
      <trkpt lat="46.29972" lon="-0.48773">
        <ele>56</ele>
        <time>2012-01-10T14:13:57Z</time>
      </trkpt>
      <trkpt lat="46.29968" lon="-0.48777">
        <ele>57</ele>
        <time>2012-01-10T14:14:02Z</time>
      </trkpt>
      <trkpt lat="46.29963" lon="-0.48778">
        <ele>59</ele>
        <time>2012-01-10T14:14:07Z</time>
      </trkpt>
      <trkpt lat="46.29957" lon="-0.48776">
        <ele>58</ele>
        <time>2012-01-10T14:14:12Z</time>
      </trkpt>
      <trkpt lat="46.29951" lon="-0.48773">
        <ele>60</ele>
        <time>2012-01-10T14:14:17Z</time>
      </trkpt>
      <trkpt lat="46.29946" lon="-0.48773">
        <ele>59</ele>
        <time>2012-01-10T14:14:22Z</time>
      </trkpt>
      <trkpt lat="46.2994" lon="-0.48773">
        <ele>59</ele>
        <time>2012-01-10T14:14:27Z</time>
      </trkpt>
      <trkpt lat="46.29934" lon="-0.48772">
        <ele>59</ele>
        <time>2012-01-10T14:14:32Z</time>
      </trkpt>
      <trkpt lat="46.29929" lon="-0.48774">
        <ele>59</ele>
        <time>2012-01-10T14:14:37Z</time>
      </trkpt>
      <trkpt lat="46.29922" lon="-0.48774">
        <ele>59</ele>
        <time>2012-01-10T14:14:42Z</time>
      </trkpt>
      <trkpt lat="46.29917" lon="-0.48773">
        <ele>59</ele>
        <time>2012-01-10T14:14:47Z</time>
      </trkpt>
      <trkpt lat="46.29912" lon="-0.48774">
        <ele>58</ele>
        <time>2012-01-10T14:14:52Z</time>
      </trkpt>
      <trkpt lat="46.29907" lon="-0.48774">
        <ele>57</ele>
        <time>2012-01-10T14:14:57Z</time>
      </trkpt>
      <trkpt lat="46.29901" lon="-0.48774">
        <ele>56</ele>
        <time>2012-01-10T14:15:02Z</time>
      </trkpt>
      <trkpt lat="46.29895" lon="-0.48773">
        <ele>56</ele>
        <time>2012-01-10T14:15:07Z</time>
      </trkpt>
      <trkpt lat="46.29889" lon="-0.48774">
        <ele>57</ele>
        <time>2012-01-10T14:15:12Z</time>
      </trkpt>
      <trkpt lat="46.29885" lon="-0.48775">
        <ele>57</ele>
        <time>2012-01-10T14:15:17Z</time>
      </trkpt>
      <trkpt lat="46.29877" lon="-0.48775">
        <ele>58</ele>
        <time>2012-01-10T14:15:22Z</time>
      </trkpt>
      <trkpt lat="46.29871" lon="-0.48777">
        <ele>59</ele>
        <time>2012-01-10T14:15:27Z</time>
      </trkpt>
      <trkpt lat="46.29866" lon="-0.48778">
        <ele>58</ele>
        <time>2012-01-10T14:15:32Z</time>
      </trkpt>
      <trkpt lat="46.2986" lon="-0.48781">
        <ele>60</ele>
        <time>2012-01-10T14:15:37Z</time>
      </trkpt>
      <trkpt lat="46.29853" lon="-0.48784">
        <ele>65</ele>
        <time>2012-01-10T14:15:42Z</time>
      </trkpt>
      <trkpt lat="46.29847" lon="-0.48788">
        <ele>64</ele>
        <time>2012-01-10T14:15:47Z</time>
      </trkpt>
      <trkpt lat="46.29843" lon="-0.48792">
        <ele>65</ele>
        <time>2012-01-10T14:15:52Z</time>
      </trkpt>
      <trkpt lat="46.29838" lon="-0.48796">
        <ele>65</ele>
        <time>2012-01-10T14:15:57Z</time>
      </trkpt>
      <trkpt lat="46.29832" lon="-0.48799">
        <ele>66</ele>
        <time>2012-01-10T14:16:02Z</time>
      </trkpt>
      <trkpt lat="46.29826" lon="-0.48805">
        <ele>70</ele>
        <time>2012-01-10T14:16:07Z</time>
      </trkpt>
      <trkpt lat="46.29822" lon="-0.48809">
        <ele>71</ele>
        <time>2012-01-10T14:16:12Z</time>
      </trkpt>
      <trkpt lat="46.29816" lon="-0.48812">
        <ele>71</ele>
        <time>2012-01-10T14:16:17Z</time>
      </trkpt>
      <trkpt lat="46.29813" lon="-0.48816">
        <ele>70</ele>
        <time>2012-01-10T14:16:22Z</time>
      </trkpt>
      <trkpt lat="46.29808" lon="-0.48819">
        <ele>70</ele>
        <time>2012-01-10T14:16:27Z</time>
      </trkpt>
      <trkpt lat="46.29803" lon="-0.48824">
        <ele>70</ele>
        <time>2012-01-10T14:16:32Z</time>
      </trkpt>
      <trkpt lat="46.29799" lon="-0.48826">
        <ele>69</ele>
        <time>2012-01-10T14:16:37Z</time>
      </trkpt>
      <trkpt lat="46.29794" lon="-0.48831">
        <ele>70</ele>
        <time>2012-01-10T14:16:42Z</time>
      </trkpt>
      <trkpt lat="46.29789" lon="-0.48834">
        <ele>71</ele>
        <time>2012-01-10T14:16:47Z</time>
      </trkpt>
      <trkpt lat="46.29785" lon="-0.48838">
        <ele>71</ele>
        <time>2012-01-10T14:16:52Z</time>
      </trkpt>
      <trkpt lat="46.2978" lon="-0.48841">
        <ele>71</ele>
        <time>2012-01-10T14:16:57Z</time>
      </trkpt>
      <trkpt lat="46.29774" lon="-0.48845">
        <ele>71</ele>
        <time>2012-01-10T14:17:02Z</time>
      </trkpt>
      <trkpt lat="46.2977" lon="-0.48847">
        <ele>71</ele>
        <time>2012-01-10T14:17:07Z</time>
      </trkpt>
      <trkpt lat="46.29764" lon="-0.48849">
        <ele>71</ele>
        <time>2012-01-10T14:17:12Z</time>
      </trkpt>
      <trkpt lat="46.2976" lon="-0.48852">
        <ele>70</ele>
        <time>2012-01-10T14:17:17Z</time>
      </trkpt>
      <trkpt lat="46.29756" lon="-0.48854">
        <ele>70</ele>
        <time>2012-01-10T14:17:22Z</time>
      </trkpt>
      <trkpt lat="46.29751" lon="-0.48856">
        <ele>70</ele>
        <time>2012-01-10T14:17:27Z</time>
      </trkpt>
      <trkpt lat="46.29745" lon="-0.48859">
        <ele>71</ele>
        <time>2012-01-10T14:17:32Z</time>
      </trkpt>
      <trkpt lat="46.29742" lon="-0.4886">
        <ele>71</ele>
        <time>2012-01-10T14:17:37Z</time>
      </trkpt>
      <trkpt lat="46.29742" lon="-0.48861">
        <ele>71</ele>
        <time>2012-01-10T14:17:42Z</time>
      </trkpt>
      <trkpt lat="46.29742" lon="-0.48861">
        <ele>70</ele>
        <time>2012-01-10T14:17:47Z</time>
      </trkpt>
      <trkpt lat="46.2974" lon="-0.48862">
        <ele>70</ele>
        <time>2012-01-10T14:17:52Z</time>
      </trkpt>
      <trkpt lat="46.29734" lon="-0.48863">
        <ele>70</ele>
        <time>2012-01-10T14:17:57Z</time>
      </trkpt>
      <trkpt lat="46.29728" lon="-0.48863">
        <ele>71</ele>
        <time>2012-01-10T14:18:02Z</time>
      </trkpt>
      <trkpt lat="46.29722" lon="-0.48863">
        <ele>69</ele>
        <time>2012-01-10T14:18:07Z</time>
      </trkpt>
      <trkpt lat="46.29717" lon="-0.48863">
        <ele>68</ele>
        <time>2012-01-10T14:18:12Z</time>
      </trkpt>
      <trkpt lat="46.29712" lon="-0.48863">
        <ele>68</ele>
        <time>2012-01-10T14:18:17Z</time>
      </trkpt>
      <trkpt lat="46.29705" lon="-0.48863">
        <ele>69</ele>
        <time>2012-01-10T14:18:22Z</time>
      </trkpt>
      <trkpt lat="46.29699" lon="-0.48863">
        <ele>69</ele>
        <time>2012-01-10T14:18:27Z</time>
      </trkpt>
      <trkpt lat="46.29693" lon="-0.48864">
        <ele>69</ele>
        <time>2012-01-10T14:18:32Z</time>
      </trkpt>
      <trkpt lat="46.29688" lon="-0.48867">
        <ele>69</ele>
        <time>2012-01-10T14:18:37Z</time>
      </trkpt>
      <trkpt lat="46.29684" lon="-0.48868">
        <ele>69</ele>
        <time>2012-01-10T14:18:42Z</time>
      </trkpt>
      <trkpt lat="46.29676" lon="-0.48869">
        <ele>69</ele>
        <time>2012-01-10T14:18:47Z</time>
      </trkpt>
      <trkpt lat="46.29671" lon="-0.48872">
        <ele>70</ele>
        <time>2012-01-10T14:18:52Z</time>
      </trkpt>
      <trkpt lat="46.29667" lon="-0.48874">
        <ele>70</ele>
        <time>2012-01-10T14:18:57Z</time>
      </trkpt>
      <trkpt lat="46.29661" lon="-0.48878">
        <ele>70</ele>
        <time>2012-01-10T14:19:02Z</time>
      </trkpt>
      <trkpt lat="46.29656" lon="-0.48881">
        <ele>71</ele>
        <time>2012-01-10T14:19:07Z</time>
      </trkpt>
      <trkpt lat="46.29656" lon="-0.48882">
        <ele>70</ele>
        <time>2012-01-10T14:19:12Z</time>
      </trkpt>
      <trkpt lat="46.29654" lon="-0.48883">
        <ele>69</ele>
        <time>2012-01-10T14:19:17Z</time>
      </trkpt>
      <trkpt lat="46.29651" lon="-0.48885">
        <ele>69</ele>
        <time>2012-01-10T14:19:22Z</time>
      </trkpt>
      <trkpt lat="46.2965" lon="-0.48885">
        <ele>70</ele>
        <time>2012-01-10T14:19:32Z</time>
      </trkpt>
      <trkpt lat="46.29647" lon="-0.48888">
        <ele>68</ele>
        <time>2012-01-10T14:19:37Z</time>
      </trkpt>
      <trkpt lat="46.2964" lon="-0.48893">
        <ele>69</ele>
        <time>2012-01-10T14:19:42Z</time>
      </trkpt>
      <trkpt lat="46.29635" lon="-0.48897">
        <ele>69</ele>
        <time>2012-01-10T14:19:47Z</time>
      </trkpt>
      <trkpt lat="46.29629" lon="-0.489">
        <ele>68</ele>
        <time>2012-01-10T14:19:52Z</time>
      </trkpt>
      <trkpt lat="46.29624" lon="-0.48903">
        <ele>69</ele>
        <time>2012-01-10T14:19:57Z</time>
      </trkpt>
      <trkpt lat="46.29619" lon="-0.48904">
        <ele>70</ele>
        <time>2012-01-10T14:20:02Z</time>
      </trkpt>
      <trkpt lat="46.29613" lon="-0.48906">
        <ele>70</ele>
        <time>2012-01-10T14:20:07Z</time>
      </trkpt>
      <trkpt lat="46.29607" lon="-0.48908">
        <ele>70</ele>
        <time>2012-01-10T14:20:12Z</time>
      </trkpt>
      <trkpt lat="46.29601" lon="-0.48911">
        <ele>71</ele>
        <time>2012-01-10T14:20:17Z</time>
      </trkpt>
      <trkpt lat="46.29596" lon="-0.48914">
        <ele>71</ele>
        <time>2012-01-10T14:20:22Z</time>
      </trkpt>
      <trkpt lat="46.2959" lon="-0.48914">
        <ele>73</ele>
        <time>2012-01-10T14:20:27Z</time>
      </trkpt>
      <trkpt lat="46.29585" lon="-0.48917">
        <ele>73</ele>
        <time>2012-01-10T14:20:32Z</time>
      </trkpt>
      <trkpt lat="46.29579" lon="-0.48919">
        <ele>74</ele>
        <time>2012-01-10T14:20:37Z</time>
      </trkpt>
      <trkpt lat="46.29573" lon="-0.4892">
        <ele>74</ele>
        <time>2012-01-10T14:20:42Z</time>
      </trkpt>
      <trkpt lat="46.29568" lon="-0.48922">
        <ele>74</ele>
        <time>2012-01-10T14:20:47Z</time>
      </trkpt>
      <trkpt lat="46.29562" lon="-0.48924">
        <ele>73</ele>
        <time>2012-01-10T14:20:52Z</time>
      </trkpt>
      <trkpt lat="46.29557" lon="-0.48926">
        <ele>74</ele>
        <time>2012-01-10T14:20:57Z</time>
      </trkpt>
      <trkpt lat="46.29551" lon="-0.48927">
        <ele>75</ele>
        <time>2012-01-10T14:21:02Z</time>
      </trkpt>
      <trkpt lat="46.29546" lon="-0.48927">
        <ele>75</ele>
        <time>2012-01-10T14:21:07Z</time>
      </trkpt>
      <trkpt lat="46.29541" lon="-0.48929">
        <ele>73</ele>
        <time>2012-01-10T14:21:12Z</time>
      </trkpt>
      <trkpt lat="46.29534" lon="-0.48929">
        <ele>73</ele>
        <time>2012-01-10T14:21:17Z</time>
      </trkpt>
      <trkpt lat="46.29529" lon="-0.4893">
        <ele>72</ele>
        <time>2012-01-10T14:21:22Z</time>
      </trkpt>
      <trkpt lat="46.29521" lon="-0.48929">
        <ele>71</ele>
        <time>2012-01-10T14:21:27Z</time>
      </trkpt>
      <trkpt lat="46.29515" lon="-0.48933">
        <ele>72</ele>
        <time>2012-01-10T14:21:32Z</time>
      </trkpt>
      <trkpt lat="46.2951" lon="-0.48935">
        <ele>71</ele>
        <time>2012-01-10T14:21:37Z</time>
      </trkpt>
      <trkpt lat="46.29506" lon="-0.48937">
        <ele>71</ele>
        <time>2012-01-10T14:21:42Z</time>
      </trkpt>
      <trkpt lat="46.29501" lon="-0.48936">
        <ele>70</ele>
        <time>2012-01-10T14:21:47Z</time>
      </trkpt>
      <trkpt lat="46.29496" lon="-0.48941">
        <ele>70</ele>
        <time>2012-01-10T14:21:52Z</time>
      </trkpt>
      <trkpt lat="46.2949" lon="-0.48937">
        <ele>70</ele>
        <time>2012-01-10T14:21:57Z</time>
      </trkpt>
      <trkpt lat="46.29485" lon="-0.4894">
        <ele>69</ele>
        <time>2012-01-10T14:22:02Z</time>
      </trkpt>
      <trkpt lat="46.29478" lon="-0.48941">
        <ele>69</ele>
        <time>2012-01-10T14:22:07Z</time>
      </trkpt>
      <trkpt lat="46.29472" lon="-0.4894">
        <ele>70</ele>
        <time>2012-01-10T14:22:12Z</time>
      </trkpt>
      <trkpt lat="46.29467" lon="-0.4894">
        <ele>70</ele>
        <time>2012-01-10T14:22:17Z</time>
      </trkpt>
      <trkpt lat="46.29462" lon="-0.48939">
        <ele>71</ele>
        <time>2012-01-10T14:22:22Z</time>
      </trkpt>
      <trkpt lat="46.29456" lon="-0.48941">
        <ele>71</ele>
        <time>2012-01-10T14:22:27Z</time>
      </trkpt>
      <trkpt lat="46.29449" lon="-0.4894">
        <ele>70</ele>
        <time>2012-01-10T14:22:32Z</time>
      </trkpt>
      <trkpt lat="46.29443" lon="-0.4894">
        <ele>70</ele>
        <time>2012-01-10T14:22:37Z</time>
      </trkpt>
      <trkpt lat="46.29438" lon="-0.48939">
        <ele>69</ele>
        <time>2012-01-10T14:22:42Z</time>
      </trkpt>
      <trkpt lat="46.29429" lon="-0.48934">
        <ele>70</ele>
        <time>2012-01-10T14:22:47Z</time>
      </trkpt>
      <trkpt lat="46.29423" lon="-0.48932">
        <ele>71</ele>
        <time>2012-01-10T14:22:52Z</time>
      </trkpt>
      <trkpt lat="46.2942" lon="-0.48927">
        <ele>71</ele>
        <time>2012-01-10T14:22:57Z</time>
      </trkpt>
      <trkpt lat="46.29414" lon="-0.48925">
        <ele>70</ele>
        <time>2012-01-10T14:23:02Z</time>
      </trkpt>
      <trkpt lat="46.29409" lon="-0.48922">
        <ele>69</ele>
        <time>2012-01-10T14:23:07Z</time>
      </trkpt>
      <trkpt lat="46.29403" lon="-0.4892">
        <ele>69</ele>
        <time>2012-01-10T14:23:12Z</time>
      </trkpt>
      <trkpt lat="46.29398" lon="-0.4892">
        <ele>68</ele>
        <time>2012-01-10T14:23:17Z</time>
      </trkpt>
      <trkpt lat="46.29393" lon="-0.48921">
        <ele>67</ele>
        <time>2012-01-10T14:23:22Z</time>
      </trkpt>
      <trkpt lat="46.29387" lon="-0.48923">
        <ele>68</ele>
        <time>2012-01-10T14:23:27Z</time>
      </trkpt>
      <trkpt lat="46.2938" lon="-0.48925">
        <ele>69</ele>
        <time>2012-01-10T14:23:32Z</time>
      </trkpt>
      <trkpt lat="46.29374" lon="-0.48928">
        <ele>67</ele>
        <time>2012-01-10T14:23:37Z</time>
      </trkpt>
      <trkpt lat="46.29367" lon="-0.48932">
        <ele>68</ele>
        <time>2012-01-10T14:23:42Z</time>
      </trkpt>
      <trkpt lat="46.29362" lon="-0.48936">
        <ele>68</ele>
        <time>2012-01-10T14:23:47Z</time>
      </trkpt>
      <trkpt lat="46.29357" lon="-0.48939">
        <ele>70</ele>
        <time>2012-01-10T14:23:52Z</time>
      </trkpt>
      <trkpt lat="46.29351" lon="-0.48943">
        <ele>70</ele>
        <time>2012-01-10T14:23:57Z</time>
      </trkpt>
      <trkpt lat="46.29345" lon="-0.48948">
        <ele>72</ele>
        <time>2012-01-10T14:24:02Z</time>
      </trkpt>
      <trkpt lat="46.2934" lon="-0.48951">
        <ele>71</ele>
        <time>2012-01-10T14:24:07Z</time>
      </trkpt>
      <trkpt lat="46.29335" lon="-0.48955">
        <ele>72</ele>
        <time>2012-01-10T14:24:12Z</time>
      </trkpt>
      <trkpt lat="46.2933" lon="-0.48957">
        <ele>69</ele>
        <time>2012-01-10T14:24:17Z</time>
      </trkpt>
      <trkpt lat="46.29325" lon="-0.4896">
        <ele>70</ele>
        <time>2012-01-10T14:24:22Z</time>
      </trkpt>
      <trkpt lat="46.29318" lon="-0.48962">
        <ele>69</ele>
        <time>2012-01-10T14:24:27Z</time>
      </trkpt>
      <trkpt lat="46.29313" lon="-0.48964">
        <ele>68</ele>
        <time>2012-01-10T14:24:32Z</time>
      </trkpt>
      <trkpt lat="46.29306" lon="-0.48966">
        <ele>69</ele>
        <time>2012-01-10T14:24:37Z</time>
      </trkpt>
      <trkpt lat="46.293" lon="-0.48967">
        <ele>69</ele>
        <time>2012-01-10T14:24:42Z</time>
      </trkpt>
      <trkpt lat="46.29294" lon="-0.4897">
        <ele>69</ele>
        <time>2012-01-10T14:24:47Z</time>
      </trkpt>
      <trkpt lat="46.29288" lon="-0.48971">
        <ele>69</ele>
        <time>2012-01-10T14:24:52Z</time>
      </trkpt>
      <trkpt lat="46.29282" lon="-0.48972">
        <ele>68</ele>
        <time>2012-01-10T14:24:57Z</time>
      </trkpt>
      <trkpt lat="46.29276" lon="-0.48974">
        <ele>67</ele>
        <time>2012-01-10T14:25:02Z</time>
      </trkpt>
      <trkpt lat="46.29271" lon="-0.48974">
        <ele>66</ele>
        <time>2012-01-10T14:25:07Z</time>
      </trkpt>
      <trkpt lat="46.29266" lon="-0.48975">
        <ele>65</ele>
        <time>2012-01-10T14:25:12Z</time>
      </trkpt>
      <trkpt lat="46.29262" lon="-0.48977">
        <ele>64</ele>
        <time>2012-01-10T14:25:17Z</time>
      </trkpt>
      <trkpt lat="46.29256" lon="-0.48977">
        <ele>64</ele>
        <time>2012-01-10T14:25:22Z</time>
      </trkpt>
      <trkpt lat="46.29251" lon="-0.48976">
        <ele>64</ele>
        <time>2012-01-10T14:25:27Z</time>
      </trkpt>
      <trkpt lat="46.29244" lon="-0.48977">
        <ele>63</ele>
        <time>2012-01-10T14:25:32Z</time>
      </trkpt>
      <trkpt lat="46.29238" lon="-0.48977">
        <ele>65</ele>
        <time>2012-01-10T14:25:37Z</time>
      </trkpt>
      <trkpt lat="46.29232" lon="-0.48977">
        <ele>63</ele>
        <time>2012-01-10T14:25:42Z</time>
      </trkpt>
      <trkpt lat="46.29227" lon="-0.48978">
        <ele>63</ele>
        <time>2012-01-10T14:25:47Z</time>
      </trkpt>
      <trkpt lat="46.2922" lon="-0.48979">
        <ele>64</ele>
        <time>2012-01-10T14:25:52Z</time>
      </trkpt>
      <trkpt lat="46.29216" lon="-0.48978">
        <ele>64</ele>
        <time>2012-01-10T14:25:57Z</time>
      </trkpt>
      <trkpt lat="46.29211" lon="-0.48979">
        <ele>64</ele>
        <time>2012-01-10T14:26:02Z</time>
      </trkpt>
      <trkpt lat="46.29204" lon="-0.48979">
        <ele>63</ele>
        <time>2012-01-10T14:26:07Z</time>
      </trkpt>
      <trkpt lat="46.29198" lon="-0.48979">
        <ele>62</ele>
        <time>2012-01-10T14:26:12Z</time>
      </trkpt>
      <trkpt lat="46.29195" lon="-0.48978">
        <ele>62</ele>
        <time>2012-01-10T14:26:17Z</time>
      </trkpt>
      <trkpt lat="46.29191" lon="-0.4898">
        <ele>63</ele>
        <time>2012-01-10T14:26:22Z</time>
      </trkpt>
      <trkpt lat="46.29182" lon="-0.4898">
        <ele>65</ele>
        <time>2012-01-10T14:26:27Z</time>
      </trkpt>
      <trkpt lat="46.29177" lon="-0.48981">
        <ele>64</ele>
        <time>2012-01-10T14:26:32Z</time>
      </trkpt>
      <trkpt lat="46.29171" lon="-0.48981">
        <ele>64</ele>
        <time>2012-01-10T14:26:37Z</time>
      </trkpt>
      <trkpt lat="46.29164" lon="-0.48979">
        <ele>62</ele>
        <time>2012-01-10T14:26:42Z</time>
      </trkpt>
      <trkpt lat="46.29159" lon="-0.48979">
        <ele>63</ele>
        <time>2012-01-10T14:26:47Z</time>
      </trkpt>
      <trkpt lat="46.29154" lon="-0.48978">
        <ele>62</ele>
        <time>2012-01-10T14:26:52Z</time>
      </trkpt>
      <trkpt lat="46.29147" lon="-0.48976">
        <ele>61</ele>
        <time>2012-01-10T14:26:57Z</time>
      </trkpt>
      <trkpt lat="46.29141" lon="-0.48975">
        <ele>62</ele>
        <time>2012-01-10T14:27:02Z</time>
      </trkpt>
      <trkpt lat="46.29135" lon="-0.48975">
        <ele>62</ele>
        <time>2012-01-10T14:27:07Z</time>
      </trkpt>
      <trkpt lat="46.29129" lon="-0.48974">
        <ele>62</ele>
        <time>2012-01-10T14:27:12Z</time>
      </trkpt>
      <trkpt lat="46.29121" lon="-0.48972">
        <ele>62</ele>
        <time>2012-01-10T14:27:17Z</time>
      </trkpt>
      <trkpt lat="46.29116" lon="-0.48972">
        <ele>61</ele>
        <time>2012-01-10T14:27:22Z</time>
      </trkpt>
      <trkpt lat="46.29111" lon="-0.48971">
        <ele>60</ele>
        <time>2012-01-10T14:27:27Z</time>
      </trkpt>
      <trkpt lat="46.29105" lon="-0.48971">
        <ele>60</ele>
        <time>2012-01-10T14:27:32Z</time>
      </trkpt>
      <trkpt lat="46.29098" lon="-0.48967">
        <ele>60</ele>
        <time>2012-01-10T14:27:37Z</time>
      </trkpt>
      <trkpt lat="46.29092" lon="-0.48965">
        <ele>60</ele>
        <time>2012-01-10T14:27:42Z</time>
      </trkpt>
      <trkpt lat="46.29087" lon="-0.48966">
        <ele>60</ele>
        <time>2012-01-10T14:27:47Z</time>
      </trkpt>
      <trkpt lat="46.29082" lon="-0.48964">
        <ele>58</ele>
        <time>2012-01-10T14:27:52Z</time>
      </trkpt>
      <trkpt lat="46.29076" lon="-0.48964">
        <ele>59</ele>
        <time>2012-01-10T14:27:57Z</time>
      </trkpt>
      <trkpt lat="46.29071" lon="-0.48963">
        <ele>59</ele>
        <time>2012-01-10T14:28:02Z</time>
      </trkpt>
      <trkpt lat="46.29067" lon="-0.48963">
        <ele>58</ele>
        <time>2012-01-10T14:28:07Z</time>
      </trkpt>
      <trkpt lat="46.29059" lon="-0.48961">
        <ele>58</ele>
        <time>2012-01-10T14:28:12Z</time>
      </trkpt>
      <trkpt lat="46.29054" lon="-0.48959">
        <ele>57</ele>
        <time>2012-01-10T14:28:17Z</time>
      </trkpt>
      <trkpt lat="46.29047" lon="-0.48957">
        <ele>58</ele>
        <time>2012-01-10T14:28:22Z</time>
      </trkpt>
      <trkpt lat="46.2904" lon="-0.48956">
        <ele>58</ele>
        <time>2012-01-10T14:28:27Z</time>
      </trkpt>
      <trkpt lat="46.29034" lon="-0.48957">
        <ele>57</ele>
        <time>2012-01-10T14:28:32Z</time>
      </trkpt>
      <trkpt lat="46.2903" lon="-0.48957">
        <ele>55</ele>
        <time>2012-01-10T14:28:37Z</time>
      </trkpt>
      <trkpt lat="46.29027" lon="-0.48962">
        <ele>56</ele>
        <time>2012-01-10T14:28:42Z</time>
      </trkpt>
      <trkpt lat="46.29019" lon="-0.48961">
        <ele>55</ele>
        <time>2012-01-10T14:28:47Z</time>
      </trkpt>
      <trkpt lat="46.29014" lon="-0.48961">
        <ele>57</ele>
        <time>2012-01-10T14:28:52Z</time>
      </trkpt>
      <trkpt lat="46.29014" lon="-0.48959">
        <ele>58</ele>
        <time>2012-01-10T14:28:57Z</time>
      </trkpt>
      <trkpt lat="46.29012" lon="-0.48958">
        <ele>58</ele>
        <time>2012-01-10T14:29:02Z</time>
      </trkpt>
      <trkpt lat="46.2901" lon="-0.48958">
        <ele>59</ele>
        <time>2012-01-10T14:29:07Z</time>
      </trkpt>
      <trkpt lat="46.29011" lon="-0.48958">
        <ele>59</ele>
        <time>2012-01-10T14:29:12Z</time>
      </trkpt>
      <trkpt lat="46.2901" lon="-0.48957">
        <ele>60</ele>
        <time>2012-01-10T14:29:27Z</time>
      </trkpt>
      <trkpt lat="46.2901" lon="-0.48957">
        <ele>60</ele>
        <time>2012-01-10T14:29:32Z</time>
      </trkpt>
      <trkpt lat="46.29011" lon="-0.48956">
        <ele>61</ele>
        <time>2012-01-10T14:29:42Z</time>
      </trkpt>
      <trkpt lat="46.29009" lon="-0.48954">
        <ele>61</ele>
        <time>2012-01-10T14:29:47Z</time>
      </trkpt>
      <trkpt lat="46.2901" lon="-0.48948">
        <ele>60</ele>
        <time>2012-01-10T14:29:52Z</time>
      </trkpt>
      <trkpt lat="46.29012" lon="-0.48943">
        <ele>57</ele>
        <time>2012-01-10T14:29:57Z</time>
      </trkpt>
      <trkpt lat="46.29014" lon="-0.48938">
        <ele>56</ele>
        <time>2012-01-10T14:30:02Z</time>
      </trkpt>
      <trkpt lat="46.29014" lon="-0.48934">
        <ele>55</ele>
        <time>2012-01-10T14:30:07Z</time>
      </trkpt>
      <trkpt lat="46.2902" lon="-0.48928">
        <ele>57</ele>
        <time>2012-01-10T14:30:12Z</time>
      </trkpt>
      <trkpt lat="46.29022" lon="-0.48922">
        <ele>56</ele>
        <time>2012-01-10T14:30:17Z</time>
      </trkpt>
      <trkpt lat="46.29026" lon="-0.48914">
        <ele>58</ele>
        <time>2012-01-10T14:30:22Z</time>
      </trkpt>
      <trkpt lat="46.29028" lon="-0.48906">
        <ele>59</ele>
        <time>2012-01-10T14:30:27Z</time>
      </trkpt>
      <trkpt lat="46.29031" lon="-0.489">
        <ele>58</ele>
        <time>2012-01-10T14:30:32Z</time>
      </trkpt>
      <trkpt lat="46.29036" lon="-0.48894">
        <ele>58</ele>
        <time>2012-01-10T14:30:37Z</time>
      </trkpt>
      <trkpt lat="46.2904" lon="-0.48889">
        <ele>59</ele>
        <time>2012-01-10T14:30:42Z</time>
      </trkpt>
      <trkpt lat="46.29044" lon="-0.48884">
        <ele>58</ele>
        <time>2012-01-10T14:30:47Z</time>
      </trkpt>
      <trkpt lat="46.29047" lon="-0.4888">
        <ele>57</ele>
        <time>2012-01-10T14:30:52Z</time>
      </trkpt>
      <trkpt lat="46.29051" lon="-0.4887">
        <ele>58</ele>
        <time>2012-01-10T14:30:57Z</time>
      </trkpt>
      <trkpt lat="46.29053" lon="-0.48863">
        <ele>58</ele>
        <time>2012-01-10T14:31:02Z</time>
      </trkpt>
      <trkpt lat="46.29056" lon="-0.48858">
        <ele>59</ele>
        <time>2012-01-10T14:31:07Z</time>
      </trkpt>
      <trkpt lat="46.29058" lon="-0.48849">
        <ele>56</ele>
        <time>2012-01-10T14:31:12Z</time>
      </trkpt>
      <trkpt lat="46.2906" lon="-0.4884">
        <ele>53</ele>
        <time>2012-01-10T14:31:17Z</time>
      </trkpt>
      <trkpt lat="46.29063" lon="-0.48832">
        <ele>53</ele>
        <time>2012-01-10T14:31:22Z</time>
      </trkpt>
      <trkpt lat="46.29066" lon="-0.48833">
        <ele>51</ele>
        <time>2012-01-10T14:31:27Z</time>
      </trkpt>
      <trkpt lat="46.29068" lon="-0.48826">
        <ele>51</ele>
        <time>2012-01-10T14:31:32Z</time>
      </trkpt>
      <trkpt lat="46.2907" lon="-0.48817">
        <ele>53</ele>
        <time>2012-01-10T14:31:37Z</time>
      </trkpt>
      <trkpt lat="46.29071" lon="-0.48803">
        <ele>54</ele>
        <time>2012-01-10T14:31:42Z</time>
      </trkpt>
      <trkpt lat="46.29073" lon="-0.48795">
        <ele>55</ele>
        <time>2012-01-10T14:31:47Z</time>
      </trkpt>
      <trkpt lat="46.29073" lon="-0.48787">
        <ele>55</ele>
        <time>2012-01-10T14:31:52Z</time>
      </trkpt>
      <trkpt lat="46.29075" lon="-0.48785">
        <ele>55</ele>
        <time>2012-01-10T14:31:57Z</time>
      </trkpt>
      <trkpt lat="46.29075" lon="-0.4877">
        <ele>54</ele>
        <time>2012-01-10T14:32:02Z</time>
      </trkpt>
      <trkpt lat="46.29076" lon="-0.48759">
        <ele>54</ele>
        <time>2012-01-10T14:32:07Z</time>
      </trkpt>
      <trkpt lat="46.29075" lon="-0.48744">
        <ele>59</ele>
        <time>2012-01-10T14:32:12Z</time>
      </trkpt>
      <trkpt lat="46.29076" lon="-0.48734">
        <ele>60</ele>
        <time>2012-01-10T14:32:17Z</time>
      </trkpt>
      <trkpt lat="46.29077" lon="-0.48728">
        <ele>59</ele>
        <time>2012-01-10T14:32:22Z</time>
      </trkpt>
      <trkpt lat="46.29076" lon="-0.4872">
        <ele>59</ele>
        <time>2012-01-10T14:32:27Z</time>
      </trkpt>
      <trkpt lat="46.29078" lon="-0.48712">
        <ele>59</ele>
        <time>2012-01-10T14:32:32Z</time>
      </trkpt>
      <trkpt lat="46.29078" lon="-0.48702">
        <ele>58</ele>
        <time>2012-01-10T14:32:37Z</time>
      </trkpt>
      <trkpt lat="46.29078" lon="-0.48694">
        <ele>57</ele>
        <time>2012-01-10T14:32:42Z</time>
      </trkpt>
      <trkpt lat="46.29078" lon="-0.48685">
        <ele>56</ele>
        <time>2012-01-10T14:32:47Z</time>
      </trkpt>
      <trkpt lat="46.29078" lon="-0.48677">
        <ele>57</ele>
        <time>2012-01-10T14:32:52Z</time>
      </trkpt>
      <trkpt lat="46.29078" lon="-0.48665">
        <ele>60</ele>
        <time>2012-01-10T14:32:57Z</time>
      </trkpt>
      <trkpt lat="46.29078" lon="-0.48654">
        <ele>62</ele>
        <time>2012-01-10T14:33:02Z</time>
      </trkpt>
      <trkpt lat="46.29076" lon="-0.48646">
        <ele>64</ele>
        <time>2012-01-10T14:33:07Z</time>
      </trkpt>
      <trkpt lat="46.29076" lon="-0.4864">
        <ele>64</ele>
        <time>2012-01-10T14:33:12Z</time>
      </trkpt>
      <trkpt lat="46.29077" lon="-0.48628">
        <ele>65</ele>
        <time>2012-01-10T14:33:17Z</time>
      </trkpt>
      <trkpt lat="46.29079" lon="-0.48621">
        <ele>63</ele>
        <time>2012-01-10T14:33:22Z</time>
      </trkpt>
      <trkpt lat="46.2908" lon="-0.4861">
        <ele>62</ele>
        <time>2012-01-10T14:33:27Z</time>
      </trkpt>
      <trkpt lat="46.29081" lon="-0.48601">
        <ele>61</ele>
        <time>2012-01-10T14:33:32Z</time>
      </trkpt>
      <trkpt lat="46.29082" lon="-0.48597">
        <ele>60</ele>
        <time>2012-01-10T14:33:37Z</time>
      </trkpt>
      <trkpt lat="46.29083" lon="-0.48586">
        <ele>61</ele>
        <time>2012-01-10T14:33:42Z</time>
      </trkpt>
      <trkpt lat="46.29083" lon="-0.48576">
        <ele>61</ele>
        <time>2012-01-10T14:33:47Z</time>
      </trkpt>
      <trkpt lat="46.29084" lon="-0.48568">
        <ele>59</ele>
        <time>2012-01-10T14:33:52Z</time>
      </trkpt>
      <trkpt lat="46.29083" lon="-0.48561">
        <ele>59</ele>
        <time>2012-01-10T14:33:57Z</time>
      </trkpt>
      <trkpt lat="46.29085" lon="-0.48554">
        <ele>58</ele>
        <time>2012-01-10T14:34:02Z</time>
      </trkpt>
      <trkpt lat="46.29085" lon="-0.48545">
        <ele>58</ele>
        <time>2012-01-10T14:34:07Z</time>
      </trkpt>
      <trkpt lat="46.29085" lon="-0.48533">
        <ele>58</ele>
        <time>2012-01-10T14:34:12Z</time>
      </trkpt>
      <trkpt lat="46.29085" lon="-0.48527">
        <ele>57</ele>
        <time>2012-01-10T14:34:17Z</time>
      </trkpt>
      <trkpt lat="46.29086" lon="-0.4852">
        <ele>56</ele>
        <time>2012-01-10T14:34:22Z</time>
      </trkpt>
      <trkpt lat="46.29088" lon="-0.4851">
        <ele>56</ele>
        <time>2012-01-10T14:34:27Z</time>
      </trkpt>
      <trkpt lat="46.29092" lon="-0.48505">
        <ele>55</ele>
        <time>2012-01-10T14:34:32Z</time>
      </trkpt>
      <trkpt lat="46.29096" lon="-0.48496">
        <ele>56</ele>
        <time>2012-01-10T14:34:37Z</time>
      </trkpt>
      <trkpt lat="46.29101" lon="-0.48493">
        <ele>56</ele>
        <time>2012-01-10T14:34:42Z</time>
      </trkpt>
      <trkpt lat="46.29104" lon="-0.48485">
        <ele>59</ele>
        <time>2012-01-10T14:34:47Z</time>
      </trkpt>
      <trkpt lat="46.2911" lon="-0.48481">
        <ele>59</ele>
        <time>2012-01-10T14:34:52Z</time>
      </trkpt>
      <trkpt lat="46.29117" lon="-0.48477">
        <ele>57</ele>
        <time>2012-01-10T14:34:57Z</time>
      </trkpt>
      <trkpt lat="46.29118" lon="-0.48468">
        <ele>57</ele>
        <time>2012-01-10T14:35:02Z</time>
      </trkpt>
      <trkpt lat="46.29124" lon="-0.48461">
        <ele>57</ele>
        <time>2012-01-10T14:35:07Z</time>
      </trkpt>
      <trkpt lat="46.29129" lon="-0.48455">
        <ele>57</ele>
        <time>2012-01-10T14:35:12Z</time>
      </trkpt>
      <trkpt lat="46.29133" lon="-0.4845">
        <ele>57</ele>
        <time>2012-01-10T14:35:17Z</time>
      </trkpt>
      <trkpt lat="46.29137" lon="-0.48445">
        <ele>58</ele>
        <time>2012-01-10T14:35:22Z</time>
      </trkpt>
      <trkpt lat="46.29141" lon="-0.48439">
        <ele>59</ele>
        <time>2012-01-10T14:35:27Z</time>
      </trkpt>
      <trkpt lat="46.29148" lon="-0.48432">
        <ele>58</ele>
        <time>2012-01-10T14:35:32Z</time>
      </trkpt>
      <trkpt lat="46.29149" lon="-0.48426">
        <ele>57</ele>
        <time>2012-01-10T14:35:37Z</time>
      </trkpt>
      <trkpt lat="46.29152" lon="-0.48418">
        <ele>58</ele>
        <time>2012-01-10T14:35:42Z</time>
      </trkpt>
      <trkpt lat="46.29155" lon="-0.48413">
        <ele>59</ele>
        <time>2012-01-10T14:35:47Z</time>
      </trkpt>
      <trkpt lat="46.29159" lon="-0.48406">
        <ele>60</ele>
        <time>2012-01-10T14:35:52Z</time>
      </trkpt>
      <trkpt lat="46.29163" lon="-0.48403">
        <ele>60</ele>
        <time>2012-01-10T14:35:57Z</time>
      </trkpt>
      <trkpt lat="46.2917" lon="-0.48397">
        <ele>61</ele>
        <time>2012-01-10T14:36:02Z</time>
      </trkpt>
      <trkpt lat="46.29174" lon="-0.48391">
        <ele>60</ele>
        <time>2012-01-10T14:36:07Z</time>
      </trkpt>
      <trkpt lat="46.29176" lon="-0.48382">
        <ele>59</ele>
        <time>2012-01-10T14:36:12Z</time>
      </trkpt>
      <trkpt lat="46.29181" lon="-0.48378">
        <ele>57</ele>
        <time>2012-01-10T14:36:17Z</time>
      </trkpt>
      <trkpt lat="46.29186" lon="-0.48374">
        <ele>56</ele>
        <time>2012-01-10T14:36:22Z</time>
      </trkpt>
      <trkpt lat="46.2919" lon="-0.48367">
        <ele>57</ele>
        <time>2012-01-10T14:36:27Z</time>
      </trkpt>
      <trkpt lat="46.29188" lon="-0.48358">
        <ele>55</ele>
        <time>2012-01-10T14:36:32Z</time>
      </trkpt>
      <trkpt lat="46.29187" lon="-0.48349">
        <ele>56</ele>
        <time>2012-01-10T14:36:37Z</time>
      </trkpt>
      <trkpt lat="46.29191" lon="-0.48343">
        <ele>56</ele>
        <time>2012-01-10T14:36:42Z</time>
      </trkpt>
      <trkpt lat="46.29196" lon="-0.48339">
        <ele>55</ele>
        <time>2012-01-10T14:36:47Z</time>
      </trkpt>
      <trkpt lat="46.29205" lon="-0.48333">
        <ele>56</ele>
        <time>2012-01-10T14:36:52Z</time>
      </trkpt>
      <trkpt lat="46.29211" lon="-0.48328">
        <ele>56</ele>
        <time>2012-01-10T14:36:57Z</time>
      </trkpt>
      <trkpt lat="46.29213" lon="-0.48322">
        <ele>56</ele>
        <time>2012-01-10T14:37:02Z</time>
      </trkpt>
      <trkpt lat="46.29212" lon="-0.48316">
        <ele>54</ele>
        <time>2012-01-10T14:37:07Z</time>
      </trkpt>
      <trkpt lat="46.29211" lon="-0.48312">
        <ele>53</ele>
        <time>2012-01-10T14:37:12Z</time>
      </trkpt>
      <trkpt lat="46.29218" lon="-0.48304">
        <ele>53</ele>
        <time>2012-01-10T14:37:17Z</time>
      </trkpt>
      <trkpt lat="46.29226" lon="-0.48299">
        <ele>54</ele>
        <time>2012-01-10T14:37:22Z</time>
      </trkpt>
      <trkpt lat="46.2924" lon="-0.48293">
        <ele>58</ele>
        <time>2012-01-10T14:37:27Z</time>
      </trkpt>
      <trkpt lat="46.29242" lon="-0.48288">
        <ele>57</ele>
        <time>2012-01-10T14:37:32Z</time>
      </trkpt>
      <trkpt lat="46.2924" lon="-0.48282">
        <ele>56</ele>
        <time>2012-01-10T14:37:37Z</time>
      </trkpt>
      <trkpt lat="46.29249" lon="-0.48277">
        <ele>58</ele>
        <time>2012-01-10T14:37:42Z</time>
      </trkpt>
      <trkpt lat="46.29257" lon="-0.48271">
        <ele>59</ele>
        <time>2012-01-10T14:37:47Z</time>
      </trkpt>
      <trkpt lat="46.29262" lon="-0.48266">
        <ele>60</ele>
        <time>2012-01-10T14:37:52Z</time>
      </trkpt>
      <trkpt lat="46.29265" lon="-0.48259">
        <ele>60</ele>
        <time>2012-01-10T14:37:57Z</time>
      </trkpt>
      <trkpt lat="46.29269" lon="-0.48252">
        <ele>60</ele>
        <time>2012-01-10T14:38:02Z</time>
      </trkpt>
      <trkpt lat="46.29274" lon="-0.48249">
        <ele>61</ele>
        <time>2012-01-10T14:38:07Z</time>
      </trkpt>
      <trkpt lat="46.29274" lon="-0.48241">
        <ele>60</ele>
        <time>2012-01-10T14:38:12Z</time>
      </trkpt>
      <trkpt lat="46.29277" lon="-0.48236">
        <ele>58</ele>
        <time>2012-01-10T14:38:17Z</time>
      </trkpt>
      <trkpt lat="46.29282" lon="-0.48231">
        <ele>57</ele>
        <time>2012-01-10T14:38:22Z</time>
      </trkpt>
      <trkpt lat="46.29288" lon="-0.48226">
        <ele>57</ele>
        <time>2012-01-10T14:38:27Z</time>
      </trkpt>
      <trkpt lat="46.29294" lon="-0.48218">
        <ele>58</ele>
        <time>2012-01-10T14:38:32Z</time>
      </trkpt>
      <trkpt lat="46.29297" lon="-0.48213">
        <ele>57</ele>
        <time>2012-01-10T14:38:37Z</time>
      </trkpt>
      <trkpt lat="46.29301" lon="-0.48208">
        <ele>55</ele>
        <time>2012-01-10T14:38:42Z</time>
      </trkpt>
      <trkpt lat="46.29305" lon="-0.48205">
        <ele>54</ele>
        <time>2012-01-10T14:38:47Z</time>
      </trkpt>
      <trkpt lat="46.2931" lon="-0.48198">
        <ele>52</ele>
        <time>2012-01-10T14:38:52Z</time>
      </trkpt>
      <trkpt lat="46.29314" lon="-0.4819">
        <ele>54</ele>
        <time>2012-01-10T14:38:57Z</time>
      </trkpt>
      <trkpt lat="46.29319" lon="-0.48187">
        <ele>55</ele>
        <time>2012-01-10T14:39:02Z</time>
      </trkpt>
      <trkpt lat="46.29322" lon="-0.48181">
        <ele>55</ele>
        <time>2012-01-10T14:39:07Z</time>
      </trkpt>
      <trkpt lat="46.29327" lon="-0.48172">
        <ele>57</ele>
        <time>2012-01-10T14:39:12Z</time>
      </trkpt>
      <trkpt lat="46.2933" lon="-0.48167">
        <ele>58</ele>
        <time>2012-01-10T14:39:17Z</time>
      </trkpt>
      <trkpt lat="46.29333" lon="-0.4816">
        <ele>58</ele>
        <time>2012-01-10T14:39:22Z</time>
      </trkpt>
      <trkpt lat="46.2934" lon="-0.48154">
        <ele>59</ele>
        <time>2012-01-10T14:39:27Z</time>
      </trkpt>
      <trkpt lat="46.29346" lon="-0.4815">
        <ele>60</ele>
        <time>2012-01-10T14:39:32Z</time>
      </trkpt>
      <trkpt lat="46.29351" lon="-0.48146">
        <ele>62</ele>
        <time>2012-01-10T14:39:37Z</time>
      </trkpt>
      <trkpt lat="46.29356" lon="-0.48143">
        <ele>62</ele>
        <time>2012-01-10T14:39:42Z</time>
      </trkpt>
      <trkpt lat="46.29363" lon="-0.48142">
        <ele>62</ele>
        <time>2012-01-10T14:39:47Z</time>
      </trkpt>
      <trkpt lat="46.29368" lon="-0.48139">
        <ele>64</ele>
        <time>2012-01-10T14:39:53Z</time>
      </trkpt>
      <trkpt lat="46.29372" lon="-0.48135">
        <ele>64</ele>
        <time>2012-01-10T14:39:57Z</time>
      </trkpt>
      <trkpt lat="46.29376" lon="-0.48134">
        <ele>65</ele>
        <time>2012-01-10T14:40:02Z</time>
      </trkpt>
      <trkpt lat="46.29382" lon="-0.48131">
        <ele>66</ele>
        <time>2012-01-10T14:40:07Z</time>
      </trkpt>
      <trkpt lat="46.29388" lon="-0.48128">
        <ele>66</ele>
        <time>2012-01-10T14:40:12Z</time>
      </trkpt>
      <trkpt lat="46.29392" lon="-0.48126">
        <ele>67</ele>
        <time>2012-01-10T14:40:17Z</time>
      </trkpt>
      <trkpt lat="46.29398" lon="-0.48123">
        <ele>68</ele>
        <time>2012-01-10T14:40:22Z</time>
      </trkpt>
      <trkpt lat="46.29405" lon="-0.48118">
        <ele>67</ele>
        <time>2012-01-10T14:40:27Z</time>
      </trkpt>
      <trkpt lat="46.29411" lon="-0.48115">
        <ele>67</ele>
        <time>2012-01-10T14:40:32Z</time>
      </trkpt>
      <trkpt lat="46.29417" lon="-0.48112">
        <ele>67</ele>
        <time>2012-01-10T14:40:37Z</time>
      </trkpt>
      <trkpt lat="46.29421" lon="-0.4811">
        <ele>67</ele>
        <time>2012-01-10T14:40:42Z</time>
      </trkpt>
      <trkpt lat="46.29428" lon="-0.48104">
        <ele>66</ele>
        <time>2012-01-10T14:40:47Z</time>
      </trkpt>
      <trkpt lat="46.29433" lon="-0.481">
        <ele>66</ele>
        <time>2012-01-10T14:40:52Z</time>
      </trkpt>
      <trkpt lat="46.29439" lon="-0.48096">
        <ele>66</ele>
        <time>2012-01-10T14:40:57Z</time>
      </trkpt>
      <trkpt lat="46.29442" lon="-0.48093">
        <ele>66</ele>
        <time>2012-01-10T14:41:02Z</time>
      </trkpt>
      <trkpt lat="46.29448" lon="-0.48089">
        <ele>68</ele>
        <time>2012-01-10T14:41:07Z</time>
      </trkpt>
      <trkpt lat="46.29453" lon="-0.48085">
        <ele>69</ele>
        <time>2012-01-10T14:41:12Z</time>
      </trkpt>
      <trkpt lat="46.2946" lon="-0.48081">
        <ele>70</ele>
        <time>2012-01-10T14:41:17Z</time>
      </trkpt>
      <trkpt lat="46.29465" lon="-0.48075">
        <ele>70</ele>
        <time>2012-01-10T14:41:22Z</time>
      </trkpt>
      <trkpt lat="46.29471" lon="-0.48072">
        <ele>69</ele>
        <time>2012-01-10T14:41:27Z</time>
      </trkpt>
      <trkpt lat="46.29476" lon="-0.48067">
        <ele>68</ele>
        <time>2012-01-10T14:41:32Z</time>
      </trkpt>
      <trkpt lat="46.2948" lon="-0.48062">
        <ele>68</ele>
        <time>2012-01-10T14:41:37Z</time>
      </trkpt>
      <trkpt lat="46.29481" lon="-0.48058">
        <ele>66</ele>
        <time>2012-01-10T14:41:42Z</time>
      </trkpt>
      <trkpt lat="46.29487" lon="-0.48052">
        <ele>65</ele>
        <time>2012-01-10T14:41:47Z</time>
      </trkpt>
      <trkpt lat="46.29495" lon="-0.48049">
        <ele>67</ele>
        <time>2012-01-10T14:41:52Z</time>
      </trkpt>
      <trkpt lat="46.295" lon="-0.48042">
        <ele>67</ele>
        <time>2012-01-10T14:41:57Z</time>
      </trkpt>
      <trkpt lat="46.29505" lon="-0.48037">
        <ele>68</ele>
        <time>2012-01-10T14:42:02Z</time>
      </trkpt>
      <trkpt lat="46.2951" lon="-0.48031">
        <ele>69</ele>
        <time>2012-01-10T14:42:07Z</time>
      </trkpt>
      <trkpt lat="46.29514" lon="-0.48023">
        <ele>71</ele>
        <time>2012-01-10T14:42:12Z</time>
      </trkpt>
      <trkpt lat="46.29516" lon="-0.48017">
        <ele>69</ele>
        <time>2012-01-10T14:42:17Z</time>
      </trkpt>
      <trkpt lat="46.29522" lon="-0.48013">
        <ele>69</ele>
        <time>2012-01-10T14:42:22Z</time>
      </trkpt>
      <trkpt lat="46.29525" lon="-0.48005">
        <ele>71</ele>
        <time>2012-01-10T14:42:27Z</time>
      </trkpt>
      <trkpt lat="46.29528" lon="-0.47998">
        <ele>71</ele>
        <time>2012-01-10T14:42:32Z</time>
      </trkpt>
      <trkpt lat="46.29532" lon="-0.47992">
        <ele>69</ele>
        <time>2012-01-10T14:42:37Z</time>
      </trkpt>
      <trkpt lat="46.29535" lon="-0.47987">
        <ele>70</ele>
        <time>2012-01-10T14:42:42Z</time>
      </trkpt>
      <trkpt lat="46.29536" lon="-0.47984">
        <ele>69</ele>
        <time>2012-01-10T14:42:47Z</time>
      </trkpt>
      <trkpt lat="46.29537" lon="-0.47983">
        <ele>71</ele>
        <time>2012-01-10T14:42:52Z</time>
      </trkpt>
      <trkpt lat="46.29536" lon="-0.47983">
        <ele>71</ele>
        <time>2012-01-10T14:42:57Z</time>
      </trkpt>
      <trkpt lat="46.29537" lon="-0.47982">
        <ele>71</ele>
        <time>2012-01-10T14:43:17Z</time>
      </trkpt>
      <trkpt lat="46.29537" lon="-0.47982">
        <ele>71</ele>
        <time>2012-01-10T14:43:37Z</time>
      </trkpt>
      <trkpt lat="46.29537" lon="-0.4798">
        <ele>70</ele>
        <time>2012-01-10T14:43:42Z</time>
      </trkpt>
      <trkpt lat="46.29537" lon="-0.47975">
        <ele>72</ele>
        <time>2012-01-10T14:43:47Z</time>
      </trkpt>
      <trkpt lat="46.29538" lon="-0.47967">
        <ele>71</ele>
        <time>2012-01-10T14:43:52Z</time>
      </trkpt>
      <trkpt lat="46.29539" lon="-0.4796">
        <ele>70</ele>
        <time>2012-01-10T14:43:57Z</time>
      </trkpt>
      <trkpt lat="46.29541" lon="-0.47952">
        <ele>70</ele>
        <time>2012-01-10T14:44:02Z</time>
      </trkpt>
      <trkpt lat="46.29544" lon="-0.47944">
        <ele>71</ele>
        <time>2012-01-10T14:44:07Z</time>
      </trkpt>
      <trkpt lat="46.29547" lon="-0.47937">
        <ele>70</ele>
        <time>2012-01-10T14:44:12Z</time>
      </trkpt>
      <trkpt lat="46.29551" lon="-0.47932">
        <ele>70</ele>
        <time>2012-01-10T14:44:17Z</time>
      </trkpt>
      <trkpt lat="46.29554" lon="-0.47925">
        <ele>70</ele>
        <time>2012-01-10T14:44:22Z</time>
      </trkpt>
      <trkpt lat="46.29556" lon="-0.47919">
        <ele>67</ele>
        <time>2012-01-10T14:44:27Z</time>
      </trkpt>
      <trkpt lat="46.2956" lon="-0.47913">
        <ele>67</ele>
        <time>2012-01-10T14:44:32Z</time>
      </trkpt>
      <trkpt lat="46.29562" lon="-0.47908">
        <ele>66</ele>
        <time>2012-01-10T14:44:37Z</time>
      </trkpt>
      <trkpt lat="46.29563" lon="-0.479">
        <ele>64</ele>
        <time>2012-01-10T14:44:42Z</time>
      </trkpt>
      <trkpt lat="46.29561" lon="-0.47898">
        <ele>64</ele>
        <time>2012-01-10T14:44:47Z</time>
      </trkpt>
      <trkpt lat="46.29558" lon="-0.47889">
        <ele>65</ele>
        <time>2012-01-10T14:44:52Z</time>
      </trkpt>
      <trkpt lat="46.29555" lon="-0.47882">
        <ele>67</ele>
        <time>2012-01-10T14:44:57Z</time>
      </trkpt>
      <trkpt lat="46.29553" lon="-0.47878">
        <ele>67</ele>
        <time>2012-01-10T14:45:02Z</time>
      </trkpt>
      <trkpt lat="46.29548" lon="-0.47868">
        <ele>69</ele>
        <time>2012-01-10T14:45:07Z</time>
      </trkpt>
      <trkpt lat="46.29544" lon="-0.47864">
        <ele>68</ele>
        <time>2012-01-10T14:45:12Z</time>
      </trkpt>
      <trkpt lat="46.29538" lon="-0.47857">
        <ele>69</ele>
        <time>2012-01-10T14:45:17Z</time>
      </trkpt>
      <trkpt lat="46.29535" lon="-0.47853">
        <ele>70</ele>
        <time>2012-01-10T14:45:22Z</time>
      </trkpt>
      <trkpt lat="46.29531" lon="-0.47847">
        <ele>69</ele>
        <time>2012-01-10T14:45:27Z</time>
      </trkpt>
      <trkpt lat="46.29527" lon="-0.47842">
        <ele>68</ele>
        <time>2012-01-10T14:45:32Z</time>
      </trkpt>
      <trkpt lat="46.29524" lon="-0.47839">
        <ele>68</ele>
        <time>2012-01-10T14:45:37Z</time>
      </trkpt>
      <trkpt lat="46.2952" lon="-0.4784">
        <ele>68</ele>
        <time>2012-01-10T14:45:42Z</time>
      </trkpt>
      <trkpt lat="46.29515" lon="-0.47843">
        <ele>70</ele>
        <time>2012-01-10T14:45:47Z</time>
      </trkpt>
      <trkpt lat="46.29509" lon="-0.4785">
        <ele>70</ele>
        <time>2012-01-10T14:45:52Z</time>
      </trkpt>
      <trkpt lat="46.29505" lon="-0.47857">
        <ele>70</ele>
        <time>2012-01-10T14:45:57Z</time>
      </trkpt>
      <trkpt lat="46.29502" lon="-0.4786">
        <ele>71</ele>
        <time>2012-01-10T14:46:02Z</time>
      </trkpt>
      <trkpt lat="46.29498" lon="-0.47868">
        <ele>73</ele>
        <time>2012-01-10T14:46:07Z</time>
      </trkpt>
      <trkpt lat="46.29494" lon="-0.47875">
        <ele>74</ele>
        <time>2012-01-10T14:46:12Z</time>
      </trkpt>
      <trkpt lat="46.29493" lon="-0.47881">
        <ele>74</ele>
        <time>2012-01-10T14:46:17Z</time>
      </trkpt>
      <trkpt lat="46.29489" lon="-0.47885">
        <ele>74</ele>
        <time>2012-01-10T14:46:22Z</time>
      </trkpt>
      <trkpt lat="46.29484" lon="-0.4789">
        <ele>75</ele>
        <time>2012-01-10T14:46:27Z</time>
      </trkpt>
      <trkpt lat="46.2948" lon="-0.47896">
        <ele>76</ele>
        <time>2012-01-10T14:46:32Z</time>
      </trkpt>
      <trkpt lat="46.29476" lon="-0.47903">
        <ele>76</ele>
        <time>2012-01-10T14:46:37Z</time>
      </trkpt>
      <trkpt lat="46.2947" lon="-0.47909">
        <ele>76</ele>
        <time>2012-01-10T14:46:42Z</time>
      </trkpt>
      <trkpt lat="46.29465" lon="-0.47914">
        <ele>76</ele>
        <time>2012-01-10T14:46:47Z</time>
      </trkpt>
      <trkpt lat="46.29461" lon="-0.47921">
        <ele>77</ele>
        <time>2012-01-10T14:46:52Z</time>
      </trkpt>
      <trkpt lat="46.29456" lon="-0.47928">
        <ele>78</ele>
        <time>2012-01-10T14:46:57Z</time>
      </trkpt>
      <trkpt lat="46.2945" lon="-0.47934">
        <ele>78</ele>
        <time>2012-01-10T14:47:02Z</time>
      </trkpt>
      <trkpt lat="46.29447" lon="-0.4794">
        <ele>79</ele>
        <time>2012-01-10T14:47:07Z</time>
      </trkpt>
      <trkpt lat="46.29446" lon="-0.47947">
        <ele>78</ele>
        <time>2012-01-10T14:47:12Z</time>
      </trkpt>
      <trkpt lat="46.2944" lon="-0.47955">
        <ele>78</ele>
        <time>2012-01-10T14:47:17Z</time>
      </trkpt>
      <trkpt lat="46.29436" lon="-0.47962">
        <ele>79</ele>
        <time>2012-01-10T14:47:22Z</time>
      </trkpt>
      <trkpt lat="46.29432" lon="-0.47968">
        <ele>79</ele>
        <time>2012-01-10T14:47:27Z</time>
      </trkpt>
      <trkpt lat="46.29428" lon="-0.47973">
        <ele>79</ele>
        <time>2012-01-10T14:47:32Z</time>
      </trkpt>
      <trkpt lat="46.29425" lon="-0.4798">
        <ele>79</ele>
        <time>2012-01-10T14:47:37Z</time>
      </trkpt>
      <trkpt lat="46.2942" lon="-0.47984">
        <ele>79</ele>
        <time>2012-01-10T14:47:42Z</time>
      </trkpt>
      <trkpt lat="46.29417" lon="-0.4799">
        <ele>78</ele>
        <time>2012-01-10T14:47:47Z</time>
      </trkpt>
      <trkpt lat="46.29411" lon="-0.47997">
        <ele>77</ele>
        <time>2012-01-10T14:47:52Z</time>
      </trkpt>
      <trkpt lat="46.29407" lon="-0.48003">
        <ele>77</ele>
        <time>2012-01-10T14:47:57Z</time>
      </trkpt>
      <trkpt lat="46.29402" lon="-0.48009">
        <ele>78</ele>
        <time>2012-01-10T14:48:02Z</time>
      </trkpt>
      <trkpt lat="46.29398" lon="-0.48015">
        <ele>77</ele>
        <time>2012-01-10T14:48:07Z</time>
      </trkpt>
      <trkpt lat="46.29395" lon="-0.48022">
        <ele>76</ele>
        <time>2012-01-10T14:48:12Z</time>
      </trkpt>
      <trkpt lat="46.29392" lon="-0.48028">
        <ele>76</ele>
        <time>2012-01-10T14:48:17Z</time>
      </trkpt>
      <trkpt lat="46.29387" lon="-0.48035">
        <ele>77</ele>
        <time>2012-01-10T14:48:22Z</time>
      </trkpt>
      <trkpt lat="46.29383" lon="-0.48041">
        <ele>77</ele>
        <time>2012-01-10T14:48:27Z</time>
      </trkpt>
      <trkpt lat="46.29379" lon="-0.48047">
        <ele>76</ele>
        <time>2012-01-10T14:48:32Z</time>
      </trkpt>
      <trkpt lat="46.29375" lon="-0.48053">
        <ele>77</ele>
        <time>2012-01-10T14:48:37Z</time>
      </trkpt>
      <trkpt lat="46.2937" lon="-0.48059">
        <ele>76</ele>
        <time>2012-01-10T14:48:42Z</time>
      </trkpt>
      <trkpt lat="46.29367" lon="-0.48066">
        <ele>74</ele>
        <time>2012-01-10T14:48:47Z</time>
      </trkpt>
      <trkpt lat="46.29362" lon="-0.48073">
        <ele>73</ele>
        <time>2012-01-10T14:48:52Z</time>
      </trkpt>
      <trkpt lat="46.29359" lon="-0.48078">
        <ele>71</ele>
        <time>2012-01-10T14:48:57Z</time>
      </trkpt>
      <trkpt lat="46.29355" lon="-0.48084">
        <ele>71</ele>
        <time>2012-01-10T14:49:02Z</time>
      </trkpt>
      <trkpt lat="46.29351" lon="-0.48091">
        <ele>71</ele>
        <time>2012-01-10T14:49:07Z</time>
      </trkpt>
      <trkpt lat="46.29346" lon="-0.48097">
        <ele>71</ele>
        <time>2012-01-10T14:49:12Z</time>
      </trkpt>
      <trkpt lat="46.29342" lon="-0.48104">
        <ele>70</ele>
        <time>2012-01-10T14:49:17Z</time>
      </trkpt>
      <trkpt lat="46.29337" lon="-0.4811">
        <ele>70</ele>
        <time>2012-01-10T14:49:22Z</time>
      </trkpt>
      <trkpt lat="46.29332" lon="-0.48115">
        <ele>70</ele>
        <time>2012-01-10T14:49:27Z</time>
      </trkpt>
      <trkpt lat="46.29328" lon="-0.48122">
        <ele>71</ele>
        <time>2012-01-10T14:49:32Z</time>
      </trkpt>
      <trkpt lat="46.29325" lon="-0.48127">
        <ele>71</ele>
        <time>2012-01-10T14:49:37Z</time>
      </trkpt>
      <trkpt lat="46.29321" lon="-0.48133">
        <ele>70</ele>
        <time>2012-01-10T14:49:42Z</time>
      </trkpt>
      <trkpt lat="46.29316" lon="-0.48139">
        <ele>71</ele>
        <time>2012-01-10T14:49:47Z</time>
      </trkpt>
      <trkpt lat="46.29312" lon="-0.48146">
        <ele>70</ele>
        <time>2012-01-10T14:49:52Z</time>
      </trkpt>
      <trkpt lat="46.2931" lon="-0.48154">
        <ele>70</ele>
        <time>2012-01-10T14:49:57Z</time>
      </trkpt>
      <trkpt lat="46.29304" lon="-0.48159">
        <ele>70</ele>
        <time>2012-01-10T14:50:02Z</time>
      </trkpt>
      <trkpt lat="46.29301" lon="-0.48165">
        <ele>71</ele>
        <time>2012-01-10T14:50:07Z</time>
      </trkpt>
      <trkpt lat="46.29296" lon="-0.4817">
        <ele>70</ele>
        <time>2012-01-10T14:50:12Z</time>
      </trkpt>
      <trkpt lat="46.29292" lon="-0.48174">
        <ele>70</ele>
        <time>2012-01-10T14:50:17Z</time>
      </trkpt>
      <trkpt lat="46.29287" lon="-0.48179">
        <ele>71</ele>
        <time>2012-01-10T14:50:22Z</time>
      </trkpt>
      <trkpt lat="46.29281" lon="-0.48184">
        <ele>70</ele>
        <time>2012-01-10T14:50:27Z</time>
      </trkpt>
      <trkpt lat="46.29277" lon="-0.48186">
        <ele>68</ele>
        <time>2012-01-10T14:50:32Z</time>
      </trkpt>
      <trkpt lat="46.29271" lon="-0.48189">
        <ele>68</ele>
        <time>2012-01-10T14:50:37Z</time>
      </trkpt>
      <trkpt lat="46.29266" lon="-0.48192">
        <ele>68</ele>
        <time>2012-01-10T14:50:42Z</time>
      </trkpt>
      <trkpt lat="46.2926" lon="-0.48195">
        <ele>69</ele>
        <time>2012-01-10T14:50:47Z</time>
      </trkpt>
      <trkpt lat="46.29255" lon="-0.48197">
        <ele>69</ele>
        <time>2012-01-10T14:50:52Z</time>
      </trkpt>
      <trkpt lat="46.29249" lon="-0.482">
        <ele>68</ele>
        <time>2012-01-10T14:50:57Z</time>
      </trkpt>
      <trkpt lat="46.29243" lon="-0.48204">
        <ele>68</ele>
        <time>2012-01-10T14:51:02Z</time>
      </trkpt>
      <trkpt lat="46.29237" lon="-0.48208">
        <ele>68</ele>
        <time>2012-01-10T14:51:07Z</time>
      </trkpt>
      <trkpt lat="46.29231" lon="-0.48213">
        <ele>67</ele>
        <time>2012-01-10T14:51:12Z</time>
      </trkpt>
      <trkpt lat="46.29226" lon="-0.48216">
        <ele>67</ele>
        <time>2012-01-10T14:51:17Z</time>
      </trkpt>
      <trkpt lat="46.29221" lon="-0.4822">
        <ele>66</ele>
        <time>2012-01-10T14:51:22Z</time>
      </trkpt>
      <trkpt lat="46.29215" lon="-0.48223">
        <ele>66</ele>
        <time>2012-01-10T14:51:27Z</time>
      </trkpt>
      <trkpt lat="46.2921" lon="-0.48225">
        <ele>67</ele>
        <time>2012-01-10T14:51:32Z</time>
      </trkpt>
      <trkpt lat="46.29207" lon="-0.48227">
        <ele>67</ele>
        <time>2012-01-10T14:51:37Z</time>
      </trkpt>
      <trkpt lat="46.29202" lon="-0.48229">
        <ele>66</ele>
        <time>2012-01-10T14:51:42Z</time>
      </trkpt>
      <trkpt lat="46.29197" lon="-0.48231">
        <ele>66</ele>
        <time>2012-01-10T14:51:47Z</time>
      </trkpt>
      <trkpt lat="46.29192" lon="-0.48235">
        <ele>66</ele>
        <time>2012-01-10T14:51:52Z</time>
      </trkpt>
      <trkpt lat="46.29187" lon="-0.48239">
        <ele>65</ele>
        <time>2012-01-10T14:51:57Z</time>
      </trkpt>
      <trkpt lat="46.29182" lon="-0.48242">
        <ele>65</ele>
        <time>2012-01-10T14:52:02Z</time>
      </trkpt>
      <trkpt lat="46.29177" lon="-0.48246">
        <ele>65</ele>
        <time>2012-01-10T14:52:07Z</time>
      </trkpt>
      <trkpt lat="46.29173" lon="-0.48248">
        <ele>64</ele>
        <time>2012-01-10T14:52:12Z</time>
      </trkpt>
      <trkpt lat="46.29167" lon="-0.48252">
        <ele>66</ele>
        <time>2012-01-10T14:52:17Z</time>
      </trkpt>
      <trkpt lat="46.29162" lon="-0.48255">
        <ele>66</ele>
        <time>2012-01-10T14:52:22Z</time>
      </trkpt>
      <trkpt lat="46.29158" lon="-0.48258">
        <ele>67</ele>
        <time>2012-01-10T14:52:27Z</time>
      </trkpt>
      <trkpt lat="46.29154" lon="-0.48258">
        <ele>67</ele>
        <time>2012-01-10T14:52:32Z</time>
      </trkpt>
      <trkpt lat="46.29153" lon="-0.48258">
        <ele>67</ele>
        <time>2012-01-10T14:52:37Z</time>
      </trkpt>
      <trkpt lat="46.29152" lon="-0.48256">
        <ele>66</ele>
        <time>2012-01-10T14:52:42Z</time>
      </trkpt>
      <trkpt lat="46.29151" lon="-0.48254">
        <ele>65</ele>
        <time>2012-01-10T14:52:47Z</time>
      </trkpt>
      <trkpt lat="46.29148" lon="-0.4825">
        <ele>64</ele>
        <time>2012-01-10T14:52:52Z</time>
      </trkpt>
      <trkpt lat="46.29146" lon="-0.48243">
        <ele>65</ele>
        <time>2012-01-10T14:52:57Z</time>
      </trkpt>
      <trkpt lat="46.29143" lon="-0.48237">
        <ele>65</ele>
        <time>2012-01-10T14:53:02Z</time>
      </trkpt>
      <trkpt lat="46.2914" lon="-0.48229">
        <ele>64</ele>
        <time>2012-01-10T14:53:07Z</time>
      </trkpt>
      <trkpt lat="46.29138" lon="-0.48222">
        <ele>64</ele>
        <time>2012-01-10T14:53:12Z</time>
      </trkpt>
      <trkpt lat="46.29137" lon="-0.48215">
        <ele>62</ele>
        <time>2012-01-10T14:53:17Z</time>
      </trkpt>
      <trkpt lat="46.29135" lon="-0.48208">
        <ele>61</ele>
        <time>2012-01-10T14:53:22Z</time>
      </trkpt>
      <trkpt lat="46.29133" lon="-0.48203">
        <ele>60</ele>
        <time>2012-01-10T14:53:27Z</time>
      </trkpt>
      <trkpt lat="46.29131" lon="-0.48197">
        <ele>59</ele>
        <time>2012-01-10T14:53:32Z</time>
      </trkpt>
      <trkpt lat="46.29129" lon="-0.4819">
        <ele>59</ele>
        <time>2012-01-10T14:53:37Z</time>
      </trkpt>
      <trkpt lat="46.29126" lon="-0.48182">
        <ele>59</ele>
        <time>2012-01-10T14:53:42Z</time>
      </trkpt>
      <trkpt lat="46.29124" lon="-0.48175">
        <ele>58</ele>
        <time>2012-01-10T14:53:47Z</time>
      </trkpt>
      <trkpt lat="46.29122" lon="-0.48167">
        <ele>58</ele>
        <time>2012-01-10T14:53:52Z</time>
      </trkpt>
      <trkpt lat="46.29119" lon="-0.48158">
        <ele>58</ele>
        <time>2012-01-10T14:53:57Z</time>
      </trkpt>
      <trkpt lat="46.29117" lon="-0.48149">
        <ele>59</ele>
        <time>2012-01-10T14:54:02Z</time>
      </trkpt>
      <trkpt lat="46.29115" lon="-0.48143">
        <ele>58</ele>
        <time>2012-01-10T14:54:07Z</time>
      </trkpt>
      <trkpt lat="46.29112" lon="-0.48135">
        <ele>58</ele>
        <time>2012-01-10T14:54:12Z</time>
      </trkpt>
      <trkpt lat="46.29111" lon="-0.48126">
        <ele>59</ele>
        <time>2012-01-10T14:54:17Z</time>
      </trkpt>
      <trkpt lat="46.29109" lon="-0.48118">
        <ele>59</ele>
        <time>2012-01-10T14:54:22Z</time>
      </trkpt>
      <trkpt lat="46.29106" lon="-0.4811">
        <ele>59</ele>
        <time>2012-01-10T14:54:27Z</time>
      </trkpt>
      <trkpt lat="46.29103" lon="-0.48101">
        <ele>59</ele>
        <time>2012-01-10T14:54:32Z</time>
      </trkpt>
      <trkpt lat="46.29101" lon="-0.48093">
        <ele>58</ele>
        <time>2012-01-10T14:54:37Z</time>
      </trkpt>
      <trkpt lat="46.291" lon="-0.48086">
        <ele>57</ele>
        <time>2012-01-10T14:54:42Z</time>
      </trkpt>
      <trkpt lat="46.29097" lon="-0.48081">
        <ele>56</ele>
        <time>2012-01-10T14:54:47Z</time>
      </trkpt>
      <trkpt lat="46.29096" lon="-0.48072">
        <ele>54</ele>
        <time>2012-01-10T14:54:52Z</time>
      </trkpt>
      <trkpt lat="46.29094" lon="-0.48066">
        <ele>54</ele>
        <time>2012-01-10T14:54:57Z</time>
      </trkpt>
      <trkpt lat="46.29092" lon="-0.48056">
        <ele>54</ele>
        <time>2012-01-10T14:55:02Z</time>
      </trkpt>
      <trkpt lat="46.2909" lon="-0.48049">
        <ele>55</ele>
        <time>2012-01-10T14:55:07Z</time>
      </trkpt>
      <trkpt lat="46.29088" lon="-0.48043">
        <ele>54</ele>
        <time>2012-01-10T14:55:12Z</time>
      </trkpt>
      <trkpt lat="46.29086" lon="-0.4804">
        <ele>54</ele>
        <time>2012-01-10T14:55:17Z</time>
      </trkpt>
      <trkpt lat="46.29085" lon="-0.48028">
        <ele>53</ele>
        <time>2012-01-10T14:55:22Z</time>
      </trkpt>
      <trkpt lat="46.29082" lon="-0.48019">
        <ele>53</ele>
        <time>2012-01-10T14:55:27Z</time>
      </trkpt>
      <trkpt lat="46.29081" lon="-0.4801">
        <ele>54</ele>
        <time>2012-01-10T14:55:32Z</time>
      </trkpt>
      <trkpt lat="46.29079" lon="-0.47994">
        <ele>57</ele>
        <time>2012-01-10T14:55:37Z</time>
      </trkpt>
      <trkpt lat="46.29078" lon="-0.47988">
        <ele>57</ele>
        <time>2012-01-10T14:55:42Z</time>
      </trkpt>
      <trkpt lat="46.29077" lon="-0.47987">
        <ele>55</ele>
        <time>2012-01-10T14:55:47Z</time>
      </trkpt>
      <trkpt lat="46.29074" lon="-0.4798">
        <ele>55</ele>
        <time>2012-01-10T14:55:52Z</time>
      </trkpt>
      <trkpt lat="46.29072" lon="-0.47972">
        <ele>55</ele>
        <time>2012-01-10T14:55:57Z</time>
      </trkpt>
      <trkpt lat="46.29069" lon="-0.4796">
        <ele>54</ele>
        <time>2012-01-10T14:56:02Z</time>
      </trkpt>
      <trkpt lat="46.29069" lon="-0.47963">
        <ele>53</ele>
        <time>2012-01-10T14:56:07Z</time>
      </trkpt>
      <trkpt lat="46.29065" lon="-0.4795">
        <ele>53</ele>
        <time>2012-01-10T14:56:12Z</time>
      </trkpt>
      <trkpt lat="46.29064" lon="-0.47948">
        <ele>53</ele>
        <time>2012-01-10T14:56:17Z</time>
      </trkpt>
      <trkpt lat="46.29063" lon="-0.4794">
        <ele>53</ele>
        <time>2012-01-10T14:56:22Z</time>
      </trkpt>
      <trkpt lat="46.29061" lon="-0.47929">
        <ele>54</ele>
        <time>2012-01-10T14:56:27Z</time>
      </trkpt>
      <trkpt lat="46.29059" lon="-0.47914">
        <ele>58</ele>
        <time>2012-01-10T14:56:32Z</time>
      </trkpt>
      <trkpt lat="46.29057" lon="-0.47898">
        <ele>60</ele>
        <time>2012-01-10T14:56:37Z</time>
      </trkpt>
      <trkpt lat="46.29056" lon="-0.47891">
        <ele>61</ele>
        <time>2012-01-10T14:56:42Z</time>
      </trkpt>
      <trkpt lat="46.29053" lon="-0.47882">
        <ele>61</ele>
        <time>2012-01-10T14:56:47Z</time>
      </trkpt>
      <trkpt lat="46.29051" lon="-0.47877">
        <ele>61</ele>
        <time>2012-01-10T14:56:52Z</time>
      </trkpt>
      <trkpt lat="46.2905" lon="-0.47877">
        <ele>60</ele>
        <time>2012-01-10T14:56:57Z</time>
      </trkpt>
      <trkpt lat="46.29048" lon="-0.4787">
        <ele>57</ele>
        <time>2012-01-10T14:57:02Z</time>
      </trkpt>
      <trkpt lat="46.29045" lon="-0.4785">
        <ele>61</ele>
        <time>2012-01-10T14:57:07Z</time>
      </trkpt>
      <trkpt lat="46.29044" lon="-0.47841">
        <ele>63</ele>
        <time>2012-01-10T14:57:12Z</time>
      </trkpt>
      <trkpt lat="46.29043" lon="-0.47837">
        <ele>63</ele>
        <time>2012-01-10T14:57:17Z</time>
      </trkpt>
      <trkpt lat="46.29041" lon="-0.47831">
        <ele>62</ele>
        <time>2012-01-10T14:57:22Z</time>
      </trkpt>
      <trkpt lat="46.29038" lon="-0.47825">
        <ele>62</ele>
        <time>2012-01-10T14:57:27Z</time>
      </trkpt>
      <trkpt lat="46.29036" lon="-0.47813">
        <ele>63</ele>
        <time>2012-01-10T14:57:32Z</time>
      </trkpt>
      <trkpt lat="46.29033" lon="-0.47804">
        <ele>62</ele>
        <time>2012-01-10T14:57:37Z</time>
      </trkpt>
      <trkpt lat="46.2903" lon="-0.47797">
        <ele>62</ele>
        <time>2012-01-10T14:57:42Z</time>
      </trkpt>
      <trkpt lat="46.29028" lon="-0.47792">
        <ele>62</ele>
        <time>2012-01-10T14:57:47Z</time>
      </trkpt>
      <trkpt lat="46.29025" lon="-0.47784">
        <ele>61</ele>
        <time>2012-01-10T14:57:52Z</time>
      </trkpt>
      <trkpt lat="46.29022" lon="-0.47778">
        <ele>60</ele>
        <time>2012-01-10T14:57:57Z</time>
      </trkpt>
      <trkpt lat="46.29019" lon="-0.47772">
        <ele>59</ele>
        <time>2012-01-10T14:58:02Z</time>
      </trkpt>
      <trkpt lat="46.29016" lon="-0.47767">
        <ele>58</ele>
        <time>2012-01-10T14:58:07Z</time>
      </trkpt>
      <trkpt lat="46.29012" lon="-0.47759">
        <ele>59</ele>
        <time>2012-01-10T14:58:12Z</time>
      </trkpt>
      <trkpt lat="46.29007" lon="-0.47754">
        <ele>59</ele>
        <time>2012-01-10T14:58:17Z</time>
      </trkpt>
      <trkpt lat="46.29004" lon="-0.47748">
        <ele>59</ele>
        <time>2012-01-10T14:58:22Z</time>
      </trkpt>
      <trkpt lat="46.28997" lon="-0.4774">
        <ele>58</ele>
        <time>2012-01-10T14:58:27Z</time>
      </trkpt>
      <trkpt lat="46.28992" lon="-0.47733">
        <ele>59</ele>
        <time>2012-01-10T14:58:32Z</time>
      </trkpt>
      <trkpt lat="46.28986" lon="-0.47728">
        <ele>60</ele>
        <time>2012-01-10T14:58:37Z</time>
      </trkpt>
      <trkpt lat="46.28981" lon="-0.47724">
        <ele>61</ele>
        <time>2012-01-10T14:58:42Z</time>
      </trkpt>
      <trkpt lat="46.28976" lon="-0.4772">
        <ele>60</ele>
        <time>2012-01-10T14:58:47Z</time>
      </trkpt>
      <trkpt lat="46.28971" lon="-0.47715">
        <ele>61</ele>
        <time>2012-01-10T14:58:52Z</time>
      </trkpt>
      <trkpt lat="46.28966" lon="-0.47711">
        <ele>61</ele>
        <time>2012-01-10T14:58:57Z</time>
      </trkpt>
      <trkpt lat="46.28962" lon="-0.47704">
        <ele>62</ele>
        <time>2012-01-10T14:59:02Z</time>
      </trkpt>
      <trkpt lat="46.28957" lon="-0.47699">
        <ele>63</ele>
        <time>2012-01-10T14:59:07Z</time>
      </trkpt>
      <trkpt lat="46.28955" lon="-0.47693">
        <ele>63</ele>
        <time>2012-01-10T14:59:12Z</time>
      </trkpt>
      <trkpt lat="46.28952" lon="-0.47687">
        <ele>64</ele>
        <time>2012-01-10T14:59:17Z</time>
      </trkpt>
      <trkpt lat="46.2895" lon="-0.47678">
        <ele>65</ele>
        <time>2012-01-10T14:59:22Z</time>
      </trkpt>
      <trkpt lat="46.2895" lon="-0.4767">
        <ele>65</ele>
        <time>2012-01-10T14:59:27Z</time>
      </trkpt>
      <trkpt lat="46.28949" lon="-0.47662">
        <ele>66</ele>
        <time>2012-01-10T14:59:32Z</time>
      </trkpt>
      <trkpt lat="46.2895" lon="-0.47654">
        <ele>66</ele>
        <time>2012-01-10T14:59:37Z</time>
      </trkpt>
      <trkpt lat="46.28949" lon="-0.47646">
        <ele>65</ele>
        <time>2012-01-10T14:59:42Z</time>
      </trkpt>
      <trkpt lat="46.28949" lon="-0.47637">
        <ele>65</ele>
        <time>2012-01-10T14:59:47Z</time>
      </trkpt>
      <trkpt lat="46.28949" lon="-0.47629">
        <ele>64</ele>
        <time>2012-01-10T14:59:52Z</time>
      </trkpt>
      <trkpt lat="46.28948" lon="-0.4762">
        <ele>62</ele>
        <time>2012-01-10T14:59:57Z</time>
      </trkpt>
      <trkpt lat="46.28949" lon="-0.47618">
        <ele>62</ele>
        <time>2012-01-10T15:00:02Z</time>
      </trkpt>
      <trkpt lat="46.28949" lon="-0.47614">
        <ele>63</ele>
        <time>2012-01-10T15:00:07Z</time>
      </trkpt>
      <trkpt lat="46.2895" lon="-0.47609">
        <ele>63</ele>
        <time>2012-01-10T15:00:12Z</time>
      </trkpt>
      <trkpt lat="46.28953" lon="-0.47603">
        <ele>62</ele>
        <time>2012-01-10T15:00:17Z</time>
      </trkpt>
      <trkpt lat="46.28958" lon="-0.47598">
        <ele>64</ele>
        <time>2012-01-10T15:00:22Z</time>
      </trkpt>
      <trkpt lat="46.28962" lon="-0.47594">
        <ele>62</ele>
        <time>2012-01-10T15:00:27Z</time>
      </trkpt>
      <trkpt lat="46.28967" lon="-0.47589">
        <ele>61</ele>
        <time>2012-01-10T15:00:32Z</time>
      </trkpt>
      <trkpt lat="46.2897" lon="-0.47585">
        <ele>61</ele>
        <time>2012-01-10T15:00:37Z</time>
      </trkpt>
      <trkpt lat="46.28975" lon="-0.4758">
        <ele>62</ele>
        <time>2012-01-10T15:00:42Z</time>
      </trkpt>
      <trkpt lat="46.2898" lon="-0.47574">
        <ele>62</ele>
        <time>2012-01-10T15:00:47Z</time>
      </trkpt>
      <trkpt lat="46.28985" lon="-0.47571">
        <ele>61</ele>
        <time>2012-01-10T15:00:52Z</time>
      </trkpt>
      <trkpt lat="46.2899" lon="-0.47566">
        <ele>60</ele>
        <time>2012-01-10T15:00:57Z</time>
      </trkpt>
      <trkpt lat="46.28993" lon="-0.47562">
        <ele>59</ele>
        <time>2012-01-10T15:01:02Z</time>
      </trkpt>
      <trkpt lat="46.28999" lon="-0.47557">
        <ele>61</ele>
        <time>2012-01-10T15:01:07Z</time>
      </trkpt>
      <trkpt lat="46.29003" lon="-0.47552">
        <ele>62</ele>
        <time>2012-01-10T15:01:12Z</time>
      </trkpt>
      <trkpt lat="46.29007" lon="-0.47549">
        <ele>60</ele>
        <time>2012-01-10T15:01:17Z</time>
      </trkpt>
      <trkpt lat="46.2901" lon="-0.47544">
        <ele>59</ele>
        <time>2012-01-10T15:01:22Z</time>
      </trkpt>
      <trkpt lat="46.29013" lon="-0.47543">
        <ele>60</ele>
        <time>2012-01-10T15:01:27Z</time>
      </trkpt>
      <trkpt lat="46.29013" lon="-0.47543">
        <ele>60</ele>
        <time>2012-01-10T15:01:32Z</time>
      </trkpt>
      <trkpt lat="46.29017" lon="-0.4754">
        <ele>61</ele>
        <time>2012-01-10T15:01:42Z</time>
      </trkpt>
      <trkpt lat="46.29022" lon="-0.47536">
        <ele>62</ele>
        <time>2012-01-10T15:01:47Z</time>
      </trkpt>
      <trkpt lat="46.29025" lon="-0.47533">
        <ele>61</ele>
        <time>2012-01-10T15:01:52Z</time>
      </trkpt>
      <trkpt lat="46.29029" lon="-0.47528">
        <ele>62</ele>
        <time>2012-01-10T15:01:57Z</time>
      </trkpt>
      <trkpt lat="46.29034" lon="-0.47523">
        <ele>62</ele>
        <time>2012-01-10T15:02:02Z</time>
      </trkpt>
      <trkpt lat="46.29036" lon="-0.47516">
        <ele>62</ele>
        <time>2012-01-10T15:02:07Z</time>
      </trkpt>
      <trkpt lat="46.29041" lon="-0.47513">
        <ele>61</ele>
        <time>2012-01-10T15:02:12Z</time>
      </trkpt>
      <trkpt lat="46.29045" lon="-0.47508">
        <ele>62</ele>
        <time>2012-01-10T15:02:17Z</time>
      </trkpt>
      <trkpt lat="46.2905" lon="-0.47504">
        <ele>61</ele>
        <time>2012-01-10T15:02:22Z</time>
      </trkpt>
      <trkpt lat="46.29054" lon="-0.475">
        <ele>60</ele>
        <time>2012-01-10T15:02:27Z</time>
      </trkpt>
      <trkpt lat="46.29059" lon="-0.47495">
        <ele>60</ele>
        <time>2012-01-10T15:02:32Z</time>
      </trkpt>
      <trkpt lat="46.29063" lon="-0.4749">
        <ele>61</ele>
        <time>2012-01-10T15:02:37Z</time>
      </trkpt>
      <trkpt lat="46.29068" lon="-0.47485">
        <ele>62</ele>
        <time>2012-01-10T15:02:42Z</time>
      </trkpt>
      <trkpt lat="46.29072" lon="-0.47479">
        <ele>63</ele>
        <time>2012-01-10T15:02:47Z</time>
      </trkpt>
      <trkpt lat="46.29077" lon="-0.47475">
        <ele>63</ele>
        <time>2012-01-10T15:02:52Z</time>
      </trkpt>
      <trkpt lat="46.29081" lon="-0.47469">
        <ele>64</ele>
        <time>2012-01-10T15:02:57Z</time>
      </trkpt>
      <trkpt lat="46.29086" lon="-0.47464">
        <ele>63</ele>
        <time>2012-01-10T15:03:02Z</time>
      </trkpt>
      <trkpt lat="46.29088" lon="-0.47459">
        <ele>62</ele>
        <time>2012-01-10T15:03:07Z</time>
      </trkpt>
      <trkpt lat="46.29093" lon="-0.47453">
        <ele>61</ele>
        <time>2012-01-10T15:03:12Z</time>
      </trkpt>
      <trkpt lat="46.29098" lon="-0.47449">
        <ele>61</ele>
        <time>2012-01-10T15:03:17Z</time>
      </trkpt>
      <trkpt lat="46.29101" lon="-0.47444">
        <ele>60</ele>
        <time>2012-01-10T15:03:22Z</time>
      </trkpt>
      <trkpt lat="46.29105" lon="-0.47439">
        <ele>59</ele>
        <time>2012-01-10T15:03:27Z</time>
      </trkpt>
      <trkpt lat="46.29111" lon="-0.47434">
        <ele>60</ele>
        <time>2012-01-10T15:03:32Z</time>
      </trkpt>
      <trkpt lat="46.29116" lon="-0.47428">
        <ele>61</ele>
        <time>2012-01-10T15:03:37Z</time>
      </trkpt>
      <trkpt lat="46.2912" lon="-0.47423">
        <ele>62</ele>
        <time>2012-01-10T15:03:42Z</time>
      </trkpt>
      <trkpt lat="46.29125" lon="-0.47417">
        <ele>63</ele>
        <time>2012-01-10T15:03:47Z</time>
      </trkpt>
      <trkpt lat="46.29129" lon="-0.47411">
        <ele>64</ele>
        <time>2012-01-10T15:03:52Z</time>
      </trkpt>
      <trkpt lat="46.29133" lon="-0.47405">
        <ele>62</ele>
        <time>2012-01-10T15:03:57Z</time>
      </trkpt>
      <trkpt lat="46.29138" lon="-0.47399">
        <ele>62</ele>
        <time>2012-01-10T15:04:02Z</time>
      </trkpt>
      <trkpt lat="46.29142" lon="-0.47394">
        <ele>60</ele>
        <time>2012-01-10T15:04:07Z</time>
      </trkpt>
      <trkpt lat="46.29146" lon="-0.47389">
        <ele>60</ele>
        <time>2012-01-10T15:04:12Z</time>
      </trkpt>
      <trkpt lat="46.29152" lon="-0.47383">
        <ele>59</ele>
        <time>2012-01-10T15:04:17Z</time>
      </trkpt>
      <trkpt lat="46.29157" lon="-0.47379">
        <ele>59</ele>
        <time>2012-01-10T15:04:22Z</time>
      </trkpt>
      <trkpt lat="46.29161" lon="-0.47374">
        <ele>59</ele>
        <time>2012-01-10T15:04:27Z</time>
      </trkpt>
      <trkpt lat="46.29167" lon="-0.47368">
        <ele>58</ele>
        <time>2012-01-10T15:04:32Z</time>
      </trkpt>
      <trkpt lat="46.29173" lon="-0.47365">
        <ele>60</ele>
        <time>2012-01-10T15:04:37Z</time>
      </trkpt>
      <trkpt lat="46.29177" lon="-0.47361">
        <ele>60</ele>
        <time>2012-01-10T15:04:42Z</time>
      </trkpt>
      <trkpt lat="46.29183" lon="-0.47358">
        <ele>61</ele>
        <time>2012-01-10T15:04:47Z</time>
      </trkpt>
      <trkpt lat="46.29188" lon="-0.47354">
        <ele>62</ele>
        <time>2012-01-10T15:04:52Z</time>
      </trkpt>
      <trkpt lat="46.29193" lon="-0.47351">
        <ele>61</ele>
        <time>2012-01-10T15:04:57Z</time>
      </trkpt>
      <trkpt lat="46.29199" lon="-0.47348">
        <ele>62</ele>
        <time>2012-01-10T15:05:02Z</time>
      </trkpt>
      <trkpt lat="46.29205" lon="-0.47345">
        <ele>62</ele>
        <time>2012-01-10T15:05:07Z</time>
      </trkpt>
      <trkpt lat="46.2921" lon="-0.47342">
        <ele>61</ele>
        <time>2012-01-10T15:05:12Z</time>
      </trkpt>
      <trkpt lat="46.29216" lon="-0.47339">
        <ele>62</ele>
        <time>2012-01-10T15:05:17Z</time>
      </trkpt>
      <trkpt lat="46.29222" lon="-0.47336">
        <ele>65</ele>
        <time>2012-01-10T15:05:22Z</time>
      </trkpt>
      <trkpt lat="46.29227" lon="-0.47333">
        <ele>67</ele>
        <time>2012-01-10T15:05:27Z</time>
      </trkpt>
      <trkpt lat="46.29233" lon="-0.47329">
        <ele>67</ele>
        <time>2012-01-10T15:05:32Z</time>
      </trkpt>
      <trkpt lat="46.29238" lon="-0.47325">
        <ele>69</ele>
        <time>2012-01-10T15:05:37Z</time>
      </trkpt>
      <trkpt lat="46.29243" lon="-0.47321">
        <ele>70</ele>
        <time>2012-01-10T15:05:42Z</time>
      </trkpt>
      <trkpt lat="46.29249" lon="-0.47317">
        <ele>70</ele>
        <time>2012-01-10T15:05:47Z</time>
      </trkpt>
      <trkpt lat="46.29254" lon="-0.47314">
        <ele>70</ele>
        <time>2012-01-10T15:05:52Z</time>
      </trkpt>
      <trkpt lat="46.29259" lon="-0.47309">
        <ele>70</ele>
        <time>2012-01-10T15:05:57Z</time>
      </trkpt>
      <trkpt lat="46.29265" lon="-0.47307">
        <ele>69</ele>
        <time>2012-01-10T15:06:02Z</time>
      </trkpt>
      <trkpt lat="46.2927" lon="-0.47302">
        <ele>68</ele>
        <time>2012-01-10T15:06:07Z</time>
      </trkpt>
      <trkpt lat="46.29275" lon="-0.47299">
        <ele>67</ele>
        <time>2012-01-10T15:06:12Z</time>
      </trkpt>
      <trkpt lat="46.29281" lon="-0.47296">
        <ele>66</ele>
        <time>2012-01-10T15:06:17Z</time>
      </trkpt>
      <trkpt lat="46.29285" lon="-0.47292">
        <ele>66</ele>
        <time>2012-01-10T15:06:22Z</time>
      </trkpt>
      <trkpt lat="46.29289" lon="-0.47289">
        <ele>65</ele>
        <time>2012-01-10T15:06:27Z</time>
      </trkpt>
      <trkpt lat="46.29295" lon="-0.47286">
        <ele>65</ele>
        <time>2012-01-10T15:06:32Z</time>
      </trkpt>
      <trkpt lat="46.293" lon="-0.4728">
        <ele>65</ele>
        <time>2012-01-10T15:06:37Z</time>
      </trkpt>
      <trkpt lat="46.29307" lon="-0.47277">
        <ele>66</ele>
        <time>2012-01-10T15:06:42Z</time>
      </trkpt>
      <trkpt lat="46.29314" lon="-0.47274">
        <ele>67</ele>
        <time>2012-01-10T15:06:47Z</time>
      </trkpt>
      <trkpt lat="46.2932" lon="-0.47272">
        <ele>67</ele>
        <time>2012-01-10T15:06:52Z</time>
      </trkpt>
      <trkpt lat="46.29325" lon="-0.47269">
        <ele>67</ele>
        <time>2012-01-10T15:06:57Z</time>
      </trkpt>
      <trkpt lat="46.29331" lon="-0.47266">
        <ele>66</ele>
        <time>2012-01-10T15:07:02Z</time>
      </trkpt>
      <trkpt lat="46.29335" lon="-0.47262">
        <ele>66</ele>
        <time>2012-01-10T15:07:07Z</time>
      </trkpt>
      <trkpt lat="46.29339" lon="-0.47258">
        <ele>66</ele>
        <time>2012-01-10T15:07:12Z</time>
      </trkpt>
      <trkpt lat="46.29344" lon="-0.47255">
        <ele>67</ele>
        <time>2012-01-10T15:07:17Z</time>
      </trkpt>
      <trkpt lat="46.29349" lon="-0.47251">
        <ele>69</ele>
        <time>2012-01-10T15:07:22Z</time>
      </trkpt>
      <trkpt lat="46.29355" lon="-0.47247">
        <ele>71</ele>
        <time>2012-01-10T15:07:27Z</time>
      </trkpt>
      <trkpt lat="46.29361" lon="-0.47244">
        <ele>74</ele>
        <time>2012-01-10T15:07:32Z</time>
      </trkpt>
      <trkpt lat="46.29366" lon="-0.4724">
        <ele>73</ele>
        <time>2012-01-10T15:07:37Z</time>
      </trkpt>
      <trkpt lat="46.29369" lon="-0.47239">
        <ele>72</ele>
        <time>2012-01-10T15:07:42Z</time>
      </trkpt>
      <trkpt lat="46.29375" lon="-0.47234">
        <ele>70</ele>
        <time>2012-01-10T15:07:47Z</time>
      </trkpt>
      <trkpt lat="46.29384" lon="-0.47232">
        <ele>71</ele>
        <time>2012-01-10T15:07:52Z</time>
      </trkpt>
      <trkpt lat="46.29389" lon="-0.47234">
        <ele>71</ele>
        <time>2012-01-10T15:07:57Z</time>
      </trkpt>
      <trkpt lat="46.29391" lon="-0.47237">
        <ele>71</ele>
        <time>2012-01-10T15:08:02Z</time>
      </trkpt>
      <trkpt lat="46.29395" lon="-0.47242">
        <ele>71</ele>
        <time>2012-01-10T15:08:07Z</time>
      </trkpt>
      <trkpt lat="46.294" lon="-0.47242">
        <ele>69</ele>
        <time>2012-01-10T15:08:12Z</time>
      </trkpt>
      <trkpt lat="46.29404" lon="-0.47246">
        <ele>69</ele>
        <time>2012-01-10T15:08:17Z</time>
      </trkpt>
      <trkpt lat="46.2941" lon="-0.47249">
        <ele>68</ele>
        <time>2012-01-10T15:08:22Z</time>
      </trkpt>
      <trkpt lat="46.29416" lon="-0.47252">
        <ele>67</ele>
        <time>2012-01-10T15:08:27Z</time>
      </trkpt>
      <trkpt lat="46.2942" lon="-0.47258">
        <ele>67</ele>
        <time>2012-01-10T15:08:32Z</time>
      </trkpt>
      <trkpt lat="46.29422" lon="-0.4727">
        <ele>67</ele>
        <time>2012-01-10T15:08:37Z</time>
      </trkpt>
      <trkpt lat="46.29425" lon="-0.47276">
        <ele>68</ele>
        <time>2012-01-10T15:08:42Z</time>
      </trkpt>
      <trkpt lat="46.29427" lon="-0.47282">
        <ele>67</ele>
        <time>2012-01-10T15:08:47Z</time>
      </trkpt>
      <trkpt lat="46.29429" lon="-0.47292">
        <ele>69</ele>
        <time>2012-01-10T15:08:52Z</time>
      </trkpt>
      <trkpt lat="46.29431" lon="-0.47299">
        <ele>70</ele>
        <time>2012-01-10T15:08:57Z</time>
      </trkpt>
      <trkpt lat="46.29433" lon="-0.47307">
        <ele>70</ele>
        <time>2012-01-10T15:09:02Z</time>
      </trkpt>
      <trkpt lat="46.29433" lon="-0.47316">
        <ele>71</ele>
        <time>2012-01-10T15:09:07Z</time>
      </trkpt>
      <trkpt lat="46.29436" lon="-0.47324">
        <ele>72</ele>
        <time>2012-01-10T15:09:12Z</time>
      </trkpt>
      <trkpt lat="46.29435" lon="-0.47334">
        <ele>70</ele>
        <time>2012-01-10T15:09:17Z</time>
      </trkpt>
      <trkpt lat="46.29436" lon="-0.47341">
        <ele>70</ele>
        <time>2012-01-10T15:09:22Z</time>
      </trkpt>
      <trkpt lat="46.29438" lon="-0.47348">
        <ele>69</ele>
        <time>2012-01-10T15:09:27Z</time>
      </trkpt>
      <trkpt lat="46.29441" lon="-0.47355">
        <ele>69</ele>
        <time>2012-01-10T15:09:32Z</time>
      </trkpt>
      <trkpt lat="46.29442" lon="-0.47363">
        <ele>68</ele>
        <time>2012-01-10T15:09:37Z</time>
      </trkpt>
      <trkpt lat="46.29444" lon="-0.47365">
        <ele>67</ele>
        <time>2012-01-10T15:09:42Z</time>
      </trkpt>
      <trkpt lat="46.29444" lon="-0.47378">
        <ele>69</ele>
        <time>2012-01-10T15:09:47Z</time>
      </trkpt>
      <trkpt lat="46.29446" lon="-0.47386">
        <ele>67</ele>
        <time>2012-01-10T15:09:52Z</time>
      </trkpt>
      <trkpt lat="46.29448" lon="-0.47392">
        <ele>67</ele>
        <time>2012-01-10T15:09:57Z</time>
      </trkpt>
      <trkpt lat="46.29446" lon="-0.47403">
        <ele>66</ele>
        <time>2012-01-10T15:10:02Z</time>
      </trkpt>
      <trkpt lat="46.29447" lon="-0.47412">
        <ele>67</ele>
        <time>2012-01-10T15:10:07Z</time>
      </trkpt>
      <trkpt lat="46.29448" lon="-0.47419">
        <ele>67</ele>
        <time>2012-01-10T15:10:12Z</time>
      </trkpt>
      <trkpt lat="46.2945" lon="-0.47427">
        <ele>67</ele>
        <time>2012-01-10T15:10:17Z</time>
      </trkpt>
      <trkpt lat="46.2945" lon="-0.47435">
        <ele>65</ele>
        <time>2012-01-10T15:10:22Z</time>
      </trkpt>
      <trkpt lat="46.29451" lon="-0.4744">
        <ele>64</ele>
        <time>2012-01-10T15:10:27Z</time>
      </trkpt>
      <trkpt lat="46.2945" lon="-0.47447">
        <ele>65</ele>
        <time>2012-01-10T15:10:32Z</time>
      </trkpt>
      <trkpt lat="46.29449" lon="-0.47448">
        <ele>66</ele>
        <time>2012-01-10T15:10:37Z</time>
      </trkpt>
      <trkpt lat="46.2945" lon="-0.47451">
        <ele>67</ele>
        <time>2012-01-10T15:10:42Z</time>
      </trkpt>
      <trkpt lat="46.2945" lon="-0.47453">
        <ele>67</ele>
        <time>2012-01-10T15:10:47Z</time>
      </trkpt>
      <trkpt lat="46.29449" lon="-0.47454">
        <ele>67</ele>
        <time>2012-01-10T15:10:52Z</time>
      </trkpt>
      <trkpt lat="46.2945" lon="-0.47455">
        <ele>67</ele>
        <time>2012-01-10T15:11:02Z</time>
      </trkpt>
      <trkpt lat="46.29449" lon="-0.47462">
        <ele>65</ele>
        <time>2012-01-10T15:11:07Z</time>
      </trkpt>
      <trkpt lat="46.29453" lon="-0.47465">
        <ele>63</ele>
        <time>2012-01-10T15:11:12Z</time>
      </trkpt>
      <trkpt lat="46.29452" lon="-0.47477">
        <ele>65</ele>
        <time>2012-01-10T15:11:17Z</time>
      </trkpt>
      <trkpt lat="46.29453" lon="-0.47484">
        <ele>67</ele>
        <time>2012-01-10T15:11:22Z</time>
      </trkpt>
      <trkpt lat="46.29455" lon="-0.47495">
        <ele>69</ele>
        <time>2012-01-10T15:11:27Z</time>
      </trkpt>
      <trkpt lat="46.29455" lon="-0.47503">
        <ele>69</ele>
        <time>2012-01-10T15:11:32Z</time>
      </trkpt>
      <trkpt lat="46.29457" lon="-0.47512">
        <ele>69</ele>
        <time>2012-01-10T15:11:37Z</time>
      </trkpt>
      <trkpt lat="46.29458" lon="-0.47519">
        <ele>70</ele>
        <time>2012-01-10T15:11:42Z</time>
      </trkpt>
      <trkpt lat="46.29458" lon="-0.47529">
        <ele>71</ele>
        <time>2012-01-10T15:11:47Z</time>
      </trkpt>
      <trkpt lat="46.29459" lon="-0.47538">
        <ele>73</ele>
        <time>2012-01-10T15:11:52Z</time>
      </trkpt>
      <trkpt lat="46.29459" lon="-0.47546">
        <ele>72</ele>
        <time>2012-01-10T15:11:57Z</time>
      </trkpt>
      <trkpt lat="46.2946" lon="-0.47555">
        <ele>72</ele>
        <time>2012-01-10T15:12:02Z</time>
      </trkpt>
      <trkpt lat="46.2946" lon="-0.47565">
        <ele>73</ele>
        <time>2012-01-10T15:12:07Z</time>
      </trkpt>
      <trkpt lat="46.29461" lon="-0.47572">
        <ele>73</ele>
        <time>2012-01-10T15:12:12Z</time>
      </trkpt>
      <trkpt lat="46.29462" lon="-0.47581">
        <ele>73</ele>
        <time>2012-01-10T15:12:17Z</time>
      </trkpt>
      <trkpt lat="46.29463" lon="-0.47589">
        <ele>73</ele>
        <time>2012-01-10T15:12:22Z</time>
      </trkpt>
      <trkpt lat="46.29463" lon="-0.47596">
        <ele>72</ele>
        <time>2012-01-10T15:12:27Z</time>
      </trkpt>
      <trkpt lat="46.29464" lon="-0.47605">
        <ele>72</ele>
        <time>2012-01-10T15:12:32Z</time>
      </trkpt>
      <trkpt lat="46.29463" lon="-0.47614">
        <ele>70</ele>
        <time>2012-01-10T15:12:37Z</time>
      </trkpt>
      <trkpt lat="46.29464" lon="-0.47622">
        <ele>70</ele>
        <time>2012-01-10T15:12:42Z</time>
      </trkpt>
      <trkpt lat="46.29465" lon="-0.47629">
        <ele>69</ele>
        <time>2012-01-10T15:12:47Z</time>
      </trkpt>
      <trkpt lat="46.29466" lon="-0.47638">
        <ele>68</ele>
        <time>2012-01-10T15:12:52Z</time>
      </trkpt>
      <trkpt lat="46.29466" lon="-0.47646">
        <ele>68</ele>
        <time>2012-01-10T15:12:57Z</time>
      </trkpt>
      <trkpt lat="46.29467" lon="-0.47654">
        <ele>68</ele>
        <time>2012-01-10T15:13:02Z</time>
      </trkpt>
      <trkpt lat="46.29465" lon="-0.47661">
        <ele>68</ele>
        <time>2012-01-10T15:13:07Z</time>
      </trkpt>
      <trkpt lat="46.29466" lon="-0.47668">
        <ele>67</ele>
        <time>2012-01-10T15:13:12Z</time>
      </trkpt>
      <trkpt lat="46.29466" lon="-0.47675">
        <ele>67</ele>
        <time>2012-01-10T15:13:17Z</time>
      </trkpt>
      <trkpt lat="46.29467" lon="-0.47682">
        <ele>66</ele>
        <time>2012-01-10T15:13:22Z</time>
      </trkpt>
      <trkpt lat="46.29465" lon="-0.47694">
        <ele>67</ele>
        <time>2012-01-10T15:13:27Z</time>
      </trkpt>
      <trkpt lat="46.29465" lon="-0.47705">
        <ele>67</ele>
        <time>2012-01-10T15:13:32Z</time>
      </trkpt>
      <trkpt lat="46.29466" lon="-0.47713">
        <ele>67</ele>
        <time>2012-01-10T15:13:37Z</time>
      </trkpt>
      <trkpt lat="46.29467" lon="-0.47723">
        <ele>68</ele>
        <time>2012-01-10T15:13:42Z</time>
      </trkpt>
      <trkpt lat="46.2947" lon="-0.4773">
        <ele>67</ele>
        <time>2012-01-10T15:13:47Z</time>
      </trkpt>
      <trkpt lat="46.29472" lon="-0.47739">
        <ele>67</ele>
        <time>2012-01-10T15:13:52Z</time>
      </trkpt>
      <trkpt lat="46.29473" lon="-0.4775">
        <ele>67</ele>
        <time>2012-01-10T15:13:57Z</time>
      </trkpt>
      <trkpt lat="46.29477" lon="-0.47754">
        <ele>67</ele>
        <time>2012-01-10T15:14:02Z</time>
      </trkpt>
      <trkpt lat="46.2948" lon="-0.47763">
        <ele>67</ele>
        <time>2012-01-10T15:14:07Z</time>
      </trkpt>
      <trkpt lat="46.29485" lon="-0.47768">
        <ele>68</ele>
        <time>2012-01-10T15:14:12Z</time>
      </trkpt>
      <trkpt lat="46.29488" lon="-0.47772">
        <ele>67</ele>
        <time>2012-01-10T15:14:17Z</time>
      </trkpt>
      <trkpt lat="46.29493" lon="-0.47776">
        <ele>66</ele>
        <time>2012-01-10T15:14:22Z</time>
      </trkpt>
      <trkpt lat="46.29497" lon="-0.47786">
        <ele>67</ele>
        <time>2012-01-10T15:14:27Z</time>
      </trkpt>
      <trkpt lat="46.29501" lon="-0.47793">
        <ele>66</ele>
        <time>2012-01-10T15:14:32Z</time>
      </trkpt>
      <trkpt lat="46.29505" lon="-0.478">
        <ele>66</ele>
        <time>2012-01-10T15:14:37Z</time>
      </trkpt>
      <trkpt lat="46.29509" lon="-0.47809">
        <ele>67</ele>
        <time>2012-01-10T15:14:42Z</time>
      </trkpt>
      <trkpt lat="46.29513" lon="-0.47814">
        <ele>66</ele>
        <time>2012-01-10T15:14:47Z</time>
      </trkpt>
      <trkpt lat="46.29519" lon="-0.47818">
        <ele>66</ele>
        <time>2012-01-10T15:14:52Z</time>
      </trkpt>
      <trkpt lat="46.29523" lon="-0.47825">
        <ele>67</ele>
        <time>2012-01-10T15:14:57Z</time>
      </trkpt>
      <trkpt lat="46.29525" lon="-0.47829">
        <ele>66</ele>
        <time>2012-01-10T15:15:02Z</time>
      </trkpt>
      <trkpt lat="46.2953" lon="-0.4783">
        <ele>63</ele>
        <time>2012-01-10T15:15:07Z</time>
      </trkpt>
      <trkpt lat="46.29535" lon="-0.47836">
        <ele>63</ele>
        <time>2012-01-10T15:15:12Z</time>
      </trkpt>
      <trkpt lat="46.29538" lon="-0.47842">
        <ele>61</ele>
        <time>2012-01-10T15:15:17Z</time>
      </trkpt>
      <trkpt lat="46.29542" lon="-0.47848">
        <ele>60</ele>
        <time>2012-01-10T15:15:22Z</time>
      </trkpt>
      <trkpt lat="46.29545" lon="-0.47859">
        <ele>62</ele>
        <time>2012-01-10T15:15:27Z</time>
      </trkpt>
      <trkpt lat="46.2955" lon="-0.47863">
        <ele>61</ele>
        <time>2012-01-10T15:15:32Z</time>
      </trkpt>
      <trkpt lat="46.29552" lon="-0.47872">
        <ele>65</ele>
        <time>2012-01-10T15:15:37Z</time>
      </trkpt>
      <trkpt lat="46.29557" lon="-0.47876">
        <ele>66</ele>
        <time>2012-01-10T15:15:42Z</time>
      </trkpt>
      <trkpt lat="46.29562" lon="-0.47885">
        <ele>67</ele>
        <time>2012-01-10T15:15:47Z</time>
      </trkpt>
      <trkpt lat="46.29565" lon="-0.47891">
        <ele>66</ele>
        <time>2012-01-10T15:15:52Z</time>
      </trkpt>
      <trkpt lat="46.29568" lon="-0.47897">
        <ele>66</ele>
        <time>2012-01-10T15:15:57Z</time>
      </trkpt>
      <trkpt lat="46.29572" lon="-0.47896">
        <ele>65</ele>
        <time>2012-01-10T15:16:02Z</time>
      </trkpt>
      <trkpt lat="46.29571" lon="-0.47895">
        <ele>65</ele>
        <time>2012-01-10T15:16:07Z</time>
      </trkpt>
      <trkpt lat="46.29573" lon="-0.47895">
        <ele>64</ele>
        <time>2012-01-10T15:16:12Z</time>
      </trkpt>
      <trkpt lat="46.29578" lon="-0.47893">
        <ele>65</ele>
        <time>2012-01-10T15:16:17Z</time>
      </trkpt>
      <trkpt lat="46.29583" lon="-0.47891">
        <ele>62</ele>
        <time>2012-01-10T15:16:22Z</time>
      </trkpt>
      <trkpt lat="46.29586" lon="-0.4789">
        <ele>64</ele>
        <time>2012-01-10T15:16:27Z</time>
      </trkpt>
      <trkpt lat="46.29601" lon="-0.4788">
        <ele>64</ele>
        <time>2012-01-10T15:16:37Z</time>
      </trkpt>
      <trkpt lat="46.29606" lon="-0.47877">
        <ele>64</ele>
        <time>2012-01-10T15:16:42Z</time>
      </trkpt>
      <trkpt lat="46.29612" lon="-0.47874">
        <ele>63</ele>
        <time>2012-01-10T15:16:47Z</time>
      </trkpt>
      <trkpt lat="46.29618" lon="-0.4787">
        <ele>64</ele>
        <time>2012-01-10T15:16:52Z</time>
      </trkpt>
      <trkpt lat="46.29625" lon="-0.47867">
        <ele>64</ele>
        <time>2012-01-10T15:16:57Z</time>
      </trkpt>
      <trkpt lat="46.29629" lon="-0.47865">
        <ele>64</ele>
        <time>2012-01-10T15:17:02Z</time>
      </trkpt>
      <trkpt lat="46.29634" lon="-0.47861">
        <ele>64</ele>
        <time>2012-01-10T15:17:07Z</time>
      </trkpt>
      <trkpt lat="46.29641" lon="-0.47857">
        <ele>64</ele>
        <time>2012-01-10T15:17:12Z</time>
      </trkpt>
      <trkpt lat="46.29646" lon="-0.47855">
        <ele>63</ele>
        <time>2012-01-10T15:17:17Z</time>
      </trkpt>
      <trkpt lat="46.29652" lon="-0.47854">
        <ele>64</ele>
        <time>2012-01-10T15:17:22Z</time>
      </trkpt>
      <trkpt lat="46.29656" lon="-0.47849">
        <ele>64</ele>
        <time>2012-01-10T15:17:27Z</time>
      </trkpt>
      <trkpt lat="46.29663" lon="-0.47845">
        <ele>65</ele>
        <time>2012-01-10T15:17:32Z</time>
      </trkpt>
      <trkpt lat="46.2967" lon="-0.47841">
        <ele>65</ele>
        <time>2012-01-10T15:17:37Z</time>
      </trkpt>
      <trkpt lat="46.29677" lon="-0.47837">
        <ele>65</ele>
        <time>2012-01-10T15:17:42Z</time>
      </trkpt>
      <trkpt lat="46.29682" lon="-0.47834">
        <ele>62</ele>
        <time>2012-01-10T15:17:47Z</time>
      </trkpt>
      <trkpt lat="46.29686" lon="-0.47832">
        <ele>61</ele>
        <time>2012-01-10T15:17:52Z</time>
      </trkpt>
      <trkpt lat="46.29691" lon="-0.47829">
        <ele>65</ele>
        <time>2012-01-10T15:17:57Z</time>
      </trkpt>
      <trkpt lat="46.29693" lon="-0.47825">
        <ele>64</ele>
        <time>2012-01-10T15:18:02Z</time>
      </trkpt>
      <trkpt lat="46.29698" lon="-0.47823">
        <ele>64</ele>
        <time>2012-01-10T15:18:07Z</time>
      </trkpt>
      <trkpt lat="46.29705" lon="-0.4782">
        <ele>65</ele>
        <time>2012-01-10T15:18:12Z</time>
      </trkpt>
      <trkpt lat="46.29708" lon="-0.47817">
        <ele>63</ele>
        <time>2012-01-10T15:18:17Z</time>
      </trkpt>
      <trkpt lat="46.29712" lon="-0.47813">
        <ele>57</ele>
        <time>2012-01-10T15:18:23Z</time>
      </trkpt>
      <trkpt lat="46.29717" lon="-0.47811">
        <ele>59</ele>
        <time>2012-01-10T15:18:27Z</time>
      </trkpt>
      <trkpt lat="46.2972" lon="-0.47811">
        <ele>59</ele>
        <time>2012-01-10T15:18:32Z</time>
      </trkpt>
      <trkpt lat="46.29727" lon="-0.47809">
        <ele>59</ele>
        <time>2012-01-10T15:18:37Z</time>
      </trkpt>
      <trkpt lat="46.29734" lon="-0.47808">
        <ele>60</ele>
        <time>2012-01-10T15:18:42Z</time>
      </trkpt>
      <trkpt lat="46.29742" lon="-0.47804">
        <ele>54</ele>
        <time>2012-01-10T15:18:47Z</time>
      </trkpt>
      <trkpt lat="46.29749" lon="-0.47805">
        <ele>52</ele>
        <time>2012-01-10T15:18:52Z</time>
      </trkpt>
      <trkpt lat="46.29755" lon="-0.47803">
        <ele>53</ele>
        <time>2012-01-10T15:18:57Z</time>
      </trkpt>
      <trkpt lat="46.29764" lon="-0.47803">
        <ele>56</ele>
        <time>2012-01-10T15:19:02Z</time>
      </trkpt>
      <trkpt lat="46.29768" lon="-0.47804">
        <ele>56</ele>
        <time>2012-01-10T15:19:07Z</time>
      </trkpt>
      <trkpt lat="46.29775" lon="-0.47806">
        <ele>57</ele>
        <time>2012-01-10T15:19:12Z</time>
      </trkpt>
      <trkpt lat="46.29782" lon="-0.47809">
        <ele>56</ele>
        <time>2012-01-10T15:19:17Z</time>
      </trkpt>
      <trkpt lat="46.29788" lon="-0.47812">
        <ele>55</ele>
        <time>2012-01-10T15:19:22Z</time>
      </trkpt>
      <trkpt lat="46.29793" lon="-0.47815">
        <ele>55</ele>
        <time>2012-01-10T15:19:27Z</time>
      </trkpt>
      <trkpt lat="46.29798" lon="-0.47817">
        <ele>56</ele>
        <time>2012-01-10T15:19:32Z</time>
      </trkpt>
      <trkpt lat="46.29804" lon="-0.47821">
        <ele>57</ele>
        <time>2012-01-10T15:19:37Z</time>
      </trkpt>
      <trkpt lat="46.2981" lon="-0.47824">
        <ele>57</ele>
        <time>2012-01-10T15:19:42Z</time>
      </trkpt>
      <trkpt lat="46.29816" lon="-0.47827">
        <ele>57</ele>
        <time>2012-01-10T15:19:47Z</time>
      </trkpt>
      <trkpt lat="46.29823" lon="-0.47829">
        <ele>58</ele>
        <time>2012-01-10T15:19:52Z</time>
      </trkpt>
      <trkpt lat="46.29827" lon="-0.47831">
        <ele>58</ele>
        <time>2012-01-10T15:19:57Z</time>
      </trkpt>
      <trkpt lat="46.29834" lon="-0.47833">
        <ele>59</ele>
        <time>2012-01-10T15:20:02Z</time>
      </trkpt>
      <trkpt lat="46.2984" lon="-0.47835">
        <ele>58</ele>
        <time>2012-01-10T15:20:07Z</time>
      </trkpt>
      <trkpt lat="46.29846" lon="-0.47837">
        <ele>58</ele>
        <time>2012-01-10T15:20:12Z</time>
      </trkpt>
      <trkpt lat="46.29851" lon="-0.47836">
        <ele>58</ele>
        <time>2012-01-10T15:20:17Z</time>
      </trkpt>
      <trkpt lat="46.29855" lon="-0.47836">
        <ele>57</ele>
        <time>2012-01-10T15:20:22Z</time>
      </trkpt>
      <trkpt lat="46.29862" lon="-0.47838">
        <ele>57</ele>
        <time>2012-01-10T15:20:27Z</time>
      </trkpt>
      <trkpt lat="46.29868" lon="-0.47839">
        <ele>57</ele>
        <time>2012-01-10T15:20:32Z</time>
      </trkpt>
      <trkpt lat="46.29876" lon="-0.47839">
        <ele>58</ele>
        <time>2012-01-10T15:20:37Z</time>
      </trkpt>
      <trkpt lat="46.29882" lon="-0.47839">
        <ele>57</ele>
        <time>2012-01-10T15:20:42Z</time>
      </trkpt>
      <trkpt lat="46.29889" lon="-0.47837">
        <ele>54</ele>
        <time>2012-01-10T15:20:47Z</time>
      </trkpt>
      <trkpt lat="46.29894" lon="-0.47836">
        <ele>55</ele>
        <time>2012-01-10T15:20:52Z</time>
      </trkpt>
      <trkpt lat="46.29892" lon="-0.47835">
        <ele>55</ele>
        <time>2012-01-10T15:20:57Z</time>
      </trkpt>
      <trkpt lat="46.29892" lon="-0.47835">
        <ele>55</ele>
        <time>2012-01-10T15:21:02Z</time>
      </trkpt>
      <trkpt lat="46.2989" lon="-0.47838">
        <ele>55</ele>
        <time>2012-01-10T15:21:07Z</time>
      </trkpt>
      <trkpt lat="46.29893" lon="-0.47841">
        <ele>55</ele>
        <time>2012-01-10T15:21:12Z</time>
      </trkpt>
      <trkpt lat="46.29899" lon="-0.4784">
        <ele>55</ele>
        <time>2012-01-10T15:21:17Z</time>
      </trkpt>
      <trkpt lat="46.29905" lon="-0.47839">
        <ele>55</ele>
        <time>2012-01-10T15:21:22Z</time>
      </trkpt>
      <trkpt lat="46.29912" lon="-0.47837">
        <ele>53</ele>
        <time>2012-01-10T15:21:27Z</time>
      </trkpt>
      <trkpt lat="46.2992" lon="-0.47836">
        <ele>54</ele>
        <time>2012-01-10T15:21:32Z</time>
      </trkpt>
      <trkpt lat="46.29927" lon="-0.47837">
        <ele>55</ele>
        <time>2012-01-10T15:21:37Z</time>
      </trkpt>
      <trkpt lat="46.29933" lon="-0.47838">
        <ele>55</ele>
        <time>2012-01-10T15:21:42Z</time>
      </trkpt>
      <trkpt lat="46.29938" lon="-0.47837">
        <ele>55</ele>
        <time>2012-01-10T15:21:47Z</time>
      </trkpt>
      <trkpt lat="46.29942" lon="-0.47836">
        <ele>55</ele>
        <time>2012-01-10T15:21:52Z</time>
      </trkpt>
      <trkpt lat="46.29948" lon="-0.47836">
        <ele>55</ele>
        <time>2012-01-10T15:21:57Z</time>
      </trkpt>
      <trkpt lat="46.29952" lon="-0.47836">
        <ele>55</ele>
        <time>2012-01-10T15:22:02Z</time>
      </trkpt>
      <trkpt lat="46.29958" lon="-0.47836">
        <ele>57</ele>
        <time>2012-01-10T15:22:07Z</time>
      </trkpt>
      <trkpt lat="46.29964" lon="-0.47836">
        <ele>57</ele>
        <time>2012-01-10T15:22:12Z</time>
      </trkpt>
      <trkpt lat="46.29969" lon="-0.47837">
        <ele>58</ele>
        <time>2012-01-10T15:22:17Z</time>
      </trkpt>
      <trkpt lat="46.29975" lon="-0.47838">
        <ele>60</ele>
        <time>2012-01-10T15:22:22Z</time>
      </trkpt>
      <trkpt lat="46.2998" lon="-0.47837">
        <ele>60</ele>
        <time>2012-01-10T15:22:27Z</time>
      </trkpt>
      <trkpt lat="46.29983" lon="-0.47836">
        <ele>61</ele>
        <time>2012-01-10T15:22:32Z</time>
      </trkpt>
      <trkpt lat="46.29986" lon="-0.47836">
        <ele>62</ele>
        <time>2012-01-10T15:22:37Z</time>
      </trkpt>
      <trkpt lat="46.29991" lon="-0.47836">
        <ele>61</ele>
        <time>2012-01-10T15:22:42Z</time>
      </trkpt>
      <trkpt lat="46.29995" lon="-0.47833">
        <ele>62</ele>
        <time>2012-01-10T15:22:47Z</time>
      </trkpt>
      <trkpt lat="46.3" lon="-0.47832">
        <ele>62</ele>
        <time>2012-01-10T15:22:52Z</time>
      </trkpt>
      <trkpt lat="46.30003" lon="-0.47832">
        <ele>62</ele>
        <time>2012-01-10T15:22:57Z</time>
      </trkpt>
      <trkpt lat="46.30011" lon="-0.47832">
        <ele>62</ele>
        <time>2012-01-10T15:23:02Z</time>
      </trkpt>
      <trkpt lat="46.30017" lon="-0.47833">
        <ele>63</ele>
        <time>2012-01-10T15:23:07Z</time>
      </trkpt>
      <trkpt lat="46.30021" lon="-0.47832">
        <ele>63</ele>
        <time>2012-01-10T15:23:12Z</time>
      </trkpt>
      <trkpt lat="46.30025" lon="-0.47833">
        <ele>63</ele>
        <time>2012-01-10T15:23:17Z</time>
      </trkpt>
      <trkpt lat="46.30028" lon="-0.47838">
        <ele>61</ele>
        <time>2012-01-10T15:23:22Z</time>
      </trkpt>
      <trkpt lat="46.30035" lon="-0.47839">
        <ele>60</ele>
        <time>2012-01-10T15:23:27Z</time>
      </trkpt>
      <trkpt lat="46.30041" lon="-0.47839">
        <ele>58</ele>
        <time>2012-01-10T15:23:32Z</time>
      </trkpt>
      <trkpt lat="46.30047" lon="-0.47838">
        <ele>60</ele>
        <time>2012-01-10T15:23:37Z</time>
      </trkpt>
      <trkpt lat="46.30053" lon="-0.47838">
        <ele>60</ele>
        <time>2012-01-10T15:23:42Z</time>
      </trkpt>
      <trkpt lat="46.3006" lon="-0.47837">
        <ele>61</ele>
        <time>2012-01-10T15:23:47Z</time>
      </trkpt>
      <trkpt lat="46.30065" lon="-0.47838">
        <ele>60</ele>
        <time>2012-01-10T15:23:52Z</time>
      </trkpt>
      <trkpt lat="46.30071" lon="-0.47837">
        <ele>60</ele>
        <time>2012-01-10T15:23:57Z</time>
      </trkpt>
      <trkpt lat="46.30075" lon="-0.47837">
        <ele>60</ele>
        <time>2012-01-10T15:24:02Z</time>
      </trkpt>
      <trkpt lat="46.30081" lon="-0.47837">
        <ele>59</ele>
        <time>2012-01-10T15:24:07Z</time>
      </trkpt>
      <trkpt lat="46.30086" lon="-0.47836">
        <ele>60</ele>
        <time>2012-01-10T15:24:12Z</time>
      </trkpt>
      <trkpt lat="46.30091" lon="-0.47836">
        <ele>59</ele>
        <time>2012-01-10T15:24:17Z</time>
      </trkpt>
      <trkpt lat="46.30097" lon="-0.47836">
        <ele>57</ele>
        <time>2012-01-10T15:24:22Z</time>
      </trkpt>
      <trkpt lat="46.30102" lon="-0.47833">
        <ele>56</ele>
        <time>2012-01-10T15:24:27Z</time>
      </trkpt>
      <trkpt lat="46.30107" lon="-0.47833">
        <ele>55</ele>
        <time>2012-01-10T15:24:32Z</time>
      </trkpt>
      <trkpt lat="46.30114" lon="-0.47832">
        <ele>53</ele>
        <time>2012-01-10T15:24:37Z</time>
      </trkpt>
      <trkpt lat="46.3012" lon="-0.47832">
        <ele>53</ele>
        <time>2012-01-10T15:24:42Z</time>
      </trkpt>
      <trkpt lat="46.30125" lon="-0.47831">
        <ele>53</ele>
        <time>2012-01-10T15:24:47Z</time>
      </trkpt>
      <trkpt lat="46.3013" lon="-0.47831">
        <ele>51</ele>
        <time>2012-01-10T15:24:52Z</time>
      </trkpt>
      <trkpt lat="46.30131" lon="-0.47841">
        <ele>51</ele>
        <time>2012-01-10T15:24:57Z</time>
      </trkpt>
      <trkpt lat="46.3013" lon="-0.4785">
        <ele>51</ele>
        <time>2012-01-10T15:25:02Z</time>
      </trkpt>
      <trkpt lat="46.30127" lon="-0.47856">
        <ele>55</ele>
        <time>2012-01-10T15:25:07Z</time>
      </trkpt>
      <trkpt lat="46.30124" lon="-0.47857">
        <ele>55</ele>
        <time>2012-01-10T15:25:12Z</time>
      </trkpt>
      <trkpt lat="46.30118" lon="-0.47857">
        <ele>54</ele>
        <time>2012-01-10T15:25:17Z</time>
      </trkpt>
      <trkpt lat="46.30113" lon="-0.47856">
        <ele>54</ele>
        <time>2012-01-10T15:25:22Z</time>
      </trkpt>
      <trkpt lat="46.30107" lon="-0.47856">
        <ele>54</ele>
        <time>2012-01-10T15:25:27Z</time>
      </trkpt>
      <trkpt lat="46.30102" lon="-0.47855">
        <ele>55</ele>
        <time>2012-01-10T15:25:32Z</time>
      </trkpt>
      <trkpt lat="46.30096" lon="-0.47853">
        <ele>56</ele>
        <time>2012-01-10T15:25:37Z</time>
      </trkpt>
      <trkpt lat="46.30089" lon="-0.47851">
        <ele>59</ele>
        <time>2012-01-10T15:25:42Z</time>
      </trkpt>
      <trkpt lat="46.30083" lon="-0.47851">
        <ele>58</ele>
        <time>2012-01-10T15:25:47Z</time>
      </trkpt>
      <trkpt lat="46.30078" lon="-0.4785">
        <ele>57</ele>
        <time>2012-01-10T15:25:52Z</time>
      </trkpt>
      <trkpt lat="46.30073" lon="-0.47848">
        <ele>56</ele>
        <time>2012-01-10T15:25:57Z</time>
      </trkpt>
      <trkpt lat="46.30068" lon="-0.4785">
        <ele>56</ele>
        <time>2012-01-10T15:26:02Z</time>
      </trkpt>
      <trkpt lat="46.30061" lon="-0.4785">
        <ele>56</ele>
        <time>2012-01-10T15:26:07Z</time>
      </trkpt>
      <trkpt lat="46.30057" lon="-0.47851">
        <ele>56</ele>
        <time>2012-01-10T15:26:12Z</time>
      </trkpt>
      <trkpt lat="46.30051" lon="-0.47851">
        <ele>54</ele>
        <time>2012-01-10T15:26:17Z</time>
      </trkpt>
      <trkpt lat="46.30045" lon="-0.47852">
        <ele>56</ele>
        <time>2012-01-10T15:26:22Z</time>
      </trkpt>
      <trkpt lat="46.30039" lon="-0.47857">
        <ele>55</ele>
        <time>2012-01-10T15:26:27Z</time>
      </trkpt>
      <trkpt lat="46.30037" lon="-0.47866">
        <ele>55</ele>
        <time>2012-01-10T15:26:32Z</time>
      </trkpt>
      <trkpt lat="46.30037" lon="-0.47873">
        <ele>52</ele>
        <time>2012-01-10T15:26:37Z</time>
      </trkpt>
      <trkpt lat="46.30039" lon="-0.47883">
        <ele>51</ele>
        <time>2012-01-10T15:26:42Z</time>
      </trkpt>
      <trkpt lat="46.30041" lon="-0.47892">
        <ele>50</ele>
        <time>2012-01-10T15:26:47Z</time>
      </trkpt>
      <trkpt lat="46.30043" lon="-0.47899">
        <ele>49</ele>
        <time>2012-01-10T15:26:52Z</time>
      </trkpt>
      <trkpt lat="46.30046" lon="-0.47905">
        <ele>44</ele>
        <time>2012-01-10T15:26:57Z</time>
      </trkpt>
      <trkpt lat="46.30048" lon="-0.4791">
        <ele>44</ele>
        <time>2012-01-10T15:27:02Z</time>
      </trkpt>
      <trkpt lat="46.3005" lon="-0.47918">
        <ele>43</ele>
        <time>2012-01-10T15:27:07Z</time>
      </trkpt>
      <trkpt lat="46.30052" lon="-0.47924">
        <ele>42</ele>
        <time>2012-01-10T15:27:12Z</time>
      </trkpt>
      <trkpt lat="46.30054" lon="-0.47933">
        <ele>42</ele>
        <time>2012-01-10T15:27:17Z</time>
      </trkpt>
      <trkpt lat="46.30058" lon="-0.47942">
        <ele>41</ele>
        <time>2012-01-10T15:27:22Z</time>
      </trkpt>
      <trkpt lat="46.30062" lon="-0.47947">
        <ele>42</ele>
        <time>2012-01-10T15:27:27Z</time>
      </trkpt>
      <trkpt lat="46.30064" lon="-0.47958">
        <ele>46</ele>
        <time>2012-01-10T15:27:32Z</time>
      </trkpt>
      <trkpt lat="46.30064" lon="-0.47966">
        <ele>50</ele>
        <time>2012-01-10T15:27:37Z</time>
      </trkpt>
      <trkpt lat="46.30064" lon="-0.47965">
        <ele>50</ele>
        <time>2012-01-10T15:27:42Z</time>
      </trkpt>
      <trkpt lat="46.30064" lon="-0.47969">
        <ele>50</ele>
        <time>2012-01-10T15:27:47Z</time>
      </trkpt>
      <trkpt lat="46.30065" lon="-0.47978">
        <ele>50</ele>
        <time>2012-01-10T15:27:52Z</time>
      </trkpt>
      <trkpt lat="46.30065" lon="-0.47983">
        <ele>45</ele>
        <time>2012-01-10T15:27:57Z</time>
      </trkpt>
      <trkpt lat="46.30065" lon="-0.47991">
        <ele>44</ele>
        <time>2012-01-10T15:28:02Z</time>
      </trkpt>
      <trkpt lat="46.30067" lon="-0.47998">
        <ele>44</ele>
        <time>2012-01-10T15:28:07Z</time>
      </trkpt>
      <trkpt lat="46.30068" lon="-0.48006">
        <ele>43</ele>
        <time>2012-01-10T15:28:12Z</time>
      </trkpt>
      <trkpt lat="46.3007" lon="-0.48015">
        <ele>43</ele>
        <time>2012-01-10T15:28:17Z</time>
      </trkpt>
      <trkpt lat="46.30073" lon="-0.4802">
        <ele>44</ele>
        <time>2012-01-10T15:28:22Z</time>
      </trkpt>
      <trkpt lat="46.30073" lon="-0.48034">
        <ele>47</ele>
        <time>2012-01-10T15:28:27Z</time>
      </trkpt>
      <trkpt lat="46.30074" lon="-0.48042">
        <ele>47</ele>
        <time>2012-01-10T15:28:32Z</time>
      </trkpt>
      <trkpt lat="46.30076" lon="-0.48054">
        <ele>49</ele>
        <time>2012-01-10T15:28:37Z</time>
      </trkpt>
      <trkpt lat="46.30076" lon="-0.48064">
        <ele>48</ele>
        <time>2012-01-10T15:28:42Z</time>
      </trkpt>
      <trkpt lat="46.3008" lon="-0.48067">
        <ele>44</ele>
        <time>2012-01-10T15:28:47Z</time>
      </trkpt>
      <trkpt lat="46.30082" lon="-0.48074">
        <ele>41</ele>
        <time>2012-01-10T15:28:52Z</time>
      </trkpt>
      <trkpt lat="46.30083" lon="-0.48083">
        <ele>40</ele>
        <time>2012-01-10T15:28:57Z</time>
      </trkpt>
      <trkpt lat="46.30085" lon="-0.48089">
        <ele>36</ele>
        <time>2012-01-10T15:29:02Z</time>
      </trkpt>
      <trkpt lat="46.30087" lon="-0.48096">
        <ele>34</ele>
        <time>2012-01-10T15:29:07Z</time>
      </trkpt>
      <trkpt lat="46.30089" lon="-0.48102">
        <ele>31</ele>
        <time>2012-01-10T15:29:12Z</time>
      </trkpt>
      <trkpt lat="46.30089" lon="-0.48112">
        <ele>31</ele>
        <time>2012-01-10T15:29:17Z</time>
      </trkpt>
      <trkpt lat="46.30091" lon="-0.48122">
        <ele>31</ele>
        <time>2012-01-10T15:29:22Z</time>
      </trkpt>
      <trkpt lat="46.30093" lon="-0.48132">
        <ele>35</ele>
        <time>2012-01-10T15:29:27Z</time>
      </trkpt>
      <trkpt lat="46.30092" lon="-0.48138">
        <ele>32</ele>
        <time>2012-01-10T15:29:32Z</time>
      </trkpt>
      <trkpt lat="46.30089" lon="-0.48143">
        <ele>31</ele>
        <time>2012-01-10T15:29:37Z</time>
      </trkpt>
      <trkpt lat="46.30085" lon="-0.48148">
        <ele>28</ele>
        <time>2012-01-10T15:29:42Z</time>
      </trkpt>
      <trkpt lat="46.30084" lon="-0.48154">
        <ele>26</ele>
        <time>2012-01-10T15:29:47Z</time>
      </trkpt>
      <trkpt lat="46.30085" lon="-0.48166">
        <ele>26</ele>
        <time>2012-01-10T15:29:52Z</time>
      </trkpt>
      <trkpt lat="46.30086" lon="-0.48174">
        <ele>26</ele>
        <time>2012-01-10T15:29:57Z</time>
      </trkpt>
      <trkpt lat="46.30087" lon="-0.48183">
        <ele>27</ele>
        <time>2012-01-10T15:30:02Z</time>
      </trkpt>
      <trkpt lat="46.30087" lon="-0.48189">
        <ele>23</ele>
        <time>2012-01-10T15:30:07Z</time>
      </trkpt>
      <trkpt lat="46.30086" lon="-0.48207">
        <ele>31</ele>
        <time>2012-01-10T15:30:12Z</time>
      </trkpt>
      <trkpt lat="46.30087" lon="-0.48214">
        <ele>31</ele>
        <time>2012-01-10T15:30:17Z</time>
      </trkpt>
      <trkpt lat="46.30087" lon="-0.48222">
        <ele>30</ele>
        <time>2012-01-10T15:30:22Z</time>
      </trkpt>
      <trkpt lat="46.30088" lon="-0.48232">
        <ele>31</ele>
        <time>2012-01-10T15:30:27Z</time>
      </trkpt>
      <trkpt lat="46.30089" lon="-0.48237">
        <ele>29</ele>
        <time>2012-01-10T15:30:32Z</time>
      </trkpt>
      <trkpt lat="46.30089" lon="-0.48245">
        <ele>27</ele>
        <time>2012-01-10T15:30:37Z</time>
      </trkpt>
      <trkpt lat="46.3009" lon="-0.48251">
        <ele>24</ele>
        <time>2012-01-10T15:30:42Z</time>
      </trkpt>
      <trkpt lat="46.3009" lon="-0.48259">
        <ele>23</ele>
        <time>2012-01-10T15:30:47Z</time>
      </trkpt>
      <trkpt lat="46.30091" lon="-0.48271">
        <ele>29</ele>
        <time>2012-01-10T15:30:52Z</time>
      </trkpt>
      <trkpt lat="46.30091" lon="-0.4828">
        <ele>29</ele>
        <time>2012-01-10T15:30:57Z</time>
      </trkpt>
      <trkpt lat="46.30091" lon="-0.4829">
        <ele>29</ele>
        <time>2012-01-10T15:31:02Z</time>
      </trkpt>
      <trkpt lat="46.30093" lon="-0.48301">
        <ele>31</ele>
        <time>2012-01-10T15:31:07Z</time>
      </trkpt>
      <trkpt lat="46.30093" lon="-0.48309">
        <ele>31</ele>
        <time>2012-01-10T15:31:12Z</time>
      </trkpt>
      <trkpt lat="46.30093" lon="-0.48316">
        <ele>30</ele>
        <time>2012-01-10T15:31:17Z</time>
      </trkpt>
      <trkpt lat="46.30095" lon="-0.4832">
        <ele>26</ele>
        <time>2012-01-10T15:31:22Z</time>
      </trkpt>
      <trkpt lat="46.30095" lon="-0.48328">
        <ele>25</ele>
        <time>2012-01-10T15:31:27Z</time>
      </trkpt>
      <trkpt lat="46.30097" lon="-0.48337">
        <ele>23</ele>
        <time>2012-01-10T15:31:32Z</time>
      </trkpt>
      <trkpt lat="46.30096" lon="-0.48345">
        <ele>22</ele>
        <time>2012-01-10T15:31:37Z</time>
      </trkpt>
      <trkpt lat="46.30096" lon="-0.48351">
        <ele>18</ele>
        <time>2012-01-10T15:31:42Z</time>
      </trkpt>
      <trkpt lat="46.30097" lon="-0.48357">
        <ele>16</ele>
        <time>2012-01-10T15:31:47Z</time>
      </trkpt>
      <trkpt lat="46.30098" lon="-0.48363">
        <ele>15</ele>
        <time>2012-01-10T15:31:52Z</time>
      </trkpt>
      <trkpt lat="46.30097" lon="-0.48373">
        <ele>14</ele>
        <time>2012-01-10T15:31:57Z</time>
      </trkpt>
      <trkpt lat="46.30098" lon="-0.48382">
        <ele>16</ele>
        <time>2012-01-10T15:32:02Z</time>
      </trkpt>
      <trkpt lat="46.30099" lon="-0.48393">
        <ele>16</ele>
        <time>2012-01-10T15:32:07Z</time>
      </trkpt>
      <trkpt lat="46.301" lon="-0.48409">
        <ele>23</ele>
        <time>2012-01-10T15:32:12Z</time>
      </trkpt>
      <trkpt lat="46.30103" lon="-0.48415">
        <ele>24</ele>
        <time>2012-01-10T15:32:17Z</time>
      </trkpt>
      <trkpt lat="46.30106" lon="-0.48427">
        <ele>27</ele>
        <time>2012-01-10T15:32:22Z</time>
      </trkpt>
      <trkpt lat="46.3011" lon="-0.48438">
        <ele>30</ele>
        <time>2012-01-10T15:32:27Z</time>
      </trkpt>
      <trkpt lat="46.30111" lon="-0.48452">
        <ele>39</ele>
        <time>2012-01-10T15:32:32Z</time>
      </trkpt>
      <trkpt lat="46.30112" lon="-0.48456">
        <ele>38</ele>
        <time>2012-01-10T15:32:37Z</time>
      </trkpt>
      <trkpt lat="46.30114" lon="-0.48464">
        <ele>37</ele>
        <time>2012-01-10T15:32:42Z</time>
      </trkpt>
      <trkpt lat="46.30115" lon="-0.48474">
        <ele>38</ele>
        <time>2012-01-10T15:32:47Z</time>
      </trkpt>
      <trkpt lat="46.30116" lon="-0.4848">
        <ele>38</ele>
        <time>2012-01-10T15:32:52Z</time>
      </trkpt>
      <trkpt lat="46.30119" lon="-0.48482">
        <ele>31</ele>
        <time>2012-01-10T15:32:57Z</time>
      </trkpt>
      <trkpt lat="46.30119" lon="-0.48489">
        <ele>30</ele>
        <time>2012-01-10T15:33:02Z</time>
      </trkpt>
      <trkpt lat="46.30119" lon="-0.48499">
        <ele>28</ele>
        <time>2012-01-10T15:33:07Z</time>
      </trkpt>
      <trkpt lat="46.30121" lon="-0.48503">
        <ele>26</ele>
        <time>2012-01-10T15:33:12Z</time>
      </trkpt>
      <trkpt lat="46.30121" lon="-0.48511">
        <ele>24</ele>
        <time>2012-01-10T15:33:17Z</time>
      </trkpt>
      <trkpt lat="46.30124" lon="-0.48513">
        <ele>20</ele>
        <time>2012-01-10T15:33:22Z</time>
      </trkpt>
      <trkpt lat="46.30124" lon="-0.48523">
        <ele>19</ele>
        <time>2012-01-10T15:33:27Z</time>
      </trkpt>
      <trkpt lat="46.30124" lon="-0.48531">
        <ele>19</ele>
        <time>2012-01-10T15:33:32Z</time>
      </trkpt>
      <trkpt lat="46.30126" lon="-0.48535">
        <ele>12</ele>
        <time>2012-01-10T15:33:37Z</time>
      </trkpt>
      <trkpt lat="46.30127" lon="-0.48539">
        <ele>8</ele>
        <time>2012-01-10T15:33:42Z</time>
      </trkpt>
      <trkpt lat="46.30126" lon="-0.48559">
        <ele>21</ele>
        <time>2012-01-10T15:33:47Z</time>
      </trkpt>
      <trkpt lat="46.30126" lon="-0.48574">
        <ele>29</ele>
        <time>2012-01-10T15:33:52Z</time>
      </trkpt>
      <trkpt lat="46.30129" lon="-0.48581">
        <ele>27</ele>
        <time>2012-01-10T15:33:57Z</time>
      </trkpt>
      <trkpt lat="46.3013" lon="-0.48589">
        <ele>27</ele>
        <time>2012-01-10T15:34:02Z</time>
      </trkpt>
      <trkpt lat="46.30131" lon="-0.48602">
        <ele>30</ele>
        <time>2012-01-10T15:34:07Z</time>
      </trkpt>
      <trkpt lat="46.30131" lon="-0.48615">
        <ele>35</ele>
        <time>2012-01-10T15:34:12Z</time>
      </trkpt>
      <trkpt lat="46.30133" lon="-0.48622">
        <ele>35</ele>
        <time>2012-01-10T15:34:17Z</time>
      </trkpt>
      <trkpt lat="46.30134" lon="-0.48628">
        <ele>35</ele>
        <time>2012-01-10T15:34:22Z</time>
      </trkpt>
      <trkpt lat="46.30137" lon="-0.48636">
        <ele>34</ele>
        <time>2012-01-10T15:34:27Z</time>
      </trkpt>
      <trkpt lat="46.30139" lon="-0.48643">
        <ele>33</ele>
        <time>2012-01-10T15:34:32Z</time>
      </trkpt>
      <trkpt lat="46.30141" lon="-0.48646">
        <ele>28</ele>
        <time>2012-01-10T15:34:37Z</time>
      </trkpt>
      <trkpt lat="46.30142" lon="-0.48654">
        <ele>26</ele>
        <time>2012-01-10T15:34:42Z</time>
      </trkpt>
      <trkpt lat="46.30145" lon="-0.48661">
        <ele>26</ele>
        <time>2012-01-10T15:34:47Z</time>
      </trkpt>
      <trkpt lat="46.30143" lon="-0.48677">
        <ele>34</ele>
        <time>2012-01-10T15:34:52Z</time>
      </trkpt>
      <trkpt lat="46.30145" lon="-0.48686">
        <ele>34</ele>
        <time>2012-01-10T15:34:57Z</time>
      </trkpt>
      <trkpt lat="46.30148" lon="-0.48689">
        <ele>31</ele>
        <time>2012-01-10T15:35:02Z</time>
      </trkpt>
      <trkpt lat="46.30149" lon="-0.48694">
        <ele>31</ele>
        <time>2012-01-10T15:35:07Z</time>
      </trkpt>
      <trkpt lat="46.3015" lon="-0.48701">
        <ele>30</ele>
        <time>2012-01-10T15:35:12Z</time>
      </trkpt>
      <trkpt lat="46.3015" lon="-0.48714">
        <ele>34</ele>
        <time>2012-01-10T15:35:17Z</time>
      </trkpt>
      <trkpt lat="46.30152" lon="-0.48722">
        <ele>37</ele>
        <time>2012-01-10T15:35:22Z</time>
      </trkpt>
      <trkpt lat="46.30154" lon="-0.4873">
        <ele>37</ele>
        <time>2012-01-10T15:35:27Z</time>
      </trkpt>
      <trkpt lat="46.30157" lon="-0.48745">
        <ele>45</ele>
        <time>2012-01-10T15:35:32Z</time>
      </trkpt>
      <trkpt lat="46.30163" lon="-0.48748">
        <ele>45</ele>
        <time>2012-01-10T15:35:37Z</time>
      </trkpt>
      <trkpt lat="46.30167" lon="-0.48746">
        <ele>44</ele>
        <time>2012-01-10T15:35:42Z</time>
      </trkpt>
      <trkpt lat="46.3017" lon="-0.48743">
        <ele>43</ele>
        <time>2012-01-10T15:35:47Z</time>
      </trkpt>
      <trkpt lat="46.30176" lon="-0.48742">
        <ele>43</ele>
        <time>2012-01-10T15:35:52Z</time>
      </trkpt>
      <trkpt lat="46.3018" lon="-0.48738">
        <ele>44</ele>
        <time>2012-01-10T15:35:57Z</time>
      </trkpt>
      <trkpt lat="46.30184" lon="-0.48735">
        <ele>50</ele>
        <time>2012-01-10T15:36:02Z</time>
      </trkpt>
      <trkpt lat="46.3019" lon="-0.48733">
        <ele>49</ele>
        <time>2012-01-10T15:36:07Z</time>
      </trkpt>
      <trkpt lat="46.30195" lon="-0.48731">
        <ele>50</ele>
        <time>2012-01-10T15:36:12Z</time>
      </trkpt>
      <trkpt lat="46.30202" lon="-0.48728">
        <ele>48</ele>
        <time>2012-01-10T15:36:17Z</time>
      </trkpt>
      <trkpt lat="46.30207" lon="-0.48726">
        <ele>49</ele>
        <time>2012-01-10T15:36:22Z</time>
      </trkpt>
      <trkpt lat="46.30214" lon="-0.48723">
        <ele>51</ele>
        <time>2012-01-10T15:36:27Z</time>
      </trkpt>
      <trkpt lat="46.30217" lon="-0.48722">
        <ele>51</ele>
        <time>2012-01-10T15:36:32Z</time>
      </trkpt>
      <trkpt lat="46.30221" lon="-0.48721">
        <ele>52</ele>
        <time>2012-01-10T15:36:37Z</time>
      </trkpt>
      <trkpt lat="46.30226" lon="-0.48719">
        <ele>51</ele>
        <time>2012-01-10T15:36:42Z</time>
      </trkpt>
      <trkpt lat="46.30229" lon="-0.48716">
        <ele>51</ele>
        <time>2012-01-10T15:36:47Z</time>
      </trkpt>
      <trkpt lat="46.30232" lon="-0.48716">
        <ele>52</ele>
        <time>2012-01-10T15:36:52Z</time>
      </trkpt>
      <trkpt lat="46.30235" lon="-0.48716">
        <ele>51</ele>
        <time>2012-01-10T15:36:57Z</time>
      </trkpt>
      <trkpt lat="46.30239" lon="-0.48713">
        <ele>50</ele>
        <time>2012-01-10T15:37:02Z</time>
      </trkpt>
      <trkpt lat="46.30245" lon="-0.4871">
        <ele>51</ele>
        <time>2012-01-10T15:37:07Z</time>
      </trkpt>
      <trkpt lat="46.30249" lon="-0.48708">
        <ele>52</ele>
        <time>2012-01-10T15:37:12Z</time>
      </trkpt>
      <trkpt lat="46.30256" lon="-0.48706">
        <ele>53</ele>
        <time>2012-01-10T15:37:17Z</time>
      </trkpt>
      <trkpt lat="46.3026" lon="-0.48705">
        <ele>51</ele>
        <time>2012-01-10T15:37:22Z</time>
      </trkpt>
      <trkpt lat="46.30263" lon="-0.48704">
        <ele>50</ele>
        <time>2012-01-10T15:37:27Z</time>
      </trkpt>
      <trkpt lat="46.30268" lon="-0.487">
        <ele>52</ele>
        <time>2012-01-10T15:37:32Z</time>
      </trkpt>
      <trkpt lat="46.30272" lon="-0.48698">
        <ele>53</ele>
        <time>2012-01-10T15:37:37Z</time>
      </trkpt>
      <trkpt lat="46.30277" lon="-0.48695">
        <ele>52</ele>
        <time>2012-01-10T15:37:42Z</time>
      </trkpt>
      <trkpt lat="46.3028" lon="-0.48694">
        <ele>52</ele>
        <time>2012-01-10T15:37:47Z</time>
      </trkpt>
      <trkpt lat="46.30285" lon="-0.48692">
        <ele>55</ele>
        <time>2012-01-10T15:37:52Z</time>
      </trkpt>
      <trkpt lat="46.30289" lon="-0.48688">
        <ele>55</ele>
        <time>2012-01-10T15:37:57Z</time>
      </trkpt>
      <trkpt lat="46.30293" lon="-0.48686">
        <ele>55</ele>
        <time>2012-01-10T15:38:02Z</time>
      </trkpt>
      <trkpt lat="46.30294" lon="-0.48685">
        <ele>55</ele>
        <time>2012-01-10T15:38:07Z</time>
      </trkpt>
      <trkpt lat="46.303" lon="-0.48685">
        <ele>56</ele>
        <time>2012-01-10T15:38:12Z</time>
      </trkpt>
      <trkpt lat="46.30309" lon="-0.48685">
        <ele>54</ele>
        <time>2012-01-10T15:38:17Z</time>
      </trkpt>
      <trkpt lat="46.30313" lon="-0.48685">
        <ele>53</ele>
        <time>2012-01-10T15:38:22Z</time>
      </trkpt>
      <trkpt lat="46.30312" lon="-0.48684">
        <ele>53</ele>
        <time>2012-01-10T15:38:27Z</time>
      </trkpt>
      <trkpt lat="46.30312" lon="-0.48683">
        <ele>53</ele>
        <time>2012-01-10T15:38:32Z</time>
      </trkpt>
      <trkpt lat="46.30314" lon="-0.48684">
        <ele>53</ele>
        <time>2012-01-10T15:38:57Z</time>
      </trkpt>
      <trkpt lat="46.30316" lon="-0.48683">
        <ele>54</ele>
        <time>2012-01-10T15:39:02Z</time>
      </trkpt>
      <trkpt lat="46.30317" lon="-0.4868">
        <ele>53</ele>
        <time>2012-01-10T15:39:07Z</time>
      </trkpt>
      <trkpt lat="46.30319" lon="-0.48679">
        <ele>54</ele>
        <time>2012-01-10T15:39:12Z</time>
      </trkpt>
      <trkpt lat="46.30319" lon="-0.4868">
        <ele>54</ele>
        <time>2012-01-10T15:39:17Z</time>
      </trkpt>
      <trkpt lat="46.30319" lon="-0.4868">
        <ele>55</ele>
        <time>2012-01-10T15:39:22Z</time>
      </trkpt>
      <trkpt lat="46.30319" lon="-0.4868">
        <ele>55</ele>
        <time>2012-01-10T15:39:27Z</time>
      </trkpt>
      <trkpt lat="46.3032" lon="-0.48683">
        <ele>54</ele>
        <time>2012-01-10T15:39:37Z</time>
      </trkpt>
      <trkpt lat="46.3032" lon="-0.48696">
        <ele>57</ele>
        <time>2012-01-10T15:39:42Z</time>
      </trkpt>
      <trkpt lat="46.30321" lon="-0.48701">
        <ele>59</ele>
        <time>2012-01-10T15:39:47Z</time>
      </trkpt>
      <trkpt lat="46.30324" lon="-0.48702">
        <ele>58</ele>
        <time>2012-01-10T15:39:52Z</time>
      </trkpt>
      <trkpt lat="46.30325" lon="-0.48702">
        <ele>56</ele>
        <time>2012-01-10T15:39:57Z</time>
      </trkpt>
      <trkpt lat="46.30325" lon="-0.48701">
        <ele>57</ele>
        <time>2012-01-10T15:40:02Z</time>
      </trkpt>
      <trkpt lat="46.30328" lon="-0.48701">
        <ele>57</ele>
        <time>2012-01-10T15:40:07Z</time>
      </trkpt>
      <trkpt lat="46.3033" lon="-0.48697">
        <ele>56</ele>
        <time>2012-01-10T15:40:12Z</time>
      </trkpt>
      <trkpt lat="46.30332" lon="-0.48694">
        <ele>56</ele>
        <time>2012-01-10T15:40:17Z</time>
      </trkpt>
      <trkpt lat="46.30333" lon="-0.48694">
        <ele>55</ele>
        <time>2012-01-10T15:40:22Z</time>
      </trkpt>
      <trkpt lat="46.30329" lon="-0.487">
        <ele>54</ele>
        <time>2012-01-10T15:40:27Z</time>
      </trkpt>
      <trkpt lat="46.30329" lon="-0.48706">
        <ele>53</ele>
        <time>2012-01-10T15:40:32Z</time>
      </trkpt>
      <trkpt lat="46.30333" lon="-0.48714">
        <ele>53</ele>
        <time>2012-01-10T15:40:37Z</time>
      </trkpt>
      <trkpt lat="46.30334" lon="-0.4872">
        <ele>52</ele>
        <time>2012-01-10T15:40:42Z</time>
      </trkpt>
      <trkpt lat="46.30337" lon="-0.48724">
        <ele>49</ele>
        <time>2012-01-10T15:40:47Z</time>
      </trkpt>
      <trkpt lat="46.30337" lon="-0.48734">
        <ele>49</ele>
        <time>2012-01-10T15:40:52Z</time>
      </trkpt>
      <trkpt lat="46.30341" lon="-0.4874">
        <ele>50</ele>
        <time>2012-01-10T15:40:57Z</time>
      </trkpt>
      <trkpt lat="46.30343" lon="-0.48745">
        <ele>50</ele>
        <time>2012-01-10T15:41:02Z</time>
      </trkpt>
      <trkpt lat="46.30344" lon="-0.48746">
        <ele>51</ele>
        <time>2012-01-10T15:41:07Z</time>
      </trkpt>
      <trkpt lat="46.30345" lon="-0.48751">
        <ele>47</ele>
        <time>2012-01-10T15:41:12Z</time>
      </trkpt>
      <trkpt lat="46.30347" lon="-0.48756">
        <ele>47</ele>
        <time>2012-01-10T15:41:17Z</time>
      </trkpt>
      <trkpt lat="46.30351" lon="-0.48761">
        <ele>46</ele>
        <time>2012-01-10T15:41:22Z</time>
      </trkpt>
      <trkpt lat="46.30352" lon="-0.48759">
        <ele>46</ele>
        <time>2012-01-10T15:41:27Z</time>
      </trkpt>
      <trkpt lat="46.30354" lon="-0.48761">
        <ele>46</ele>
        <time>2012-01-10T15:41:32Z</time>
      </trkpt>
      <trkpt lat="46.30354" lon="-0.48761">
        <ele>46</ele>
        <time>2012-01-10T15:41:37Z</time>
      </trkpt>
      <trkpt lat="46.30354" lon="-0.48763">
        <ele>46</ele>
        <time>2012-01-10T15:41:42Z</time>
      </trkpt>
      <trkpt lat="46.30353" lon="-0.48765">
        <ele>44</ele>
        <time>2012-01-10T15:42:07Z</time>
      </trkpt>
      <trkpt lat="46.30354" lon="-0.4877">
        <ele>43</ele>
        <time>2012-01-10T15:42:12Z</time>
      </trkpt>
      <trkpt lat="46.30354" lon="-0.48775">
        <ele>44</ele>
        <time>2012-01-10T15:42:17Z</time>
      </trkpt>
      <trkpt lat="46.30354" lon="-0.48782">
        <ele>47</ele>
        <time>2012-01-10T15:42:22Z</time>
      </trkpt>
      <trkpt lat="46.30353" lon="-0.48788">
        <ele>48</ele>
        <time>2012-01-10T15:42:27Z</time>
      </trkpt>
      <trkpt lat="46.30349" lon="-0.48793">
        <ele>48</ele>
        <time>2012-01-10T15:42:32Z</time>
      </trkpt>
      <trkpt lat="46.30348" lon="-0.48794">
        <ele>49</ele>
        <time>2012-01-10T15:42:37Z</time>
      </trkpt>
      <trkpt lat="46.30347" lon="-0.48798">
        <ele>47</ele>
        <time>2012-01-10T15:42:42Z</time>
      </trkpt>
      <trkpt lat="46.30346" lon="-0.48804">
        <ele>47</ele>
        <time>2012-01-10T15:42:47Z</time>
      </trkpt>
      <trkpt lat="46.30347" lon="-0.48812">
        <ele>47</ele>
        <time>2012-01-10T15:42:52Z</time>
      </trkpt>
      <trkpt lat="46.30345" lon="-0.48822">
        <ele>49</ele>
        <time>2012-01-10T15:42:57Z</time>
      </trkpt>
      <trkpt lat="46.30342" lon="-0.4883">
        <ele>49</ele>
        <time>2012-01-10T15:43:02Z</time>
      </trkpt>
      <trkpt lat="46.3034" lon="-0.48833">
        <ele>49</ele>
        <time>2012-01-10T15:43:07Z</time>
      </trkpt>
      <trkpt lat="46.30339" lon="-0.48838">
        <ele>49</ele>
        <time>2012-01-10T15:43:12Z</time>
      </trkpt>
      <trkpt lat="46.30338" lon="-0.4884">
        <ele>50</ele>
        <time>2012-01-10T15:43:17Z</time>
      </trkpt>
      <trkpt lat="46.30339" lon="-0.4884">
        <ele>50</ele>
        <time>2012-01-10T15:43:22Z</time>
      </trkpt>
      <trkpt lat="46.30339" lon="-0.48839">
        <ele>50</ele>
        <time>2012-01-10T15:43:32Z</time>
      </trkpt>
      <trkpt lat="46.30339" lon="-0.4884">
        <ele>51</ele>
        <time>2012-01-10T15:43:42Z</time>
      </trkpt>
      <trkpt lat="46.30338" lon="-0.48839">
        <ele>54</ele>
        <time>2012-01-10T15:43:47Z</time>
      </trkpt>
      <trkpt lat="46.30337" lon="-0.48839">
        <ele>56</ele>
        <time>2012-01-10T15:43:52Z</time>
      </trkpt>
      <trkpt lat="46.30337" lon="-0.48839">
        <ele>55</ele>
        <time>2012-01-10T15:44:02Z</time>
      </trkpt>
      <trkpt lat="46.30336" lon="-0.4884">
        <ele>55</ele>
        <time>2012-01-10T15:44:32Z</time>
      </trkpt>
      <trkpt lat="46.30337" lon="-0.48845">
        <ele>55</ele>
        <time>2012-01-10T15:44:37Z</time>
      </trkpt>
      <trkpt lat="46.30337" lon="-0.48853">
        <ele>53</ele>
        <time>2012-01-10T15:44:42Z</time>
      </trkpt>
      <trkpt lat="46.30339" lon="-0.48861">
        <ele>52</ele>
        <time>2012-01-10T15:44:47Z</time>
      </trkpt>
      <trkpt lat="46.30341" lon="-0.48869">
        <ele>50</ele>
        <time>2012-01-10T15:44:52Z</time>
      </trkpt>
      <trkpt lat="46.30341" lon="-0.4887">
        <ele>50</ele>
        <time>2012-01-10T15:44:57Z</time>
      </trkpt>
      <trkpt lat="46.30342" lon="-0.48868">
        <ele>49</ele>
        <time>2012-01-10T15:45:02Z</time>
      </trkpt>
      <trkpt lat="46.30344" lon="-0.48868">
        <ele>49</ele>
        <time>2012-01-10T15:45:07Z</time>
      </trkpt>
      <trkpt lat="46.30346" lon="-0.4887">
        <ele>48</ele>
        <time>2012-01-10T15:45:12Z</time>
      </trkpt>
      <trkpt lat="46.3035" lon="-0.48875">
        <ele>48</ele>
        <time>2012-01-10T15:45:17Z</time>
      </trkpt>
      <trkpt lat="46.30353" lon="-0.48881">
        <ele>47</ele>
        <time>2012-01-10T15:45:22Z</time>
      </trkpt>
      <trkpt lat="46.30353" lon="-0.48884">
        <ele>47</ele>
        <time>2012-01-10T15:45:27Z</time>
      </trkpt>
      <trkpt lat="46.30351" lon="-0.48885">
        <ele>47</ele>
        <time>2012-01-10T15:45:32Z</time>
      </trkpt>
      <trkpt lat="46.30351" lon="-0.48886">
        <ele>47</ele>
        <time>2012-01-10T15:45:37Z</time>
      </trkpt>
      <trkpt lat="46.30352" lon="-0.48891">
        <ele>45</ele>
        <time>2012-01-10T15:45:42Z</time>
      </trkpt>
      <trkpt lat="46.30353" lon="-0.48899">
        <ele>44</ele>
        <time>2012-01-10T15:45:48Z</time>
      </trkpt>
      <trkpt lat="46.30356" lon="-0.48905">
        <ele>45</ele>
        <time>2012-01-10T15:45:52Z</time>
      </trkpt>
      <trkpt lat="46.30359" lon="-0.48914">
        <ele>46</ele>
        <time>2012-01-10T15:45:57Z</time>
      </trkpt>
      <trkpt lat="46.30363" lon="-0.48922">
        <ele>47</ele>
        <time>2012-01-10T15:46:02Z</time>
      </trkpt>
      <trkpt lat="46.30367" lon="-0.48928">
        <ele>46</ele>
        <time>2012-01-10T15:46:07Z</time>
      </trkpt>
      <trkpt lat="46.3037" lon="-0.48934">
        <ele>47</ele>
        <time>2012-01-10T15:46:12Z</time>
      </trkpt>
      <trkpt lat="46.30372" lon="-0.48939">
        <ele>47</ele>
        <time>2012-01-10T15:46:17Z</time>
      </trkpt>
      <trkpt lat="46.30375" lon="-0.4894">
        <ele>48</ele>
        <time>2012-01-10T15:46:22Z</time>
      </trkpt>
      <trkpt lat="46.30381" lon="-0.48943">
        <ele>50</ele>
        <time>2012-01-10T15:46:27Z</time>
      </trkpt>
      <trkpt lat="46.30384" lon="-0.48951">
        <ele>48</ele>
        <time>2012-01-10T15:46:32Z</time>
      </trkpt>
      <trkpt lat="46.30384" lon="-0.48956">
        <ele>47</ele>
        <time>2012-01-10T15:46:37Z</time>
      </trkpt>
      <trkpt lat="46.30383" lon="-0.48967">
        <ele>49</ele>
        <time>2012-01-10T15:46:42Z</time>
      </trkpt>
      <trkpt lat="46.30382" lon="-0.48975">
        <ele>49</ele>
        <time>2012-01-10T15:46:47Z</time>
      </trkpt>
      <trkpt lat="46.30381" lon="-0.48979">
        <ele>49</ele>
        <time>2012-01-10T15:46:52Z</time>
      </trkpt>
      <trkpt lat="46.30376" lon="-0.48984">
        <ele>50</ele>
        <time>2012-01-10T15:46:57Z</time>
      </trkpt>
      <trkpt lat="46.30372" lon="-0.48987">
        <ele>51</ele>
        <time>2012-01-10T15:47:02Z</time>
      </trkpt>
      <trkpt lat="46.30369" lon="-0.48992">
        <ele>50</ele>
        <time>2012-01-10T15:47:07Z</time>
      </trkpt>
      <trkpt lat="46.30366" lon="-0.48996">
        <ele>50</ele>
        <time>2012-01-10T15:47:12Z</time>
      </trkpt>
      <trkpt lat="46.3036" lon="-0.49">
        <ele>50</ele>
        <time>2012-01-10T15:47:17Z</time>
      </trkpt>
      <trkpt lat="46.30355" lon="-0.49005">
        <ele>50</ele>
        <time>2012-01-10T15:47:22Z</time>
      </trkpt>
      <trkpt lat="46.30352" lon="-0.49009">
        <ele>51</ele>
        <time>2012-01-10T15:47:27Z</time>
      </trkpt>
      <trkpt lat="46.30347" lon="-0.49012">
        <ele>52</ele>
        <time>2012-01-10T15:47:32Z</time>
      </trkpt>
      <trkpt lat="46.3034" lon="-0.49017">
        <ele>52</ele>
        <time>2012-01-10T15:47:37Z</time>
      </trkpt>
      <trkpt lat="46.30336" lon="-0.4902">
        <ele>52</ele>
        <time>2012-01-10T15:47:42Z</time>
      </trkpt>
      <trkpt lat="46.30331" lon="-0.49024">
        <ele>52</ele>
        <time>2012-01-10T15:47:47Z</time>
      </trkpt>
      <trkpt lat="46.30326" lon="-0.49027">
        <ele>53</ele>
        <time>2012-01-10T15:47:52Z</time>
      </trkpt>
      <trkpt lat="46.30321" lon="-0.49028">
        <ele>52</ele>
        <time>2012-01-10T15:47:57Z</time>
      </trkpt>
      <trkpt lat="46.30316" lon="-0.49029">
        <ele>53</ele>
        <time>2012-01-10T15:48:02Z</time>
      </trkpt>
      <trkpt lat="46.30311" lon="-0.49031">
        <ele>52</ele>
        <time>2012-01-10T15:48:07Z</time>
      </trkpt>
      <trkpt lat="46.30307" lon="-0.49035">
        <ele>52</ele>
        <time>2012-01-10T15:48:12Z</time>
      </trkpt>
      <trkpt lat="46.30301" lon="-0.49035">
        <ele>51</ele>
        <time>2012-01-10T15:48:17Z</time>
      </trkpt>
      <trkpt lat="46.30296" lon="-0.49038">
        <ele>51</ele>
        <time>2012-01-10T15:48:22Z</time>
      </trkpt>
      <trkpt lat="46.30291" lon="-0.49039">
        <ele>52</ele>
        <time>2012-01-10T15:48:27Z</time>
      </trkpt>
      <trkpt lat="46.30287" lon="-0.49045">
        <ele>51</ele>
        <time>2012-01-10T15:48:32Z</time>
      </trkpt>
      <trkpt lat="46.30286" lon="-0.49054">
        <ele>52</ele>
        <time>2012-01-10T15:48:37Z</time>
      </trkpt>
      <trkpt lat="46.30286" lon="-0.49062">
        <ele>51</ele>
        <time>2012-01-10T15:48:42Z</time>
      </trkpt>
      <trkpt lat="46.30285" lon="-0.49069">
        <ele>51</ele>
        <time>2012-01-10T15:48:47Z</time>
      </trkpt>
      <trkpt lat="46.30283" lon="-0.49079">
        <ele>51</ele>
        <time>2012-01-10T15:48:52Z</time>
      </trkpt>
      <trkpt lat="46.30282" lon="-0.49087">
        <ele>52</ele>
        <time>2012-01-10T15:48:57Z</time>
      </trkpt>
      <trkpt lat="46.3028" lon="-0.49096">
        <ele>52</ele>
        <time>2012-01-10T15:49:02Z</time>
      </trkpt>
      <trkpt lat="46.30278" lon="-0.49103">
        <ele>51</ele>
        <time>2012-01-10T15:49:07Z</time>
      </trkpt>
      <trkpt lat="46.30278" lon="-0.49109">
        <ele>51</ele>
        <time>2012-01-10T15:49:12Z</time>
      </trkpt>
      <trkpt lat="46.30278" lon="-0.49117">
        <ele>51</ele>
        <time>2012-01-10T15:49:17Z</time>
      </trkpt>
      <trkpt lat="46.3028" lon="-0.49118">
        <ele>49</ele>
        <time>2012-01-10T15:49:22Z</time>
      </trkpt>
      <trkpt lat="46.30287" lon="-0.49118">
        <ele>48</ele>
        <time>2012-01-10T15:49:27Z</time>
      </trkpt>
      <trkpt lat="46.30293" lon="-0.49121">
        <ele>47</ele>
        <time>2012-01-10T15:49:32Z</time>
      </trkpt>
      <trkpt lat="46.30296" lon="-0.49121">
        <ele>43</ele>
        <time>2012-01-10T15:49:37Z</time>
      </trkpt>
      <trkpt lat="46.30298" lon="-0.49124">
        <ele>43</ele>
        <time>2012-01-10T15:49:42Z</time>
      </trkpt>
      <trkpt lat="46.30299" lon="-0.49125">
        <ele>43</ele>
        <time>2012-01-10T15:49:47Z</time>
      </trkpt>
      <trkpt lat="46.303" lon="-0.49125">
        <ele>44</ele>
        <time>2012-01-10T15:49:52Z</time>
      </trkpt>
      <trkpt lat="46.30304" lon="-0.49133">
        <ele>45</ele>
        <time>2012-01-10T15:49:57Z</time>
      </trkpt>
      <trkpt lat="46.3031" lon="-0.49138">
        <ele>46</ele>
        <time>2012-01-10T15:50:02Z</time>
      </trkpt>
      <trkpt lat="46.30316" lon="-0.49142">
        <ele>46</ele>
        <time>2012-01-10T15:50:07Z</time>
      </trkpt>
      <trkpt lat="46.30319" lon="-0.49148">
        <ele>46</ele>
        <time>2012-01-10T15:50:12Z</time>
      </trkpt>
      <trkpt lat="46.30318" lon="-0.49152">
        <ele>44</ele>
        <time>2012-01-10T15:50:17Z</time>
      </trkpt>
      <trkpt lat="46.30318" lon="-0.49158">
        <ele>44</ele>
        <time>2012-01-10T15:50:22Z</time>
      </trkpt>
      <trkpt lat="46.30318" lon="-0.49167">
        <ele>46</ele>
        <time>2012-01-10T15:50:27Z</time>
      </trkpt>
      <trkpt lat="46.3032" lon="-0.49173">
        <ele>45</ele>
        <time>2012-01-10T15:50:32Z</time>
      </trkpt>
      <trkpt lat="46.30319" lon="-0.4918">
        <ele>43</ele>
        <time>2012-01-10T15:50:37Z</time>
      </trkpt>
      <trkpt lat="46.3032" lon="-0.4919">
        <ele>43</ele>
        <time>2012-01-10T15:50:42Z</time>
      </trkpt>
      <trkpt lat="46.30319" lon="-0.49198">
        <ele>44</ele>
        <time>2012-01-10T15:50:47Z</time>
      </trkpt>
      <trkpt lat="46.30317" lon="-0.49206">
        <ele>43</ele>
        <time>2012-01-10T15:50:52Z</time>
      </trkpt>
      <trkpt lat="46.30316" lon="-0.49216">
        <ele>43</ele>
        <time>2012-01-10T15:50:57Z</time>
      </trkpt>
      <trkpt lat="46.30315" lon="-0.4922">
        <ele>43</ele>
        <time>2012-01-10T15:51:02Z</time>
      </trkpt>
      <trkpt lat="46.30311" lon="-0.49229">
        <ele>49</ele>
        <time>2012-01-10T15:51:07Z</time>
      </trkpt>
      <trkpt lat="46.3031" lon="-0.49234">
        <ele>52</ele>
        <time>2012-01-10T15:51:12Z</time>
      </trkpt>
      <trkpt lat="46.30308" lon="-0.49243">
        <ele>52</ele>
        <time>2012-01-10T15:51:17Z</time>
      </trkpt>
      <trkpt lat="46.30304" lon="-0.4925">
        <ele>51</ele>
        <time>2012-01-10T15:51:22Z</time>
      </trkpt>
      <trkpt lat="46.30299" lon="-0.49255">
        <ele>51</ele>
        <time>2012-01-10T15:51:27Z</time>
      </trkpt>
      <trkpt lat="46.30294" lon="-0.4926">
        <ele>51</ele>
        <time>2012-01-10T15:51:32Z</time>
      </trkpt>
      <trkpt lat="46.30289" lon="-0.49265">
        <ele>53</ele>
        <time>2012-01-10T15:51:37Z</time>
      </trkpt>
      <trkpt lat="46.30287" lon="-0.49273">
        <ele>52</ele>
        <time>2012-01-10T15:51:42Z</time>
      </trkpt>
      <trkpt lat="46.30285" lon="-0.49285">
        <ele>52</ele>
        <time>2012-01-10T15:51:47Z</time>
      </trkpt>
      <trkpt lat="46.30284" lon="-0.49296">
        <ele>52</ele>
        <time>2012-01-10T15:51:52Z</time>
      </trkpt>
      <trkpt lat="46.30283" lon="-0.49307">
        <ele>52</ele>
        <time>2012-01-10T15:51:57Z</time>
      </trkpt>
      <trkpt lat="46.30285" lon="-0.49315">
        <ele>52</ele>
        <time>2012-01-10T15:52:02Z</time>
      </trkpt>
      <trkpt lat="46.30284" lon="-0.49323">
        <ele>53</ele>
        <time>2012-01-10T15:52:07Z</time>
      </trkpt>
      <trkpt lat="46.30284" lon="-0.49331">
        <ele>52</ele>
        <time>2012-01-10T15:52:13Z</time>
      </trkpt>
      <trkpt lat="46.30284" lon="-0.49337">
        <ele>53</ele>
        <time>2012-01-10T15:52:17Z</time>
      </trkpt>
      <trkpt lat="46.30282" lon="-0.49348">
        <ele>54</ele>
        <time>2012-01-10T15:52:22Z</time>
      </trkpt>
      <trkpt lat="46.30282" lon="-0.49358">
        <ele>54</ele>
        <time>2012-01-10T15:52:27Z</time>
      </trkpt>
      <trkpt lat="46.30283" lon="-0.49364">
        <ele>55</ele>
        <time>2012-01-10T15:52:32Z</time>
      </trkpt>
      <trkpt lat="46.3028" lon="-0.4938">
        <ele>59</ele>
        <time>2012-01-10T15:52:37Z</time>
      </trkpt>
      <trkpt lat="46.30279" lon="-0.49383">
        <ele>56</ele>
        <time>2012-01-10T15:52:43Z</time>
      </trkpt>
      <trkpt lat="46.30279" lon="-0.49391">
        <ele>58</ele>
        <time>2012-01-10T15:52:47Z</time>
      </trkpt>
      <trkpt lat="46.30277" lon="-0.49399">
        <ele>58</ele>
        <time>2012-01-10T15:52:52Z</time>
      </trkpt>
      <trkpt lat="46.30272" lon="-0.49407">
        <ele>59</ele>
        <time>2012-01-10T15:52:57Z</time>
      </trkpt>
      <trkpt lat="46.30268" lon="-0.49408">
        <ele>56</ele>
        <time>2012-01-10T15:53:02Z</time>
      </trkpt>
      <trkpt lat="46.30265" lon="-0.49414">
        <ele>55</ele>
        <time>2012-01-10T15:53:07Z</time>
      </trkpt>
      <trkpt lat="46.30258" lon="-0.49421">
        <ele>55</ele>
        <time>2012-01-10T15:53:12Z</time>
      </trkpt>
      <trkpt lat="46.30254" lon="-0.49426">
        <ele>54</ele>
        <time>2012-01-10T15:53:17Z</time>
      </trkpt>
      <trkpt lat="46.3025" lon="-0.4943">
        <ele>54</ele>
        <time>2012-01-10T15:53:22Z</time>
      </trkpt>
      <trkpt lat="46.30245" lon="-0.49435">
        <ele>55</ele>
        <time>2012-01-10T15:53:27Z</time>
      </trkpt>
      <trkpt lat="46.30239" lon="-0.49438">
        <ele>54</ele>
        <time>2012-01-10T15:53:32Z</time>
      </trkpt>
      <trkpt lat="46.30233" lon="-0.49443">
        <ele>55</ele>
        <time>2012-01-10T15:53:37Z</time>
      </trkpt>
      <trkpt lat="46.30229" lon="-0.49448">
        <ele>55</ele>
        <time>2012-01-10T15:53:42Z</time>
      </trkpt>
      <trkpt lat="46.30223" lon="-0.49451">
        <ele>55</ele>
        <time>2012-01-10T15:53:47Z</time>
      </trkpt>
      <trkpt lat="46.30218" lon="-0.49454">
        <ele>54</ele>
        <time>2012-01-10T15:53:52Z</time>
      </trkpt>
      <trkpt lat="46.30215" lon="-0.49458">
        <ele>53</ele>
        <time>2012-01-10T15:53:57Z</time>
      </trkpt>
      <trkpt lat="46.30211" lon="-0.49464">
        <ele>52</ele>
        <time>2012-01-10T15:54:02Z</time>
      </trkpt>
      <trkpt lat="46.30208" lon="-0.49471">
        <ele>52</ele>
        <time>2012-01-10T15:54:07Z</time>
      </trkpt>
      <trkpt lat="46.30203" lon="-0.49476">
        <ele>52</ele>
        <time>2012-01-10T15:54:12Z</time>
      </trkpt>
      <trkpt lat="46.302" lon="-0.49482">
        <ele>53</ele>
        <time>2012-01-10T15:54:17Z</time>
      </trkpt>
      <trkpt lat="46.30195" lon="-0.49489">
        <ele>54</ele>
        <time>2012-01-10T15:54:22Z</time>
      </trkpt>
      <trkpt lat="46.30191" lon="-0.49494">
        <ele>55</ele>
        <time>2012-01-10T15:54:27Z</time>
      </trkpt>
      <trkpt lat="46.30187" lon="-0.495">
        <ele>54</ele>
        <time>2012-01-10T15:54:32Z</time>
      </trkpt>
      <trkpt lat="46.30184" lon="-0.49507">
        <ele>53</ele>
        <time>2012-01-10T15:54:37Z</time>
      </trkpt>
      <trkpt lat="46.30182" lon="-0.49515">
        <ele>53</ele>
        <time>2012-01-10T15:54:42Z</time>
      </trkpt>
      <trkpt lat="46.3018" lon="-0.49521">
        <ele>53</ele>
        <time>2012-01-10T15:54:47Z</time>
      </trkpt>
      <trkpt lat="46.30175" lon="-0.49526">
        <ele>54</ele>
        <time>2012-01-10T15:54:52Z</time>
      </trkpt>
      <trkpt lat="46.30171" lon="-0.49534">
        <ele>54</ele>
        <time>2012-01-10T15:54:57Z</time>
      </trkpt>
      <trkpt lat="46.30169" lon="-0.49539">
        <ele>55</ele>
        <time>2012-01-10T15:55:02Z</time>
      </trkpt>
      <trkpt lat="46.30168" lon="-0.49543">
        <ele>55</ele>
        <time>2012-01-10T15:55:07Z</time>
      </trkpt>
      <trkpt lat="46.30167" lon="-0.49546">
        <ele>56</ele>
        <time>2012-01-10T15:55:12Z</time>
      </trkpt>
      <trkpt lat="46.30166" lon="-0.49546">
        <ele>57</ele>
        <time>2012-01-10T15:55:17Z</time>
      </trkpt>
      <trkpt lat="46.30165" lon="-0.4955">
        <ele>56</ele>
        <time>2012-01-10T15:55:22Z</time>
      </trkpt>
      <trkpt lat="46.30162" lon="-0.49553">
        <ele>53</ele>
        <time>2012-01-10T15:55:27Z</time>
      </trkpt>
      <trkpt lat="46.30156" lon="-0.49554">
        <ele>52</ele>
        <time>2012-01-10T15:55:32Z</time>
      </trkpt>
      <trkpt lat="46.30153" lon="-0.49559">
        <ele>51</ele>
        <time>2012-01-10T15:55:37Z</time>
      </trkpt>
      <trkpt lat="46.30151" lon="-0.49565">
        <ele>53</ele>
        <time>2012-01-10T15:55:42Z</time>
      </trkpt>
      <trkpt lat="46.30147" lon="-0.4957">
        <ele>52</ele>
        <time>2012-01-10T15:55:47Z</time>
      </trkpt>
      <trkpt lat="46.30143" lon="-0.49576">
        <ele>52</ele>
        <time>2012-01-10T15:55:52Z</time>
      </trkpt>
      <trkpt lat="46.30141" lon="-0.49582">
        <ele>51</ele>
        <time>2012-01-10T15:55:57Z</time>
      </trkpt>
      <trkpt lat="46.30139" lon="-0.49588">
        <ele>51</ele>
        <time>2012-01-10T15:56:02Z</time>
      </trkpt>
      <trkpt lat="46.30135" lon="-0.49596">
        <ele>52</ele>
        <time>2012-01-10T15:56:07Z</time>
      </trkpt>
      <trkpt lat="46.30132" lon="-0.49602">
        <ele>52</ele>
        <time>2012-01-10T15:56:12Z</time>
      </trkpt>
      <trkpt lat="46.30127" lon="-0.4961">
        <ele>55</ele>
        <time>2012-01-10T15:56:17Z</time>
      </trkpt>
      <trkpt lat="46.30124" lon="-0.49614">
        <ele>54</ele>
        <time>2012-01-10T15:56:22Z</time>
      </trkpt>
      <trkpt lat="46.30122" lon="-0.4962">
        <ele>53</ele>
        <time>2012-01-10T15:56:27Z</time>
      </trkpt>
      <trkpt lat="46.3012" lon="-0.4962">
        <ele>55</ele>
        <time>2012-01-10T15:56:32Z</time>
      </trkpt>
      <trkpt lat="46.30119" lon="-0.49624">
        <ele>53</ele>
        <time>2012-01-10T15:56:37Z</time>
      </trkpt>
      <trkpt lat="46.30116" lon="-0.49632">
        <ele>55</ele>
        <time>2012-01-10T15:56:42Z</time>
      </trkpt>
      <trkpt lat="46.30114" lon="-0.49635">
        <ele>54</ele>
        <time>2012-01-10T15:56:47Z</time>
      </trkpt>
      <trkpt lat="46.30112" lon="-0.49641">
        <ele>52</ele>
        <time>2012-01-10T15:56:52Z</time>
      </trkpt>
      <trkpt lat="46.30109" lon="-0.49648">
        <ele>51</ele>
        <time>2012-01-10T15:56:57Z</time>
      </trkpt>
      <trkpt lat="46.30105" lon="-0.49655">
        <ele>52</ele>
        <time>2012-01-10T15:57:02Z</time>
      </trkpt>
      <trkpt lat="46.30103" lon="-0.49661">
        <ele>52</ele>
        <time>2012-01-10T15:57:07Z</time>
      </trkpt>
      <trkpt lat="46.30101" lon="-0.49668">
        <ele>51</ele>
        <time>2012-01-10T15:57:12Z</time>
      </trkpt>
      <trkpt lat="46.30096" lon="-0.49673">
        <ele>51</ele>
        <time>2012-01-10T15:57:17Z</time>
      </trkpt>
      <trkpt lat="46.30093" lon="-0.49679">
        <ele>52</ele>
        <time>2012-01-10T15:57:22Z</time>
      </trkpt>
      <trkpt lat="46.3009" lon="-0.49686">
        <ele>53</ele>
        <time>2012-01-10T15:57:27Z</time>
      </trkpt>
      <trkpt lat="46.30087" lon="-0.49691">
        <ele>53</ele>
        <time>2012-01-10T15:57:32Z</time>
      </trkpt>
      <trkpt lat="46.30083" lon="-0.49698">
        <ele>53</ele>
        <time>2012-01-10T15:57:37Z</time>
      </trkpt>
      <trkpt lat="46.30081" lon="-0.49707">
        <ele>53</ele>
        <time>2012-01-10T15:57:42Z</time>
      </trkpt>
      <trkpt lat="46.30079" lon="-0.49714">
        <ele>52</ele>
        <time>2012-01-10T15:57:47Z</time>
      </trkpt>
      <trkpt lat="46.30076" lon="-0.49722">
        <ele>52</ele>
        <time>2012-01-10T15:57:52Z</time>
      </trkpt>
      <trkpt lat="46.30075" lon="-0.49731">
        <ele>53</ele>
        <time>2012-01-10T15:57:57Z</time>
      </trkpt>
      <trkpt lat="46.30077" lon="-0.49738">
        <ele>53</ele>
        <time>2012-01-10T15:58:02Z</time>
      </trkpt>
      <trkpt lat="46.30079" lon="-0.49749">
        <ele>53</ele>
        <time>2012-01-10T15:58:07Z</time>
      </trkpt>
      <trkpt lat="46.30079" lon="-0.49757">
        <ele>53</ele>
        <time>2012-01-10T15:58:12Z</time>
      </trkpt>
      <trkpt lat="46.30079" lon="-0.49768">
        <ele>53</ele>
        <time>2012-01-10T15:58:17Z</time>
      </trkpt>
      <trkpt lat="46.3008" lon="-0.49781">
        <ele>58</ele>
        <time>2012-01-10T15:58:22Z</time>
      </trkpt>
      <trkpt lat="46.3008" lon="-0.49791">
        <ele>61</ele>
        <time>2012-01-10T15:58:27Z</time>
      </trkpt>
      <trkpt lat="46.3008" lon="-0.49801">
        <ele>65</ele>
        <time>2012-01-10T15:58:32Z</time>
      </trkpt>
      <trkpt lat="46.30074" lon="-0.49827">
        <ele>83</ele>
        <time>2012-01-10T15:58:37Z</time>
      </trkpt>
      <trkpt lat="46.30073" lon="-0.49831">
        <ele>84</ele>
        <time>2012-01-10T15:58:42Z</time>
      </trkpt>
      <trkpt lat="46.30073" lon="-0.49842">
        <ele>84</ele>
        <time>2012-01-10T15:58:47Z</time>
      </trkpt>
      <trkpt lat="46.30073" lon="-0.4984">
        <ele>77</ele>
        <time>2012-01-10T15:58:52Z</time>
      </trkpt>
      <trkpt lat="46.3007" lon="-0.49832">
        <ele>68</ele>
        <time>2012-01-10T15:58:57Z</time>
      </trkpt>
      <trkpt lat="46.30068" lon="-0.49837">
        <ele>66</ele>
        <time>2012-01-10T15:59:02Z</time>
      </trkpt>
      <trkpt lat="46.30072" lon="-0.49845">
        <ele>61</ele>
        <time>2012-01-10T15:59:07Z</time>
      </trkpt>
      <trkpt lat="46.30073" lon="-0.49852">
        <ele>61</ele>
        <time>2012-01-10T15:59:12Z</time>
      </trkpt>
      <trkpt lat="46.30071" lon="-0.4986">
        <ele>60</ele>
        <time>2012-01-10T15:59:17Z</time>
      </trkpt>
      <trkpt lat="46.30071" lon="-0.49869">
        <ele>61</ele>
        <time>2012-01-10T15:59:22Z</time>
      </trkpt>
      <trkpt lat="46.3007" lon="-0.49881">
        <ele>61</ele>
        <time>2012-01-10T15:59:27Z</time>
      </trkpt>
      <trkpt lat="46.30068" lon="-0.49893">
        <ele>61</ele>
        <time>2012-01-10T15:59:32Z</time>
      </trkpt>
      <trkpt lat="46.30068" lon="-0.499">
        <ele>62</ele>
        <time>2012-01-10T15:59:37Z</time>
      </trkpt>
      <trkpt lat="46.30067" lon="-0.49894">
        <ele>54</ele>
        <time>2012-01-10T15:59:42Z</time>
      </trkpt>
      <trkpt lat="46.30064" lon="-0.49899">
        <ele>53</ele>
        <time>2012-01-10T15:59:47Z</time>
      </trkpt>
      <trkpt lat="46.3006" lon="-0.49905">
        <ele>52</ele>
        <time>2012-01-10T15:59:52Z</time>
      </trkpt>
      <trkpt lat="46.3006" lon="-0.49909">
        <ele>52</ele>
        <time>2012-01-10T15:59:57Z</time>
      </trkpt>
      <trkpt lat="46.30058" lon="-0.49912">
        <ele>55</ele>
        <time>2012-01-10T16:00:02Z</time>
      </trkpt>
      <trkpt lat="46.30059" lon="-0.49912">
        <ele>53</ele>
        <time>2012-01-10T16:00:07Z</time>
      </trkpt>
      <trkpt lat="46.3006" lon="-0.49912">
        <ele>53</ele>
        <time>2012-01-10T16:00:12Z</time>
      </trkpt>
      <trkpt lat="46.3006" lon="-0.49913">
        <ele>53</ele>
        <time>2012-01-10T16:00:17Z</time>
      </trkpt>
      <trkpt lat="46.30058" lon="-0.49914">
        <ele>52</ele>
        <time>2012-01-10T16:00:32Z</time>
      </trkpt>
      <trkpt lat="46.30057" lon="-0.4992">
        <ele>52</ele>
        <time>2012-01-10T16:00:37Z</time>
      </trkpt>
      <trkpt lat="46.30057" lon="-0.49922">
        <ele>53</ele>
        <time>2012-01-10T16:00:42Z</time>
      </trkpt>
      <trkpt lat="46.30056" lon="-0.49922">
        <ele>53</ele>
        <time>2012-01-10T16:00:47Z</time>
      </trkpt>
      <trkpt lat="46.30054" lon="-0.49923">
        <ele>53</ele>
        <time>2012-01-10T16:00:52Z</time>
      </trkpt>
      <trkpt lat="46.30049" lon="-0.49927">
        <ele>54</ele>
        <time>2012-01-10T16:00:57Z</time>
      </trkpt>
      <trkpt lat="46.30046" lon="-0.49932">
        <ele>54</ele>
        <time>2012-01-10T16:01:02Z</time>
      </trkpt>
      <trkpt lat="46.30044" lon="-0.49936">
        <ele>55</ele>
        <time>2012-01-10T16:01:07Z</time>
      </trkpt>
      <trkpt lat="46.30042" lon="-0.49944">
        <ele>54</ele>
        <time>2012-01-10T16:01:12Z</time>
      </trkpt>
      <trkpt lat="46.30042" lon="-0.4995">
        <ele>53</ele>
        <time>2012-01-10T16:01:17Z</time>
      </trkpt>
      <trkpt lat="46.30041" lon="-0.49956">
        <ele>52</ele>
        <time>2012-01-10T16:01:22Z</time>
      </trkpt>
      <trkpt lat="46.30039" lon="-0.49964">
        <ele>53</ele>
        <time>2012-01-10T16:01:27Z</time>
      </trkpt>
      <trkpt lat="46.30037" lon="-0.4997">
        <ele>52</ele>
        <time>2012-01-10T16:01:32Z</time>
      </trkpt>
      <trkpt lat="46.30034" lon="-0.49977">
        <ele>52</ele>
        <time>2012-01-10T16:01:37Z</time>
      </trkpt>
      <trkpt lat="46.30031" lon="-0.49984">
        <ele>53</ele>
        <time>2012-01-10T16:01:42Z</time>
      </trkpt>
      <trkpt lat="46.30029" lon="-0.49992">
        <ele>53</ele>
        <time>2012-01-10T16:01:47Z</time>
      </trkpt>
      <trkpt lat="46.30027" lon="-0.49998">
        <ele>54</ele>
        <time>2012-01-10T16:01:52Z</time>
      </trkpt>
      <trkpt lat="46.30025" lon="-0.50008">
        <ele>55</ele>
        <time>2012-01-10T16:01:57Z</time>
      </trkpt>
      <trkpt lat="46.30021" lon="-0.50015">
        <ele>54</ele>
        <time>2012-01-10T16:02:02Z</time>
      </trkpt>
      <trkpt lat="46.30018" lon="-0.50018">
        <ele>55</ele>
        <time>2012-01-10T16:02:07Z</time>
      </trkpt>
      <trkpt lat="46.30013" lon="-0.50026">
        <ele>55</ele>
        <time>2012-01-10T16:02:12Z</time>
      </trkpt>
      <trkpt lat="46.3001" lon="-0.50032">
        <ele>56</ele>
        <time>2012-01-10T16:02:17Z</time>
      </trkpt>
      <trkpt lat="46.30008" lon="-0.5004">
        <ele>55</ele>
        <time>2012-01-10T16:02:22Z</time>
      </trkpt>
      <trkpt lat="46.30005" lon="-0.50047">
        <ele>55</ele>
        <time>2012-01-10T16:02:27Z</time>
      </trkpt>
      <trkpt lat="46.30003" lon="-0.50056">
        <ele>55</ele>
        <time>2012-01-10T16:02:32Z</time>
      </trkpt>
      <trkpt lat="46.3" lon="-0.50062">
        <ele>56</ele>
        <time>2012-01-10T16:02:37Z</time>
      </trkpt>
      <trkpt lat="46.29998" lon="-0.50068">
        <ele>57</ele>
        <time>2012-01-10T16:02:42Z</time>
      </trkpt>
      <trkpt lat="46.29995" lon="-0.5008">
        <ele>58</ele>
        <time>2012-01-10T16:02:47Z</time>
      </trkpt>
      <trkpt lat="46.29994" lon="-0.50088">
        <ele>53</ele>
        <time>2012-01-10T16:02:57Z</time>
      </trkpt>
      <trkpt lat="46.29991" lon="-0.50093">
        <ele>53</ele>
        <time>2012-01-10T16:03:02Z</time>
      </trkpt>
      <trkpt lat="46.29989" lon="-0.50099">
        <ele>54</ele>
        <time>2012-01-10T16:03:08Z</time>
      </trkpt>
      <trkpt lat="46.29987" lon="-0.50105">
        <ele>54</ele>
        <time>2012-01-10T16:03:12Z</time>
      </trkpt>
      <trkpt lat="46.29984" lon="-0.50113">
        <ele>54</ele>
        <time>2012-01-10T16:03:17Z</time>
      </trkpt>
      <trkpt lat="46.29982" lon="-0.5012">
        <ele>54</ele>
        <time>2012-01-10T16:03:22Z</time>
      </trkpt>
      <trkpt lat="46.2998" lon="-0.50127">
        <ele>55</ele>
        <time>2012-01-10T16:03:27Z</time>
      </trkpt>
      <trkpt lat="46.29977" lon="-0.50132">
        <ele>55</ele>
        <time>2012-01-10T16:03:32Z</time>
      </trkpt>
      <trkpt lat="46.29974" lon="-0.5014">
        <ele>56</ele>
        <time>2012-01-10T16:03:37Z</time>
      </trkpt>
      <trkpt lat="46.29973" lon="-0.50147">
        <ele>56</ele>
        <time>2012-01-10T16:03:42Z</time>
      </trkpt>
      <trkpt lat="46.29972" lon="-0.50149">
        <ele>57</ele>
        <time>2012-01-10T16:03:47Z</time>
      </trkpt>
      <trkpt lat="46.29971" lon="-0.50157">
        <ele>57</ele>
        <time>2012-01-10T16:03:52Z</time>
      </trkpt>
      <trkpt lat="46.2997" lon="-0.50168">
        <ele>58</ele>
        <time>2012-01-10T16:03:57Z</time>
      </trkpt>
      <trkpt lat="46.29968" lon="-0.50177">
        <ele>58</ele>
        <time>2012-01-10T16:04:02Z</time>
      </trkpt>
      <trkpt lat="46.29966" lon="-0.50185">
        <ele>57</ele>
        <time>2012-01-10T16:04:07Z</time>
      </trkpt>
      <trkpt lat="46.29966" lon="-0.50193">
        <ele>57</ele>
        <time>2012-01-10T16:04:12Z</time>
      </trkpt>
      <trkpt lat="46.29964" lon="-0.50199">
        <ele>55</ele>
        <time>2012-01-10T16:04:17Z</time>
      </trkpt>
      <trkpt lat="46.29965" lon="-0.50208">
        <ele>56</ele>
        <time>2012-01-10T16:04:22Z</time>
      </trkpt>
      <trkpt lat="46.29966" lon="-0.50216">
        <ele>56</ele>
        <time>2012-01-10T16:04:27Z</time>
      </trkpt>
      <trkpt lat="46.29968" lon="-0.50226">
        <ele>57</ele>
        <time>2012-01-10T16:04:32Z</time>
      </trkpt>
      <trkpt lat="46.29968" lon="-0.50232">
        <ele>56</ele>
        <time>2012-01-10T16:04:37Z</time>
      </trkpt>
      <trkpt lat="46.2997" lon="-0.50237">
        <ele>56</ele>
        <time>2012-01-10T16:04:42Z</time>
      </trkpt>
      <trkpt lat="46.29968" lon="-0.50247">
        <ele>57</ele>
        <time>2012-01-10T16:04:47Z</time>
      </trkpt>
      <trkpt lat="46.29969" lon="-0.50253">
        <ele>58</ele>
        <time>2012-01-10T16:04:52Z</time>
      </trkpt>
      <trkpt lat="46.29972" lon="-0.50261">
        <ele>59</ele>
        <time>2012-01-10T16:04:58Z</time>
      </trkpt>
      <trkpt lat="46.29972" lon="-0.50266">
        <ele>59</ele>
        <time>2012-01-10T16:05:02Z</time>
      </trkpt>
      <trkpt lat="46.29973" lon="-0.50274">
        <ele>60</ele>
        <time>2012-01-10T16:05:07Z</time>
      </trkpt>
      <trkpt lat="46.29973" lon="-0.50284">
        <ele>61</ele>
        <time>2012-01-10T16:05:12Z</time>
      </trkpt>
      <trkpt lat="46.29975" lon="-0.50289">
        <ele>61</ele>
        <time>2012-01-10T16:05:17Z</time>
      </trkpt>
      <trkpt lat="46.29977" lon="-0.50296">
        <ele>61</ele>
        <time>2012-01-10T16:05:22Z</time>
      </trkpt>
      <trkpt lat="46.29977" lon="-0.50303">
        <ele>60</ele>
        <time>2012-01-10T16:05:27Z</time>
      </trkpt>
      <trkpt lat="46.29978" lon="-0.50311">
        <ele>58</ele>
        <time>2012-01-10T16:05:32Z</time>
      </trkpt>
      <trkpt lat="46.29979" lon="-0.50318">
        <ele>59</ele>
        <time>2012-01-10T16:05:37Z</time>
      </trkpt>
      <trkpt lat="46.29979" lon="-0.50319">
        <ele>59</ele>
        <time>2012-01-10T16:05:42Z</time>
      </trkpt>
      <trkpt lat="46.2998" lon="-0.50323">
        <ele>60</ele>
        <time>2012-01-10T16:05:52Z</time>
      </trkpt>
      <trkpt lat="46.29981" lon="-0.50329">
        <ele>59</ele>
        <time>2012-01-10T16:05:57Z</time>
      </trkpt>
      <trkpt lat="46.29983" lon="-0.50334">
        <ele>59</ele>
        <time>2012-01-10T16:06:02Z</time>
      </trkpt>
      <trkpt lat="46.29983" lon="-0.50342">
        <ele>58</ele>
        <time>2012-01-10T16:06:07Z</time>
      </trkpt>
      <trkpt lat="46.29984" lon="-0.50349">
        <ele>59</ele>
        <time>2012-01-10T16:06:12Z</time>
      </trkpt>
      <trkpt lat="46.29984" lon="-0.50357">
        <ele>60</ele>
        <time>2012-01-10T16:06:17Z</time>
      </trkpt>
      <trkpt lat="46.29983" lon="-0.50365">
        <ele>61</ele>
        <time>2012-01-10T16:06:22Z</time>
      </trkpt>
      <trkpt lat="46.29983" lon="-0.50373">
        <ele>63</ele>
        <time>2012-01-10T16:06:27Z</time>
      </trkpt>
      <trkpt lat="46.29983" lon="-0.50378">
        <ele>63</ele>
        <time>2012-01-10T16:06:32Z</time>
      </trkpt>
      <trkpt lat="46.29983" lon="-0.50386">
        <ele>64</ele>
        <time>2012-01-10T16:06:37Z</time>
      </trkpt>
      <trkpt lat="46.29981" lon="-0.50395">
        <ele>64</ele>
        <time>2012-01-10T16:06:42Z</time>
      </trkpt>
      <trkpt lat="46.29981" lon="-0.504">
        <ele>64</ele>
        <time>2012-01-10T16:06:47Z</time>
      </trkpt>
      <trkpt lat="46.29981" lon="-0.50404">
        <ele>63</ele>
        <time>2012-01-10T16:06:52Z</time>
      </trkpt>
      <trkpt lat="46.2998" lon="-0.50412">
        <ele>65</ele>
        <time>2012-01-10T16:06:57Z</time>
      </trkpt>
      <trkpt lat="46.29981" lon="-0.50419">
        <ele>64</ele>
        <time>2012-01-10T16:07:02Z</time>
      </trkpt>
      <trkpt lat="46.2998" lon="-0.50426">
        <ele>66</ele>
        <time>2012-01-10T16:07:07Z</time>
      </trkpt>
      <trkpt lat="46.29979" lon="-0.50433">
        <ele>65</ele>
        <time>2012-01-10T16:07:12Z</time>
      </trkpt>
      <trkpt lat="46.29978" lon="-0.50436">
        <ele>65</ele>
        <time>2012-01-10T16:07:17Z</time>
      </trkpt>
      <trkpt lat="46.29976" lon="-0.50439">
        <ele>65</ele>
        <time>2012-01-10T16:07:22Z</time>
      </trkpt>
      <trkpt lat="46.29975" lon="-0.50445">
        <ele>66</ele>
        <time>2012-01-10T16:07:27Z</time>
      </trkpt>
      <trkpt lat="46.29972" lon="-0.50451">
        <ele>66</ele>
        <time>2012-01-10T16:07:32Z</time>
      </trkpt>
      <trkpt lat="46.2997" lon="-0.50459">
        <ele>66</ele>
        <time>2012-01-10T16:07:37Z</time>
      </trkpt>
      <trkpt lat="46.29967" lon="-0.50465">
        <ele>66</ele>
        <time>2012-01-10T16:07:42Z</time>
      </trkpt>
      <trkpt lat="46.29963" lon="-0.50475">
        <ele>70</ele>
        <time>2012-01-10T16:07:47Z</time>
      </trkpt>
      <trkpt lat="46.29962" lon="-0.50482">
        <ele>71</ele>
        <time>2012-01-10T16:07:52Z</time>
      </trkpt>
      <trkpt lat="46.2996" lon="-0.50489">
        <ele>71</ele>
        <time>2012-01-10T16:07:57Z</time>
      </trkpt>
      <trkpt lat="46.29959" lon="-0.50498">
        <ele>71</ele>
        <time>2012-01-10T16:08:02Z</time>
      </trkpt>
      <trkpt lat="46.2996" lon="-0.50509">
        <ele>70</ele>
        <time>2012-01-10T16:08:07Z</time>
      </trkpt>
      <trkpt lat="46.2996" lon="-0.50516">
        <ele>71</ele>
        <time>2012-01-10T16:08:12Z</time>
      </trkpt>
      <trkpt lat="46.29962" lon="-0.5052">
        <ele>69</ele>
        <time>2012-01-10T16:08:17Z</time>
      </trkpt>
      <trkpt lat="46.29963" lon="-0.50529">
        <ele>69</ele>
        <time>2012-01-10T16:08:22Z</time>
      </trkpt>
      <trkpt lat="46.29965" lon="-0.50536">
        <ele>69</ele>
        <time>2012-01-10T16:08:27Z</time>
      </trkpt>
      <trkpt lat="46.29964" lon="-0.50546">
        <ele>69</ele>
        <time>2012-01-10T16:08:32Z</time>
      </trkpt>
      <trkpt lat="46.29965" lon="-0.50555">
        <ele>68</ele>
        <time>2012-01-10T16:08:37Z</time>
      </trkpt>
      <trkpt lat="46.29969" lon="-0.50562">
        <ele>68</ele>
        <time>2012-01-10T16:08:42Z</time>
      </trkpt>
      <trkpt lat="46.29972" lon="-0.50566">
        <ele>66</ele>
        <time>2012-01-10T16:08:47Z</time>
      </trkpt>
      <trkpt lat="46.29972" lon="-0.50575">
        <ele>64</ele>
        <time>2012-01-10T16:08:52Z</time>
      </trkpt>
      <trkpt lat="46.29976" lon="-0.50576">
        <ele>62</ele>
        <time>2012-01-10T16:08:57Z</time>
      </trkpt>
      <trkpt lat="46.29981" lon="-0.50582">
        <ele>63</ele>
        <time>2012-01-10T16:09:02Z</time>
      </trkpt>
      <trkpt lat="46.29984" lon="-0.50586">
        <ele>62</ele>
        <time>2012-01-10T16:09:07Z</time>
      </trkpt>
      <trkpt lat="46.29986" lon="-0.50591">
        <ele>62</ele>
        <time>2012-01-10T16:09:12Z</time>
      </trkpt>
      <trkpt lat="46.29991" lon="-0.50598">
        <ele>62</ele>
        <time>2012-01-10T16:09:17Z</time>
      </trkpt>
      <trkpt lat="46.29993" lon="-0.50604">
        <ele>64</ele>
        <time>2012-01-10T16:09:22Z</time>
      </trkpt>
      <trkpt lat="46.29995" lon="-0.50609">
        <ele>64</ele>
        <time>2012-01-10T16:09:27Z</time>
      </trkpt>
      <trkpt lat="46.29999" lon="-0.50617">
        <ele>65</ele>
        <time>2012-01-10T16:09:32Z</time>
      </trkpt>
      <trkpt lat="46.30001" lon="-0.50618">
        <ele>65</ele>
        <time>2012-01-10T16:09:37Z</time>
      </trkpt>
      <trkpt lat="46.30003" lon="-0.50626">
        <ele>65</ele>
        <time>2012-01-10T16:09:42Z</time>
      </trkpt>
      <trkpt lat="46.30005" lon="-0.50634">
        <ele>66</ele>
        <time>2012-01-10T16:09:47Z</time>
      </trkpt>
      <trkpt lat="46.30007" lon="-0.5064">
        <ele>65</ele>
        <time>2012-01-10T16:09:52Z</time>
      </trkpt>
      <trkpt lat="46.30009" lon="-0.5064">
        <ele>64</ele>
        <time>2012-01-10T16:09:57Z</time>
      </trkpt>
      <trkpt lat="46.3001" lon="-0.50645">
        <ele>64</ele>
        <time>2012-01-10T16:10:02Z</time>
      </trkpt>
      <trkpt lat="46.30006" lon="-0.50648">
        <ele>65</ele>
        <time>2012-01-10T16:10:07Z</time>
      </trkpt>
      <trkpt lat="46.3" lon="-0.50654">
        <ele>67</ele>
        <time>2012-01-10T16:10:12Z</time>
      </trkpt>
      <trkpt lat="46.29998" lon="-0.50658">
        <ele>67</ele>
        <time>2012-01-10T16:10:17Z</time>
      </trkpt>
      <trkpt lat="46.29993" lon="-0.50662">
        <ele>67</ele>
        <time>2012-01-10T16:10:22Z</time>
      </trkpt>
      <trkpt lat="46.29988" lon="-0.50669">
        <ele>68</ele>
        <time>2012-01-10T16:10:27Z</time>
      </trkpt>
      <trkpt lat="46.29983" lon="-0.50674">
        <ele>68</ele>
        <time>2012-01-10T16:10:32Z</time>
      </trkpt>
      <trkpt lat="46.29978" lon="-0.50678">
        <ele>69</ele>
        <time>2012-01-10T16:10:37Z</time>
      </trkpt>
      <trkpt lat="46.29973" lon="-0.50682">
        <ele>69</ele>
        <time>2012-01-10T16:10:42Z</time>
      </trkpt>
      <trkpt lat="46.29969" lon="-0.50687">
        <ele>70</ele>
        <time>2012-01-10T16:10:47Z</time>
      </trkpt>
      <trkpt lat="46.29964" lon="-0.50692">
        <ele>72</ele>
        <time>2012-01-10T16:10:52Z</time>
      </trkpt>
      <trkpt lat="46.29962" lon="-0.50697">
        <ele>70</ele>
        <time>2012-01-10T16:10:57Z</time>
      </trkpt>
      <trkpt lat="46.29959" lon="-0.50702">
        <ele>69</ele>
        <time>2012-01-10T16:11:02Z</time>
      </trkpt>
      <trkpt lat="46.29954" lon="-0.50707">
        <ele>70</ele>
        <time>2012-01-10T16:11:07Z</time>
      </trkpt>
      <trkpt lat="46.29949" lon="-0.50713">
        <ele>69</ele>
        <time>2012-01-10T16:11:12Z</time>
      </trkpt>
      <trkpt lat="46.29946" lon="-0.50717">
        <ele>68</ele>
        <time>2012-01-10T16:11:17Z</time>
      </trkpt>
      <trkpt lat="46.29941" lon="-0.50724">
        <ele>68</ele>
        <time>2012-01-10T16:11:22Z</time>
      </trkpt>
      <trkpt lat="46.29937" lon="-0.50727">
        <ele>69</ele>
        <time>2012-01-10T16:11:27Z</time>
      </trkpt>
      <trkpt lat="46.29933" lon="-0.50732">
        <ele>68</ele>
        <time>2012-01-10T16:11:32Z</time>
      </trkpt>
      <trkpt lat="46.29929" lon="-0.50736">
        <ele>69</ele>
        <time>2012-01-10T16:11:37Z</time>
      </trkpt>
      <trkpt lat="46.29924" lon="-0.50739">
        <ele>69</ele>
        <time>2012-01-10T16:11:42Z</time>
      </trkpt>
      <trkpt lat="46.29923" lon="-0.5074">
        <ele>70</ele>
        <time>2012-01-10T16:11:47Z</time>
      </trkpt>
      <trkpt lat="46.29924" lon="-0.5074">
        <ele>70</ele>
        <time>2012-01-10T16:11:52Z</time>
      </trkpt>
      <trkpt lat="46.29923" lon="-0.50738">
        <ele>71</ele>
        <time>2012-01-10T16:12:12Z</time>
      </trkpt>
      <trkpt lat="46.29926" lon="-0.50738">
        <ele>71</ele>
        <time>2012-01-10T16:12:17Z</time>
      </trkpt>
      <trkpt lat="46.29927" lon="-0.50739">
        <ele>70</ele>
        <time>2012-01-10T16:12:22Z</time>
      </trkpt>
      <trkpt lat="46.29926" lon="-0.5074">
        <ele>70</ele>
        <time>2012-01-10T16:12:27Z</time>
      </trkpt>
      <trkpt lat="46.29925" lon="-0.5074">
        <ele>73</ele>
        <time>2012-01-10T16:12:37Z</time>
      </trkpt>
      <trkpt lat="46.29925" lon="-0.50744">
        <ele>73</ele>
        <time>2012-01-10T16:12:42Z</time>
      </trkpt>
      <trkpt lat="46.29924" lon="-0.50741">
        <ele>71</ele>
        <time>2012-01-10T16:12:47Z</time>
      </trkpt>
      <trkpt lat="46.29924" lon="-0.5074">
        <ele>72</ele>
        <time>2012-01-10T16:12:57Z</time>
      </trkpt>
      <trkpt lat="46.29925" lon="-0.50741">
        <ele>70</ele>
        <time>2012-01-10T16:13:02Z</time>
      </trkpt>
      <trkpt lat="46.29924" lon="-0.50743">
        <ele>69</ele>
        <time>2012-01-10T16:13:07Z</time>
      </trkpt>
      <trkpt lat="46.29924" lon="-0.50743">
        <ele>68</ele>
        <time>2012-01-10T16:13:12Z</time>
      </trkpt>
      <trkpt lat="46.29925" lon="-0.50741">
        <ele>69</ele>
        <time>2012-01-10T16:13:42Z</time>
      </trkpt>
      <trkpt lat="46.29924" lon="-0.50742">
        <ele>69</ele>
        <time>2012-01-10T16:13:47Z</time>
      </trkpt>
      <trkpt lat="46.29924" lon="-0.5074">
        <ele>69</ele>
        <time>2012-01-10T16:13:52Z</time>
      </trkpt>
      <trkpt lat="46.29923" lon="-0.50738">
        <ele>69</ele>
        <time>2012-01-10T16:13:57Z</time>
      </trkpt>
      <trkpt lat="46.29924" lon="-0.50736">
        <ele>68</ele>
        <time>2012-01-10T16:14:02Z</time>
      </trkpt>
      <trkpt lat="46.29923" lon="-0.5073">
        <ele>68</ele>
        <time>2012-01-10T16:14:07Z</time>
      </trkpt>
      <trkpt lat="46.29924" lon="-0.50721">
        <ele>68</ele>
        <time>2012-01-10T16:14:12Z</time>
      </trkpt>
      <trkpt lat="46.29925" lon="-0.50712">
        <ele>68</ele>
        <time>2012-01-10T16:14:17Z</time>
      </trkpt>
      <trkpt lat="46.29923" lon="-0.50704">
        <ele>68</ele>
        <time>2012-01-10T16:14:22Z</time>
      </trkpt>
      <trkpt lat="46.29922" lon="-0.50696">
        <ele>68</ele>
        <time>2012-01-10T16:14:27Z</time>
      </trkpt>
      <trkpt lat="46.2992" lon="-0.50685">
        <ele>67</ele>
        <time>2012-01-10T16:14:32Z</time>
      </trkpt>
      <trkpt lat="46.29917" lon="-0.50676">
        <ele>68</ele>
        <time>2012-01-10T16:14:37Z</time>
      </trkpt>
      <trkpt lat="46.29915" lon="-0.50666">
        <ele>70</ele>
        <time>2012-01-10T16:14:42Z</time>
      </trkpt>
      <trkpt lat="46.29912" lon="-0.50658">
        <ele>71</ele>
        <time>2012-01-10T16:14:47Z</time>
      </trkpt>
      <trkpt lat="46.29909" lon="-0.50651">
        <ele>71</ele>
        <time>2012-01-10T16:14:52Z</time>
      </trkpt>
      <trkpt lat="46.29904" lon="-0.50644">
        <ele>71</ele>
        <time>2012-01-10T16:14:57Z</time>
      </trkpt>
      <trkpt lat="46.299" lon="-0.50635">
        <ele>71</ele>
        <time>2012-01-10T16:15:02Z</time>
      </trkpt>
      <trkpt lat="46.29897" lon="-0.50628">
        <ele>72</ele>
        <time>2012-01-10T16:15:07Z</time>
      </trkpt>
      <trkpt lat="46.29888" lon="-0.50628">
        <ele>75</ele>
        <time>2012-01-10T16:15:12Z</time>
      </trkpt>
      <trkpt lat="46.29883" lon="-0.50628">
        <ele>74</ele>
        <time>2012-01-10T16:15:17Z</time>
      </trkpt>
      <trkpt lat="46.29878" lon="-0.50632">
        <ele>74</ele>
        <time>2012-01-10T16:15:22Z</time>
      </trkpt>
      <trkpt lat="46.29874" lon="-0.50634">
        <ele>74</ele>
        <time>2012-01-10T16:15:27Z</time>
      </trkpt>
      <trkpt lat="46.29873" lon="-0.50637">
        <ele>73</ele>
        <time>2012-01-10T16:15:32Z</time>
      </trkpt>
      <trkpt lat="46.29874" lon="-0.50638">
        <ele>73</ele>
        <time>2012-01-10T16:15:37Z</time>
      </trkpt>
      <trkpt lat="46.29873" lon="-0.50638">
        <ele>72</ele>
        <time>2012-01-10T16:15:42Z</time>
      </trkpt>
      <trkpt lat="46.29869" lon="-0.50643">
        <ele>73</ele>
        <time>2012-01-10T16:15:47Z</time>
      </trkpt>
      <trkpt lat="46.29865" lon="-0.50649">
        <ele>72</ele>
        <time>2012-01-10T16:15:52Z</time>
      </trkpt>
      <trkpt lat="46.29861" lon="-0.50654">
        <ele>71</ele>
        <time>2012-01-10T16:15:57Z</time>
      </trkpt>
      <trkpt lat="46.29857" lon="-0.50661">
        <ele>70</ele>
        <time>2012-01-10T16:16:02Z</time>
      </trkpt>
      <trkpt lat="46.29854" lon="-0.50665">
        <ele>69</ele>
        <time>2012-01-10T16:16:07Z</time>
      </trkpt>
      <trkpt lat="46.29853" lon="-0.50668">
        <ele>70</ele>
        <time>2012-01-10T16:16:12Z</time>
      </trkpt>
      <trkpt lat="46.29853" lon="-0.50667">
        <ele>69</ele>
        <time>2012-01-10T16:16:22Z</time>
      </trkpt>
      <trkpt lat="46.29853" lon="-0.50667">
        <ele>70</ele>
        <time>2012-01-10T16:16:27Z</time>
      </trkpt>
      <trkpt lat="46.29852" lon="-0.50668">
        <ele>70</ele>
        <time>2012-01-10T16:16:32Z</time>
      </trkpt>
      <trkpt lat="46.29849" lon="-0.50669">
        <ele>71</ele>
        <time>2012-01-10T16:17:32Z</time>
      </trkpt>
      <trkpt lat="46.29849" lon="-0.50669">
        <ele>71</ele>
        <time>2012-01-10T16:17:37Z</time>
      </trkpt>
      <trkpt lat="46.29849" lon="-0.50669">
        <ele>71</ele>
        <time>2012-01-10T16:18:17Z</time>
      </trkpt>
      <trkpt lat="46.2985" lon="-0.50669">
        <ele>72</ele>
        <time>2012-01-10T16:18:22Z</time>
      </trkpt>
      <trkpt lat="46.2985" lon="-0.50669">
        <ele>71</ele>
        <time>2012-01-10T16:19:37Z</time>
      </trkpt>
    </trkseg>
  </trk>
</gpx>